<?xml version="1.0" encoding="UTF-8" standalone="no" ?>
<gpx xmlns="http://www.topografix.com/GPX/1/1" xmlns:xsi="http://www.w3.org/2001/XMLSchema-instance" xsi:schemaLocation="http://www.topografix.com/GPX/1/1 http://www.topografix.com/GPX/1/1/gpx.xsd" version="1.1" creator="VisuGPX - https://www.visugpx.com">
  <metadata>
    <name>BIGREEN 2016 - Parcours Rouge</name>
    <desc><![CDATA[Belle édition 2016]]></desc>
  </metadata>
  <wpt lat="43.70079" lon="6.84541">
    <ele>727</ele>
    <name><![CDATA[0000452]]></name>
    <desc><![CDATA[]]></desc>
    <type><![CDATA[Point de départ]]></type>
  </wpt>
  <wpt lat="43.63208" lon="6.95357">
    <ele>116</ele>
    <name><![CDATA[0000453]]></name>
    <desc><![CDATA[<br /><h3>Nom: Segment 1</h3><br /><p>Temps de départ: 03/28/2016 09:08</p><p>Temps d'arrivée: 03/28/2016 15:27</p><p>Distance: 46,3km (06:18)</p><p>Temps déplacement: 03:49</p><p>Vitesse moyenne: 7,3km/h</p><p>Vitesse moyenne mouvement: 12km/h</p><p>Vitess Max.: 44,2km/h</p><p>Altitude minimale: 17m</p><p>Altitude maximale: 761m</p><p>Vitesse d'élévation: 492,4m/h</p><p>Vitesse de descente: -629,4m/h</p><p>Gain Altitude: 858m</p><p>Perte Altitude: -1463m</p><p>Temps d'élévation: 01:44</p><p>Temps de descente: 02:19</p>]]></desc>
    <type><![CDATA[Point d'arrivée]]></type>
  </wpt>
  <trk>
    <name><![CDATA[bigreen 2016 - rouge]]></name>
    <desc><![CDATA[<p>Temps de départ: 03/28/2016 09:08</p><p>Temps d'arrivée: 03/28/2016 15:27</p><p>Distance: 46,3 km (06:18)</p><p>Temps déplacement: 03:52</p><p>Vitesse moyenne: 7,3 km/h</p><p>Vitesse moyenne mouvement: 12 km/h</p><p>Vitess Max.: 44,2km/h</p><p>Altitude minimale: 17 m</p><p>Altitude maximale: 761 m</p><p>Vitesse d'élévation: 492,4 m/h</p><p>Vitesse de descente: -629,4 m/h</p><p>Gain Altitude: 858 m</p><p>Perte Altitude: -1463 m</p><p>Temps d'élévation: 01:44</p><p>Temps de descente: 02:19</p><hr align="center" width="480" style="height: 2px; width: 517px"/>]]></desc>
    <trkseg>
      <trkpt lat="43.70079" lon="6.84541">
        <ele>727</ele>
        <time>2016-03-28T07:08:43Z</time>
      </trkpt>
      <trkpt lat="43.70088" lon="6.84517">
        <ele>728</ele>
        <time>2016-03-28T07:09:55Z</time>
      </trkpt>
      <trkpt lat="43.70097" lon="6.84489">
        <ele>726</ele>
        <time>2016-03-28T07:10:00Z</time>
      </trkpt>
      <trkpt lat="43.70109" lon="6.84468">
        <ele>725</ele>
        <time>2016-03-28T07:10:04Z</time>
      </trkpt>
      <trkpt lat="43.70121" lon="6.84445">
        <ele>725</ele>
        <time>2016-03-28T07:10:07Z</time>
      </trkpt>
      <trkpt lat="43.70129" lon="6.84414">
        <ele>721</ele>
        <time>2016-03-28T07:10:10Z</time>
      </trkpt>
      <trkpt lat="43.7013" lon="6.84386">
        <ele>720</ele>
        <time>2016-03-28T07:10:12Z</time>
      </trkpt>
      <trkpt lat="43.70129" lon="6.84359">
        <ele>719</ele>
        <time>2016-03-28T07:10:14Z</time>
      </trkpt>
      <trkpt lat="43.70127" lon="6.8432">
        <ele>714</ele>
        <time>2016-03-28T07:10:17Z</time>
      </trkpt>
      <trkpt lat="43.70128" lon="6.84293">
        <ele>713</ele>
        <time>2016-03-28T07:10:19Z</time>
      </trkpt>
      <trkpt lat="43.70133" lon="6.84256">
        <ele>712</ele>
        <time>2016-03-28T07:10:22Z</time>
      </trkpt>
      <trkpt lat="43.70141" lon="6.84232">
        <ele>708</ele>
        <time>2016-03-28T07:10:24Z</time>
      </trkpt>
      <trkpt lat="43.70154" lon="6.84205">
        <ele>706</ele>
        <time>2016-03-28T07:10:26Z</time>
      </trkpt>
      <trkpt lat="43.70165" lon="6.84181">
        <ele>705</ele>
        <time>2016-03-28T07:10:28Z</time>
      </trkpt>
      <trkpt lat="43.70174" lon="6.84157">
        <ele>704</ele>
        <time>2016-03-28T07:10:30Z</time>
      </trkpt>
      <trkpt lat="43.70182" lon="6.84127">
        <ele>704</ele>
        <time>2016-03-28T07:10:33Z</time>
      </trkpt>
      <trkpt lat="43.70183" lon="6.84097">
        <ele>704</ele>
        <time>2016-03-28T07:10:36Z</time>
      </trkpt>
      <trkpt lat="43.70176" lon="6.84073">
        <ele>704</ele>
        <time>2016-03-28T07:10:39Z</time>
      </trkpt>
      <trkpt lat="43.70172" lon="6.84047">
        <ele>705</ele>
        <time>2016-03-28T07:10:42Z</time>
      </trkpt>
      <trkpt lat="43.70173" lon="6.84021">
        <ele>706</ele>
        <time>2016-03-28T07:10:46Z</time>
      </trkpt>
      <trkpt lat="43.70182" lon="6.83997">
        <ele>708</ele>
        <time>2016-03-28T07:10:52Z</time>
      </trkpt>
      <trkpt lat="43.70196" lon="6.83979">
        <ele>709</ele>
        <time>2016-03-28T07:10:58Z</time>
      </trkpt>
      <trkpt lat="43.70208" lon="6.83955">
        <ele>710</ele>
        <time>2016-03-28T07:11:05Z</time>
      </trkpt>
      <trkpt lat="43.70216" lon="6.83931">
        <ele>710</ele>
        <time>2016-03-28T07:11:11Z</time>
      </trkpt>
      <trkpt lat="43.70225" lon="6.83908">
        <ele>714</ele>
        <time>2016-03-28T07:11:17Z</time>
      </trkpt>
      <trkpt lat="43.70235" lon="6.83881">
        <ele>715</ele>
        <time>2016-03-28T07:11:23Z</time>
      </trkpt>
      <trkpt lat="43.70244" lon="6.83856">
        <ele>716</ele>
        <time>2016-03-28T07:11:29Z</time>
      </trkpt>
      <trkpt lat="43.70251" lon="6.83831">
        <ele>720</ele>
        <time>2016-03-28T07:11:34Z</time>
      </trkpt>
      <trkpt lat="43.70255" lon="6.83807">
        <ele>723</ele>
        <time>2016-03-28T07:11:38Z</time>
      </trkpt>
      <trkpt lat="43.70262" lon="6.83779">
        <ele>723</ele>
        <time>2016-03-28T07:11:44Z</time>
      </trkpt>
      <trkpt lat="43.70262" lon="6.83752">
        <ele>722</ele>
        <time>2016-03-28T07:11:49Z</time>
      </trkpt>
      <trkpt lat="43.70262" lon="6.83724">
        <ele>724</ele>
        <time>2016-03-28T07:11:55Z</time>
      </trkpt>
      <trkpt lat="43.70268" lon="6.83696">
        <ele>724</ele>
        <time>2016-03-28T07:12:01Z</time>
      </trkpt>
      <trkpt lat="43.70272" lon="6.83667">
        <ele>724</ele>
        <time>2016-03-28T07:12:07Z</time>
      </trkpt>
      <trkpt lat="43.70272" lon="6.83642">
        <ele>725</ele>
        <time>2016-03-28T07:12:12Z</time>
      </trkpt>
      <trkpt lat="43.70262" lon="6.83618">
        <ele>725</ele>
        <time>2016-03-28T07:12:18Z</time>
      </trkpt>
      <trkpt lat="43.7026" lon="6.83592">
        <ele>725</ele>
        <time>2016-03-28T07:12:24Z</time>
      </trkpt>
      <trkpt lat="43.70261" lon="6.83567">
        <ele>725</ele>
        <time>2016-03-28T07:12:32Z</time>
      </trkpt>
      <trkpt lat="43.70261" lon="6.8354">
        <ele>726</ele>
        <time>2016-03-28T07:12:41Z</time>
      </trkpt>
      <trkpt lat="43.70261" lon="6.83514">
        <ele>725</ele>
        <time>2016-03-28T07:12:47Z</time>
      </trkpt>
      <trkpt lat="43.70263" lon="6.83487">
        <ele>726</ele>
        <time>2016-03-28T07:12:53Z</time>
      </trkpt>
      <trkpt lat="43.70264" lon="6.83458">
        <ele>727</ele>
        <time>2016-03-28T07:12:59Z</time>
      </trkpt>
      <trkpt lat="43.70262" lon="6.83428">
        <ele>727</ele>
        <time>2016-03-28T07:13:06Z</time>
      </trkpt>
      <trkpt lat="43.70256" lon="6.83403">
        <ele>729</ele>
        <time>2016-03-28T07:13:13Z</time>
      </trkpt>
      <trkpt lat="43.70249" lon="6.83377">
        <ele>726</ele>
        <time>2016-03-28T07:13:25Z</time>
      </trkpt>
      <trkpt lat="43.70251" lon="6.8335">
        <ele>731</ele>
        <time>2016-03-28T07:13:34Z</time>
      </trkpt>
      <trkpt lat="43.70245" lon="6.83324">
        <ele>730</ele>
        <time>2016-03-28T07:13:47Z</time>
      </trkpt>
      <trkpt lat="43.70244" lon="6.83298">
        <ele>732</ele>
        <time>2016-03-28T07:13:55Z</time>
      </trkpt>
      <trkpt lat="43.70243" lon="6.83269">
        <ele>734</ele>
        <time>2016-03-28T07:14:01Z</time>
      </trkpt>
      <trkpt lat="43.7024" lon="6.83242">
        <ele>737</ele>
        <time>2016-03-28T07:14:08Z</time>
      </trkpt>
      <trkpt lat="43.70234" lon="6.83215">
        <ele>737</ele>
        <time>2016-03-28T07:14:15Z</time>
      </trkpt>
      <trkpt lat="43.70234" lon="6.8319">
        <ele>738</ele>
        <time>2016-03-28T07:14:22Z</time>
      </trkpt>
      <trkpt lat="43.70229" lon="6.83165">
        <ele>740</ele>
        <time>2016-03-28T07:14:29Z</time>
      </trkpt>
      <trkpt lat="43.7023" lon="6.83138">
        <ele>740</ele>
        <time>2016-03-28T07:14:37Z</time>
      </trkpt>
      <trkpt lat="43.70228" lon="6.83113">
        <ele>741</ele>
        <time>2016-03-28T07:14:46Z</time>
      </trkpt>
      <trkpt lat="43.70228" lon="6.83084">
        <ele>742</ele>
        <time>2016-03-28T07:15:03Z</time>
      </trkpt>
      <trkpt lat="43.70226" lon="6.83058">
        <ele>744</ele>
        <time>2016-03-28T07:15:13Z</time>
      </trkpt>
      <trkpt lat="43.70228" lon="6.83031">
        <ele>744</ele>
        <time>2016-03-28T07:15:20Z</time>
      </trkpt>
      <trkpt lat="43.70226" lon="6.83005">
        <ele>745</ele>
        <time>2016-03-28T07:15:28Z</time>
      </trkpt>
      <trkpt lat="43.70223" lon="6.8298">
        <ele>747</ele>
        <time>2016-03-28T07:15:36Z</time>
      </trkpt>
      <trkpt lat="43.70214" lon="6.82955">
        <ele>747</ele>
        <time>2016-03-28T07:15:42Z</time>
      </trkpt>
      <trkpt lat="43.70208" lon="6.82927">
        <ele>748</ele>
        <time>2016-03-28T07:15:47Z</time>
      </trkpt>
      <trkpt lat="43.70202" lon="6.82901">
        <ele>750</ele>
        <time>2016-03-28T07:15:51Z</time>
      </trkpt>
      <trkpt lat="43.70192" lon="6.82873">
        <ele>751</ele>
        <time>2016-03-28T07:15:56Z</time>
      </trkpt>
      <trkpt lat="43.70183" lon="6.82849">
        <ele>749</ele>
        <time>2016-03-28T07:16:01Z</time>
      </trkpt>
      <trkpt lat="43.70175" lon="6.82826">
        <ele>750</ele>
        <time>2016-03-28T07:16:05Z</time>
      </trkpt>
      <trkpt lat="43.70167" lon="6.82803">
        <ele>753</ele>
        <time>2016-03-28T07:16:10Z</time>
      </trkpt>
      <trkpt lat="43.70155" lon="6.82784">
        <ele>742</ele>
        <time>2016-03-28T07:16:15Z</time>
      </trkpt>
      <trkpt lat="43.70142" lon="6.82766">
        <ele>741</ele>
        <time>2016-03-28T07:16:18Z</time>
      </trkpt>
      <trkpt lat="43.70135" lon="6.82735">
        <ele>740</ele>
        <time>2016-03-28T07:16:22Z</time>
      </trkpt>
      <trkpt lat="43.70137" lon="6.82704">
        <ele>740</ele>
        <time>2016-03-28T07:16:26Z</time>
      </trkpt>
      <trkpt lat="43.70141" lon="6.82677">
        <ele>740</ele>
        <time>2016-03-28T07:16:30Z</time>
      </trkpt>
      <trkpt lat="43.70147" lon="6.82648">
        <ele>740</ele>
        <time>2016-03-28T07:16:35Z</time>
      </trkpt>
      <trkpt lat="43.70153" lon="6.82618">
        <ele>739</ele>
        <time>2016-03-28T07:16:40Z</time>
      </trkpt>
      <trkpt lat="43.70158" lon="6.82591">
        <ele>741</ele>
        <time>2016-03-28T07:16:44Z</time>
      </trkpt>
      <trkpt lat="43.70164" lon="6.8256">
        <ele>740</ele>
        <time>2016-03-28T07:16:49Z</time>
      </trkpt>
      <trkpt lat="43.70164" lon="6.82534">
        <ele>740</ele>
        <time>2016-03-28T07:16:53Z</time>
      </trkpt>
      <trkpt lat="43.70161" lon="6.82504">
        <ele>743</ele>
        <time>2016-03-28T07:16:58Z</time>
      </trkpt>
      <trkpt lat="43.70158" lon="6.82478">
        <ele>741</ele>
        <time>2016-03-28T07:17:02Z</time>
      </trkpt>
      <trkpt lat="43.70157" lon="6.82452">
        <ele>741</ele>
        <time>2016-03-28T07:17:06Z</time>
      </trkpt>
      <trkpt lat="43.70154" lon="6.82425">
        <ele>744</ele>
        <time>2016-03-28T07:17:11Z</time>
      </trkpt>
      <trkpt lat="43.70151" lon="6.82399">
        <ele>745</ele>
        <time>2016-03-28T07:17:15Z</time>
      </trkpt>
      <trkpt lat="43.70145" lon="6.82374">
        <ele>745</ele>
        <time>2016-03-28T07:17:20Z</time>
      </trkpt>
      <trkpt lat="43.70139" lon="6.8235">
        <ele>746</ele>
        <time>2016-03-28T07:17:25Z</time>
      </trkpt>
      <trkpt lat="43.70134" lon="6.82324">
        <ele>752</ele>
        <time>2016-03-28T07:17:32Z</time>
      </trkpt>
      <trkpt lat="43.70128" lon="6.82299">
        <ele>752</ele>
        <time>2016-03-28T07:17:38Z</time>
      </trkpt>
      <trkpt lat="43.7012" lon="6.82274">
        <ele>752</ele>
        <time>2016-03-28T07:17:45Z</time>
      </trkpt>
      <trkpt lat="43.70113" lon="6.82248">
        <ele>758</ele>
        <time>2016-03-28T07:17:52Z</time>
      </trkpt>
      <trkpt lat="43.70104" lon="6.82225">
        <ele>758</ele>
        <time>2016-03-28T07:17:59Z</time>
      </trkpt>
      <trkpt lat="43.70094" lon="6.82201">
        <ele>759</ele>
        <time>2016-03-28T07:18:08Z</time>
      </trkpt>
      <trkpt lat="43.70083" lon="6.82177">
        <ele>757</ele>
        <time>2016-03-28T07:18:15Z</time>
      </trkpt>
      <trkpt lat="43.70073" lon="6.82155">
        <ele>754</ele>
        <time>2016-03-28T07:18:22Z</time>
      </trkpt>
      <trkpt lat="43.70065" lon="6.82129">
        <ele>754</ele>
        <time>2016-03-28T07:19:25Z</time>
      </trkpt>
      <trkpt lat="43.70054" lon="6.82104">
        <ele>755</ele>
        <time>2016-03-28T07:20:53Z</time>
      </trkpt>
      <trkpt lat="43.70043" lon="6.82084">
        <ele>754</ele>
        <time>2016-03-28T07:23:13Z</time>
      </trkpt>
      <trkpt lat="43.70039" lon="6.8206">
        <ele>760</ele>
        <time>2016-03-28T07:25:41Z</time>
      </trkpt>
      <trkpt lat="43.70026" lon="6.82042">
        <ele>760</ele>
        <time>2016-03-28T07:28:54Z</time>
      </trkpt>
      <trkpt lat="43.70016" lon="6.82021">
        <ele>760</ele>
        <time>2016-03-28T07:34:41Z</time>
      </trkpt>
      <trkpt lat="43.69997" lon="6.82023">
        <ele>751</ele>
        <time>2016-03-28T07:34:56Z</time>
      </trkpt>
      <trkpt lat="43.69989" lon="6.82048">
        <ele>748</ele>
        <time>2016-03-28T07:36:46Z</time>
      </trkpt>
      <trkpt lat="43.69992" lon="6.82073">
        <ele>748</ele>
        <time>2016-03-28T07:37:08Z</time>
      </trkpt>
      <trkpt lat="43.69974" lon="6.82084">
        <ele>742</ele>
        <time>2016-03-28T07:37:23Z</time>
      </trkpt>
      <trkpt lat="43.69955" lon="6.82089">
        <ele>740</ele>
        <time>2016-03-28T07:37:33Z</time>
      </trkpt>
      <trkpt lat="43.69943" lon="6.82108">
        <ele>738</ele>
        <time>2016-03-28T07:37:44Z</time>
      </trkpt>
      <trkpt lat="43.69926" lon="6.82127">
        <ele>736</ele>
        <time>2016-03-28T07:37:50Z</time>
      </trkpt>
      <trkpt lat="43.69914" lon="6.82148">
        <ele>729</ele>
        <time>2016-03-28T07:37:55Z</time>
      </trkpt>
      <trkpt lat="43.69901" lon="6.82172">
        <ele>724</ele>
        <time>2016-03-28T07:37:59Z</time>
      </trkpt>
      <trkpt lat="43.6989" lon="6.82192">
        <ele>721</ele>
        <time>2016-03-28T07:38:15Z</time>
      </trkpt>
      <trkpt lat="43.69873" lon="6.82203">
        <ele>719</ele>
        <time>2016-03-28T07:38:42Z</time>
      </trkpt>
      <trkpt lat="43.69853" lon="6.82213">
        <ele>717</ele>
        <time>2016-03-28T07:38:50Z</time>
      </trkpt>
      <trkpt lat="43.69838" lon="6.82226">
        <ele>715</ele>
        <time>2016-03-28T07:38:59Z</time>
      </trkpt>
      <trkpt lat="43.69825" lon="6.82244">
        <ele>709</ele>
        <time>2016-03-28T07:39:53Z</time>
      </trkpt>
      <trkpt lat="43.6981" lon="6.82259">
        <ele>702</ele>
        <time>2016-03-28T07:40:35Z</time>
      </trkpt>
      <trkpt lat="43.69792" lon="6.82263">
        <ele>700</ele>
        <time>2016-03-28T07:41:19Z</time>
      </trkpt>
      <trkpt lat="43.69773" lon="6.82259">
        <ele>698</ele>
        <time>2016-03-28T07:41:28Z</time>
      </trkpt>
      <trkpt lat="43.69754" lon="6.82264">
        <ele>696</ele>
        <time>2016-03-28T07:41:34Z</time>
      </trkpt>
      <trkpt lat="43.69744" lon="6.82287">
        <ele>688</ele>
        <time>2016-03-28T07:41:40Z</time>
      </trkpt>
      <trkpt lat="43.69724" lon="6.82297">
        <ele>686</ele>
        <time>2016-03-28T07:41:46Z</time>
      </trkpt>
      <trkpt lat="43.69707" lon="6.8231">
        <ele>685</ele>
        <time>2016-03-28T07:41:49Z</time>
      </trkpt>
      <trkpt lat="43.69687" lon="6.82327">
        <ele>682</ele>
        <time>2016-03-28T07:41:52Z</time>
      </trkpt>
      <trkpt lat="43.69671" lon="6.82342">
        <ele>679</ele>
        <time>2016-03-28T07:41:55Z</time>
      </trkpt>
      <trkpt lat="43.6965" lon="6.82353">
        <ele>674</ele>
        <time>2016-03-28T07:41:59Z</time>
      </trkpt>
      <trkpt lat="43.69629" lon="6.82356">
        <ele>673</ele>
        <time>2016-03-28T07:42:03Z</time>
      </trkpt>
      <trkpt lat="43.6961" lon="6.82356">
        <ele>672</ele>
        <time>2016-03-28T07:42:07Z</time>
      </trkpt>
      <trkpt lat="43.69598" lon="6.82337">
        <ele>670</ele>
        <time>2016-03-28T07:42:21Z</time>
      </trkpt>
      <trkpt lat="43.69597" lon="6.82309">
        <ele>672</ele>
        <time>2016-03-28T07:42:28Z</time>
      </trkpt>
      <trkpt lat="43.69596" lon="6.82282">
        <ele>672</ele>
        <time>2016-03-28T07:42:34Z</time>
      </trkpt>
      <trkpt lat="43.69597" lon="6.82256">
        <ele>671</ele>
        <time>2016-03-28T07:42:40Z</time>
      </trkpt>
      <trkpt lat="43.69601" lon="6.82227">
        <ele>674</ele>
        <time>2016-03-28T07:42:47Z</time>
      </trkpt>
      <trkpt lat="43.696" lon="6.82202">
        <ele>675</ele>
        <time>2016-03-28T07:42:52Z</time>
      </trkpt>
      <trkpt lat="43.69597" lon="6.82175">
        <ele>674</ele>
        <time>2016-03-28T07:42:58Z</time>
      </trkpt>
      <trkpt lat="43.69595" lon="6.82147">
        <ele>676</ele>
        <time>2016-03-28T07:43:16Z</time>
      </trkpt>
      <trkpt lat="43.69596" lon="6.82118">
        <ele>678</ele>
        <time>2016-03-28T07:43:22Z</time>
      </trkpt>
      <trkpt lat="43.69601" lon="6.82093">
        <ele>677</ele>
        <time>2016-03-28T07:43:29Z</time>
      </trkpt>
      <trkpt lat="43.69601" lon="6.82066">
        <ele>678</ele>
        <time>2016-03-28T07:43:40Z</time>
      </trkpt>
      <trkpt lat="43.69594" lon="6.8204">
        <ele>679</ele>
        <time>2016-03-28T07:43:48Z</time>
      </trkpt>
      <trkpt lat="43.69588" lon="6.82014">
        <ele>677</ele>
        <time>2016-03-28T07:43:54Z</time>
      </trkpt>
      <trkpt lat="43.69583" lon="6.81991">
        <ele>670</ele>
        <time>2016-03-28T07:44:09Z</time>
      </trkpt>
      <trkpt lat="43.69577" lon="6.81962">
        <ele>666</ele>
        <time>2016-03-28T07:44:14Z</time>
      </trkpt>
      <trkpt lat="43.69577" lon="6.81937">
        <ele>667</ele>
        <time>2016-03-28T07:44:18Z</time>
      </trkpt>
      <trkpt lat="43.69575" lon="6.8191">
        <ele>667</ele>
        <time>2016-03-28T07:44:23Z</time>
      </trkpt>
      <trkpt lat="43.69575" lon="6.8188">
        <ele>664</ele>
        <time>2016-03-28T07:44:29Z</time>
      </trkpt>
      <trkpt lat="43.69571" lon="6.81855">
        <ele>663</ele>
        <time>2016-03-28T07:44:34Z</time>
      </trkpt>
      <trkpt lat="43.69566" lon="6.81826">
        <ele>662</ele>
        <time>2016-03-28T07:44:40Z</time>
      </trkpt>
      <trkpt lat="43.69562" lon="6.81798">
        <ele>661</ele>
        <time>2016-03-28T07:44:46Z</time>
      </trkpt>
      <trkpt lat="43.6956" lon="6.81773">
        <ele>661</ele>
        <time>2016-03-28T07:45:13Z</time>
      </trkpt>
      <trkpt lat="43.69558" lon="6.81747">
        <ele>660</ele>
        <time>2016-03-28T07:45:20Z</time>
      </trkpt>
      <trkpt lat="43.6955" lon="6.81723">
        <ele>659</ele>
        <time>2016-03-28T07:45:27Z</time>
      </trkpt>
      <trkpt lat="43.69529" lon="6.81719">
        <ele>658</ele>
        <time>2016-03-28T07:45:33Z</time>
      </trkpt>
      <trkpt lat="43.6951" lon="6.8171">
        <ele>657</ele>
        <time>2016-03-28T07:45:38Z</time>
      </trkpt>
      <trkpt lat="43.6949" lon="6.81701">
        <ele>649</ele>
        <time>2016-03-28T07:45:43Z</time>
      </trkpt>
      <trkpt lat="43.69478" lon="6.81682">
        <ele>648</ele>
        <time>2016-03-28T07:45:55Z</time>
      </trkpt>
      <trkpt lat="43.69458" lon="6.81676">
        <ele>646</ele>
        <time>2016-03-28T07:46:08Z</time>
      </trkpt>
      <trkpt lat="43.6944" lon="6.81684">
        <ele>645</ele>
        <time>2016-03-28T07:46:17Z</time>
      </trkpt>
      <trkpt lat="43.69426" lon="6.817">
        <ele>644</ele>
        <time>2016-03-28T07:46:30Z</time>
      </trkpt>
      <trkpt lat="43.69412" lon="6.81716">
        <ele>638</ele>
        <time>2016-03-28T07:47:03Z</time>
      </trkpt>
      <trkpt lat="43.69399" lon="6.81736">
        <ele>638</ele>
        <time>2016-03-28T07:47:35Z</time>
      </trkpt>
      <trkpt lat="43.69387" lon="6.81757">
        <ele>639</ele>
        <time>2016-03-28T07:47:43Z</time>
      </trkpt>
      <trkpt lat="43.6937" lon="6.81769">
        <ele>638</ele>
        <time>2016-03-28T07:47:51Z</time>
      </trkpt>
      <trkpt lat="43.6935" lon="6.81774">
        <ele>637</ele>
        <time>2016-03-28T07:47:55Z</time>
      </trkpt>
      <trkpt lat="43.69331" lon="6.81784">
        <ele>632</ele>
        <time>2016-03-28T07:48:04Z</time>
      </trkpt>
      <trkpt lat="43.69321" lon="6.8181">
        <ele>632</ele>
        <time>2016-03-28T07:48:09Z</time>
      </trkpt>
      <trkpt lat="43.69307" lon="6.81828">
        <ele>632</ele>
        <time>2016-03-28T07:49:07Z</time>
      </trkpt>
      <trkpt lat="43.69286" lon="6.81832">
        <ele>631</ele>
        <time>2016-03-28T07:53:03Z</time>
      </trkpt>
      <trkpt lat="43.69267" lon="6.81823">
        <ele>630</ele>
        <time>2016-03-28T07:53:15Z</time>
      </trkpt>
      <trkpt lat="43.69254" lon="6.81806">
        <ele>630</ele>
        <time>2016-03-28T07:53:26Z</time>
      </trkpt>
      <trkpt lat="43.69235" lon="6.81795">
        <ele>627</ele>
        <time>2016-03-28T07:53:37Z</time>
      </trkpt>
      <trkpt lat="43.69215" lon="6.81801">
        <ele>627</ele>
        <time>2016-03-28T07:53:50Z</time>
      </trkpt>
      <trkpt lat="43.69201" lon="6.81819">
        <ele>627</ele>
        <time>2016-03-28T07:54:13Z</time>
      </trkpt>
      <trkpt lat="43.69181" lon="6.81816">
        <ele>626</ele>
        <time>2016-03-28T07:54:25Z</time>
      </trkpt>
      <trkpt lat="43.6917" lon="6.81795">
        <ele>626</ele>
        <time>2016-03-28T07:54:32Z</time>
      </trkpt>
      <trkpt lat="43.69164" lon="6.8177">
        <ele>625</ele>
        <time>2016-03-28T07:54:39Z</time>
      </trkpt>
      <trkpt lat="43.69178" lon="6.8175">
        <ele>625</ele>
        <time>2016-03-28T07:54:44Z</time>
      </trkpt>
      <trkpt lat="43.69191" lon="6.81729">
        <ele>624</ele>
        <time>2016-03-28T07:54:51Z</time>
      </trkpt>
      <trkpt lat="43.69184" lon="6.81702">
        <ele>624</ele>
        <time>2016-03-28T07:55:05Z</time>
      </trkpt>
      <trkpt lat="43.6918" lon="6.81676">
        <ele>624</ele>
        <time>2016-03-28T07:55:13Z</time>
      </trkpt>
      <trkpt lat="43.69189" lon="6.81652">
        <ele>623</ele>
        <time>2016-03-28T07:55:20Z</time>
      </trkpt>
      <trkpt lat="43.69191" lon="6.81626">
        <ele>622</ele>
        <time>2016-03-28T07:55:25Z</time>
      </trkpt>
      <trkpt lat="43.69193" lon="6.81598">
        <ele>622</ele>
        <time>2016-03-28T07:55:30Z</time>
      </trkpt>
      <trkpt lat="43.69197" lon="6.81572">
        <ele>620</ele>
        <time>2016-03-28T07:55:35Z</time>
      </trkpt>
      <trkpt lat="43.69213" lon="6.81559">
        <ele>620</ele>
        <time>2016-03-28T07:55:40Z</time>
      </trkpt>
      <trkpt lat="43.69229" lon="6.81546">
        <ele>620</ele>
        <time>2016-03-28T07:55:47Z</time>
      </trkpt>
      <trkpt lat="43.69246" lon="6.81535">
        <ele>619</ele>
        <time>2016-03-28T07:55:59Z</time>
      </trkpt>
      <trkpt lat="43.6926" lon="6.81517">
        <ele>620</ele>
        <time>2016-03-28T07:56:09Z</time>
      </trkpt>
      <trkpt lat="43.69268" lon="6.81494">
        <ele>619</ele>
        <time>2016-03-28T07:56:17Z</time>
      </trkpt>
      <trkpt lat="43.6926" lon="6.81469">
        <ele>619</ele>
        <time>2016-03-28T07:57:14Z</time>
      </trkpt>
      <trkpt lat="43.69256" lon="6.81445">
        <ele>619</ele>
        <time>2016-03-28T07:57:38Z</time>
      </trkpt>
      <trkpt lat="43.69254" lon="6.8142">
        <ele>617</ele>
        <time>2016-03-28T07:57:54Z</time>
      </trkpt>
      <trkpt lat="43.69258" lon="6.81395">
        <ele>617</ele>
        <time>2016-03-28T07:58:23Z</time>
      </trkpt>
      <trkpt lat="43.69256" lon="6.81367">
        <ele>616</ele>
        <time>2016-03-28T07:58:38Z</time>
      </trkpt>
      <trkpt lat="43.69264" lon="6.81341">
        <ele>615</ele>
        <time>2016-03-28T07:58:43Z</time>
      </trkpt>
      <trkpt lat="43.69278" lon="6.81322">
        <ele>614</ele>
        <time>2016-03-28T07:58:47Z</time>
      </trkpt>
      <trkpt lat="43.69291" lon="6.81303">
        <ele>614</ele>
        <time>2016-03-28T07:58:52Z</time>
      </trkpt>
      <trkpt lat="43.69291" lon="6.81276">
        <ele>613</ele>
        <time>2016-03-28T07:59:05Z</time>
      </trkpt>
      <trkpt lat="43.69274" lon="6.81264">
        <ele>613</ele>
        <time>2016-03-28T07:59:27Z</time>
      </trkpt>
      <trkpt lat="43.69255" lon="6.81269">
        <ele>613</ele>
        <time>2016-03-28T07:59:46Z</time>
      </trkpt>
      <trkpt lat="43.69237" lon="6.81273">
        <ele>615</ele>
        <time>2016-03-28T08:00:06Z</time>
      </trkpt>
      <trkpt lat="43.69223" lon="6.8129">
        <ele>616</ele>
        <time>2016-03-28T08:00:23Z</time>
      </trkpt>
      <trkpt lat="43.69206" lon="6.81299">
        <ele>616</ele>
        <time>2016-03-28T08:00:29Z</time>
      </trkpt>
      <trkpt lat="43.69187" lon="6.81302">
        <ele>617</ele>
        <time>2016-03-28T08:00:38Z</time>
      </trkpt>
      <trkpt lat="43.69171" lon="6.81317">
        <ele>619</ele>
        <time>2016-03-28T08:00:48Z</time>
      </trkpt>
      <trkpt lat="43.69166" lon="6.81344">
        <ele>621</ele>
        <time>2016-03-28T08:00:55Z</time>
      </trkpt>
      <trkpt lat="43.69154" lon="6.81366">
        <ele>621</ele>
        <time>2016-03-28T08:01:01Z</time>
      </trkpt>
      <trkpt lat="43.69136" lon="6.81355">
        <ele>621</ele>
        <time>2016-03-28T08:01:08Z</time>
      </trkpt>
      <trkpt lat="43.69128" lon="6.81329">
        <ele>621</ele>
        <time>2016-03-28T08:01:13Z</time>
      </trkpt>
      <trkpt lat="43.69129" lon="6.81301">
        <ele>621</ele>
        <time>2016-03-28T08:01:17Z</time>
      </trkpt>
      <trkpt lat="43.69126" lon="6.81274">
        <ele>620</ele>
        <time>2016-03-28T08:01:21Z</time>
      </trkpt>
      <trkpt lat="43.69122" lon="6.81244">
        <ele>619</ele>
        <time>2016-03-28T08:01:26Z</time>
      </trkpt>
      <trkpt lat="43.69108" lon="6.8122">
        <ele>619</ele>
        <time>2016-03-28T08:01:31Z</time>
      </trkpt>
      <trkpt lat="43.69094" lon="6.81202">
        <ele>619</ele>
        <time>2016-03-28T08:01:35Z</time>
      </trkpt>
      <trkpt lat="43.69075" lon="6.81215">
        <ele>621</ele>
        <time>2016-03-28T08:01:42Z</time>
      </trkpt>
      <trkpt lat="43.69056" lon="6.812">
        <ele>621</ele>
        <time>2016-03-28T08:01:49Z</time>
      </trkpt>
      <trkpt lat="43.69036" lon="6.81197">
        <ele>621</ele>
        <time>2016-03-28T08:01:56Z</time>
      </trkpt>
      <trkpt lat="43.69018" lon="6.81211">
        <ele>622</ele>
        <time>2016-03-28T08:02:03Z</time>
      </trkpt>
      <trkpt lat="43.69003" lon="6.81232">
        <ele>622</ele>
        <time>2016-03-28T08:02:08Z</time>
      </trkpt>
      <trkpt lat="43.68989" lon="6.81251">
        <ele>624</ele>
        <time>2016-03-28T08:02:13Z</time>
      </trkpt>
      <trkpt lat="43.68971" lon="6.81269">
        <ele>625</ele>
        <time>2016-03-28T08:02:19Z</time>
      </trkpt>
      <trkpt lat="43.68956" lon="6.81284">
        <ele>626</ele>
        <time>2016-03-28T08:02:24Z</time>
      </trkpt>
      <trkpt lat="43.68946" lon="6.81306">
        <ele>626</ele>
        <time>2016-03-28T08:02:29Z</time>
      </trkpt>
      <trkpt lat="43.68937" lon="6.81328">
        <ele>626</ele>
        <time>2016-03-28T08:02:34Z</time>
      </trkpt>
      <trkpt lat="43.68921" lon="6.81316">
        <ele>626</ele>
        <time>2016-03-28T08:02:51Z</time>
      </trkpt>
      <trkpt lat="43.68915" lon="6.8129">
        <ele>630</ele>
        <time>2016-03-28T08:02:56Z</time>
      </trkpt>
      <trkpt lat="43.68905" lon="6.81266">
        <ele>630</ele>
        <time>2016-03-28T08:03:01Z</time>
      </trkpt>
      <trkpt lat="43.68897" lon="6.81241">
        <ele>632</ele>
        <time>2016-03-28T08:03:08Z</time>
      </trkpt>
      <trkpt lat="43.68898" lon="6.81215">
        <ele>633</ele>
        <time>2016-03-28T08:03:16Z</time>
      </trkpt>
      <trkpt lat="43.68899" lon="6.8119">
        <ele>633</ele>
        <time>2016-03-28T08:03:24Z</time>
      </trkpt>
      <trkpt lat="43.68892" lon="6.81165">
        <ele>636</ele>
        <time>2016-03-28T08:03:33Z</time>
      </trkpt>
      <trkpt lat="43.68888" lon="6.81141">
        <ele>637</ele>
        <time>2016-03-28T08:03:40Z</time>
      </trkpt>
      <trkpt lat="43.6889" lon="6.81115">
        <ele>637</ele>
        <time>2016-03-28T08:03:46Z</time>
      </trkpt>
      <trkpt lat="43.68889" lon="6.81087">
        <ele>637</ele>
        <time>2016-03-28T08:03:51Z</time>
      </trkpt>
      <trkpt lat="43.68887" lon="6.81059">
        <ele>640</ele>
        <time>2016-03-28T08:03:56Z</time>
      </trkpt>
      <trkpt lat="43.68888" lon="6.81032">
        <ele>640</ele>
        <time>2016-03-28T08:04:01Z</time>
      </trkpt>
      <trkpt lat="43.68886" lon="6.81006">
        <ele>640</ele>
        <time>2016-03-28T08:04:07Z</time>
      </trkpt>
      <trkpt lat="43.68886" lon="6.80978">
        <ele>641</ele>
        <time>2016-03-28T08:04:13Z</time>
      </trkpt>
      <trkpt lat="43.68884" lon="6.80952">
        <ele>642</ele>
        <time>2016-03-28T08:04:19Z</time>
      </trkpt>
      <trkpt lat="43.68883" lon="6.80927">
        <ele>642</ele>
        <time>2016-03-28T08:04:24Z</time>
      </trkpt>
      <trkpt lat="43.68877" lon="6.80902">
        <ele>642</ele>
        <time>2016-03-28T08:04:30Z</time>
      </trkpt>
      <trkpt lat="43.68864" lon="6.80885">
        <ele>643</ele>
        <time>2016-03-28T08:04:36Z</time>
      </trkpt>
      <trkpt lat="43.68849" lon="6.80869">
        <ele>644</ele>
        <time>2016-03-28T08:04:44Z</time>
      </trkpt>
      <trkpt lat="43.6883" lon="6.8086">
        <ele>649</ele>
        <time>2016-03-28T08:04:53Z</time>
      </trkpt>
      <trkpt lat="43.68813" lon="6.80872">
        <ele>650</ele>
        <time>2016-03-28T08:05:02Z</time>
      </trkpt>
      <trkpt lat="43.68794" lon="6.80871">
        <ele>651</ele>
        <time>2016-03-28T08:05:13Z</time>
      </trkpt>
      <trkpt lat="43.68782" lon="6.8089">
        <ele>652</ele>
        <time>2016-03-28T08:05:24Z</time>
      </trkpt>
      <trkpt lat="43.68774" lon="6.80915">
        <ele>654</ele>
        <time>2016-03-28T08:05:35Z</time>
      </trkpt>
      <trkpt lat="43.68773" lon="6.80942">
        <ele>654</ele>
        <time>2016-03-28T08:05:44Z</time>
      </trkpt>
      <trkpt lat="43.68765" lon="6.80967">
        <ele>655</ele>
        <time>2016-03-28T08:05:52Z</time>
      </trkpt>
      <trkpt lat="43.68749" lon="6.80984">
        <ele>661</ele>
        <time>2016-03-28T08:06:00Z</time>
      </trkpt>
      <trkpt lat="43.68731" lon="6.80992">
        <ele>662</ele>
        <time>2016-03-28T08:06:09Z</time>
      </trkpt>
      <trkpt lat="43.68717" lon="6.81009">
        <ele>664</ele>
        <time>2016-03-28T08:06:18Z</time>
      </trkpt>
      <trkpt lat="43.68701" lon="6.81024">
        <ele>665</ele>
        <time>2016-03-28T08:06:27Z</time>
      </trkpt>
      <trkpt lat="43.68688" lon="6.81043">
        <ele>666</ele>
        <time>2016-03-28T08:06:35Z</time>
      </trkpt>
      <trkpt lat="43.68672" lon="6.81059">
        <ele>667</ele>
        <time>2016-03-28T08:06:44Z</time>
      </trkpt>
      <trkpt lat="43.68661" lon="6.81081">
        <ele>670</ele>
        <time>2016-03-28T08:06:50Z</time>
      </trkpt>
      <trkpt lat="43.6865" lon="6.81103">
        <ele>671</ele>
        <time>2016-03-28T08:06:57Z</time>
      </trkpt>
      <trkpt lat="43.6864" lon="6.81125">
        <ele>671</ele>
        <time>2016-03-28T08:07:04Z</time>
      </trkpt>
      <trkpt lat="43.68623" lon="6.8114">
        <ele>671</ele>
        <time>2016-03-28T08:07:11Z</time>
      </trkpt>
      <trkpt lat="43.68607" lon="6.81155">
        <ele>672</ele>
        <time>2016-03-28T08:07:15Z</time>
      </trkpt>
      <trkpt lat="43.68586" lon="6.81158">
        <ele>672</ele>
        <time>2016-03-28T08:07:21Z</time>
      </trkpt>
      <trkpt lat="43.68566" lon="6.8116">
        <ele>675</ele>
        <time>2016-03-28T08:07:27Z</time>
      </trkpt>
      <trkpt lat="43.68545" lon="6.81165">
        <ele>677</ele>
        <time>2016-03-28T08:07:33Z</time>
      </trkpt>
      <trkpt lat="43.68525" lon="6.81169">
        <ele>676</ele>
        <time>2016-03-28T08:07:39Z</time>
      </trkpt>
      <trkpt lat="43.68503" lon="6.81176">
        <ele>677</ele>
        <time>2016-03-28T08:07:45Z</time>
      </trkpt>
      <trkpt lat="43.68486" lon="6.81184">
        <ele>681</ele>
        <time>2016-03-28T08:07:50Z</time>
      </trkpt>
      <trkpt lat="43.68465" lon="6.81184">
        <ele>681</ele>
        <time>2016-03-28T08:07:56Z</time>
      </trkpt>
      <trkpt lat="43.68445" lon="6.81179">
        <ele>683</ele>
        <time>2016-03-28T08:08:03Z</time>
      </trkpt>
      <trkpt lat="43.68432" lon="6.812">
        <ele>683</ele>
        <time>2016-03-28T08:08:15Z</time>
      </trkpt>
      <trkpt lat="43.6843" lon="6.81226">
        <ele>683</ele>
        <time>2016-03-28T08:08:23Z</time>
      </trkpt>
      <trkpt lat="43.68423" lon="6.8125">
        <ele>685</ele>
        <time>2016-03-28T08:08:32Z</time>
      </trkpt>
      <trkpt lat="43.68411" lon="6.81271">
        <ele>688</ele>
        <time>2016-03-28T08:08:40Z</time>
      </trkpt>
      <trkpt lat="43.68397" lon="6.81288">
        <ele>689</ele>
        <time>2016-03-28T08:08:47Z</time>
      </trkpt>
      <trkpt lat="43.68383" lon="6.81305">
        <ele>689</ele>
        <time>2016-03-28T08:08:54Z</time>
      </trkpt>
      <trkpt lat="43.68364" lon="6.81303">
        <ele>690</ele>
        <time>2016-03-28T08:09:02Z</time>
      </trkpt>
      <trkpt lat="43.68344" lon="6.81303">
        <ele>690</ele>
        <time>2016-03-28T08:09:11Z</time>
      </trkpt>
      <trkpt lat="43.68326" lon="6.81309">
        <ele>693</ele>
        <time>2016-03-28T08:09:16Z</time>
      </trkpt>
      <trkpt lat="43.68306" lon="6.81314">
        <ele>694</ele>
        <time>2016-03-28T08:09:21Z</time>
      </trkpt>
      <trkpt lat="43.68287" lon="6.81311">
        <ele>694</ele>
        <time>2016-03-28T08:09:26Z</time>
      </trkpt>
      <trkpt lat="43.68267" lon="6.81307">
        <ele>695</ele>
        <time>2016-03-28T08:09:32Z</time>
      </trkpt>
      <trkpt lat="43.68244" lon="6.81305">
        <ele>696</ele>
        <time>2016-03-28T08:09:37Z</time>
      </trkpt>
      <trkpt lat="43.68223" lon="6.81307">
        <ele>696</ele>
        <time>2016-03-28T08:09:42Z</time>
      </trkpt>
      <trkpt lat="43.68204" lon="6.81306">
        <ele>696</ele>
        <time>2016-03-28T08:09:47Z</time>
      </trkpt>
      <trkpt lat="43.68186" lon="6.81302">
        <ele>696</ele>
        <time>2016-03-28T08:09:58Z</time>
      </trkpt>
      <trkpt lat="43.6817" lon="6.81287">
        <ele>696</ele>
        <time>2016-03-28T08:19:50Z</time>
      </trkpt>
      <trkpt lat="43.68157" lon="6.81268">
        <ele>696</ele>
        <time>2016-03-28T08:19:55Z</time>
      </trkpt>
      <trkpt lat="43.68143" lon="6.81246">
        <ele>694</ele>
        <time>2016-03-28T08:20:00Z</time>
      </trkpt>
      <trkpt lat="43.68129" lon="6.81228">
        <ele>693</ele>
        <time>2016-03-28T08:20:04Z</time>
      </trkpt>
      <trkpt lat="43.6811" lon="6.81226">
        <ele>693</ele>
        <time>2016-03-28T08:20:09Z</time>
      </trkpt>
      <trkpt lat="43.68098" lon="6.81245">
        <ele>694</ele>
        <time>2016-03-28T08:20:14Z</time>
      </trkpt>
      <trkpt lat="43.68097" lon="6.81271">
        <ele>695</ele>
        <time>2016-03-28T08:20:20Z</time>
      </trkpt>
      <trkpt lat="43.68097" lon="6.81297">
        <ele>696</ele>
        <time>2016-03-28T08:20:25Z</time>
      </trkpt>
      <trkpt lat="43.68086" lon="6.81321">
        <ele>697</ele>
        <time>2016-03-28T08:20:31Z</time>
      </trkpt>
      <trkpt lat="43.68077" lon="6.81342">
        <ele>699</ele>
        <time>2016-03-28T08:20:37Z</time>
      </trkpt>
      <trkpt lat="43.68067" lon="6.81366">
        <ele>700</ele>
        <time>2016-03-28T08:20:43Z</time>
      </trkpt>
      <trkpt lat="43.68057" lon="6.81388">
        <ele>701</ele>
        <time>2016-03-28T08:20:49Z</time>
      </trkpt>
      <trkpt lat="43.6805" lon="6.81412">
        <ele>701</ele>
        <time>2016-03-28T08:20:57Z</time>
      </trkpt>
      <trkpt lat="43.68041" lon="6.81436">
        <ele>706</ele>
        <time>2016-03-28T08:21:08Z</time>
      </trkpt>
      <trkpt lat="43.68036" lon="6.81462">
        <ele>707</ele>
        <time>2016-03-28T08:21:17Z</time>
      </trkpt>
      <trkpt lat="43.6803" lon="6.81487">
        <ele>709</ele>
        <time>2016-03-28T08:21:26Z</time>
      </trkpt>
      <trkpt lat="43.68023" lon="6.81511">
        <ele>714</ele>
        <time>2016-03-28T08:21:35Z</time>
      </trkpt>
      <trkpt lat="43.68013" lon="6.81534">
        <ele>715</ele>
        <time>2016-03-28T08:21:45Z</time>
      </trkpt>
      <trkpt lat="43.68003" lon="6.81557">
        <ele>717</ele>
        <time>2016-03-28T08:21:55Z</time>
      </trkpt>
      <trkpt lat="43.67994" lon="6.8158">
        <ele>721</ele>
        <time>2016-03-28T08:22:04Z</time>
      </trkpt>
      <trkpt lat="43.67988" lon="6.81605">
        <ele>725</ele>
        <time>2016-03-28T08:22:14Z</time>
      </trkpt>
      <trkpt lat="43.6799" lon="6.81632">
        <ele>727</ele>
        <time>2016-03-28T08:22:25Z</time>
      </trkpt>
      <trkpt lat="43.67992" lon="6.81658">
        <ele>729</ele>
        <time>2016-03-28T08:22:34Z</time>
      </trkpt>
      <trkpt lat="43.67988" lon="6.81684">
        <ele>731</ele>
        <time>2016-03-28T08:22:44Z</time>
      </trkpt>
      <trkpt lat="43.67985" lon="6.81709">
        <ele>732</ele>
        <time>2016-03-28T08:22:53Z</time>
      </trkpt>
      <trkpt lat="43.67983" lon="6.81734">
        <ele>732</ele>
        <time>2016-03-28T08:23:01Z</time>
      </trkpt>
      <trkpt lat="43.67983" lon="6.81762">
        <ele>735</ele>
        <time>2016-03-28T08:23:12Z</time>
      </trkpt>
      <trkpt lat="43.67977" lon="6.81788">
        <ele>736</ele>
        <time>2016-03-28T08:23:20Z</time>
      </trkpt>
      <trkpt lat="43.67971" lon="6.81815">
        <ele>736</ele>
        <time>2016-03-28T08:23:28Z</time>
      </trkpt>
      <trkpt lat="43.67968" lon="6.81842">
        <ele>740</ele>
        <time>2016-03-28T08:23:36Z</time>
      </trkpt>
      <trkpt lat="43.67969" lon="6.81867">
        <ele>741</ele>
        <time>2016-03-28T08:23:43Z</time>
      </trkpt>
      <trkpt lat="43.6798" lon="6.81889">
        <ele>742</ele>
        <time>2016-03-28T08:23:54Z</time>
      </trkpt>
      <trkpt lat="43.67972" lon="6.81914">
        <ele>743</ele>
        <time>2016-03-28T08:24:18Z</time>
      </trkpt>
      <trkpt lat="43.67955" lon="6.81926">
        <ele>748</ele>
        <time>2016-03-28T08:24:35Z</time>
      </trkpt>
      <trkpt lat="43.67938" lon="6.81936">
        <ele>748</ele>
        <time>2016-03-28T08:24:44Z</time>
      </trkpt>
      <trkpt lat="43.6792" lon="6.81949">
        <ele>749</ele>
        <time>2016-03-28T08:24:51Z</time>
      </trkpt>
      <trkpt lat="43.67909" lon="6.81971">
        <ele>747</ele>
        <time>2016-03-28T08:25:01Z</time>
      </trkpt>
      <trkpt lat="43.67907" lon="6.82">
        <ele>751</ele>
        <time>2016-03-28T08:25:10Z</time>
      </trkpt>
      <trkpt lat="43.67896" lon="6.82022">
        <ele>753</ele>
        <time>2016-03-28T08:25:21Z</time>
      </trkpt>
      <trkpt lat="43.67882" lon="6.82042">
        <ele>752</ele>
        <time>2016-03-28T08:25:27Z</time>
      </trkpt>
      <trkpt lat="43.67888" lon="6.82067">
        <ele>754</ele>
        <time>2016-03-28T08:25:45Z</time>
      </trkpt>
      <trkpt lat="43.67894" lon="6.82092">
        <ele>758</ele>
        <time>2016-03-28T08:25:55Z</time>
      </trkpt>
      <trkpt lat="43.67884" lon="6.82115">
        <ele>758</ele>
        <time>2016-03-28T08:26:03Z</time>
      </trkpt>
      <trkpt lat="43.67891" lon="6.82141">
        <ele>759</ele>
        <time>2016-03-28T08:26:12Z</time>
      </trkpt>
      <trkpt lat="43.67894" lon="6.82166">
        <ele>760</ele>
        <time>2016-03-28T08:26:23Z</time>
      </trkpt>
      <trkpt lat="43.67901" lon="6.8219">
        <ele>761</ele>
        <time>2016-03-28T08:26:37Z</time>
      </trkpt>
      <trkpt lat="43.67884" lon="6.82203">
        <ele>761</ele>
        <time>2016-03-28T08:27:36Z</time>
      </trkpt>
      <trkpt lat="43.67877" lon="6.82229">
        <ele>761</ele>
        <time>2016-03-28T08:27:41Z</time>
      </trkpt>
      <trkpt lat="43.67876" lon="6.82255">
        <ele>761</ele>
        <time>2016-03-28T08:27:46Z</time>
      </trkpt>
      <trkpt lat="43.67872" lon="6.82283">
        <ele>761</ele>
        <time>2016-03-28T08:27:51Z</time>
      </trkpt>
      <trkpt lat="43.67872" lon="6.82312">
        <ele>761</ele>
        <time>2016-03-28T08:27:55Z</time>
      </trkpt>
      <trkpt lat="43.67874" lon="6.82339">
        <ele>761</ele>
        <time>2016-03-28T08:27:59Z</time>
      </trkpt>
      <trkpt lat="43.67865" lon="6.82362">
        <ele>760</ele>
        <time>2016-03-28T08:28:04Z</time>
      </trkpt>
      <trkpt lat="43.6786" lon="6.82387">
        <ele>760</ele>
        <time>2016-03-28T08:28:08Z</time>
      </trkpt>
      <trkpt lat="43.67849" lon="6.82411">
        <ele>759</ele>
        <time>2016-03-28T08:28:14Z</time>
      </trkpt>
      <trkpt lat="43.67862" lon="6.82432">
        <ele>757</ele>
        <time>2016-03-28T08:28:20Z</time>
      </trkpt>
      <trkpt lat="43.67884" lon="6.82433">
        <ele>758</ele>
        <time>2016-03-28T08:28:24Z</time>
      </trkpt>
      <trkpt lat="43.67903" lon="6.8244">
        <ele>759</ele>
        <time>2016-03-28T08:28:31Z</time>
      </trkpt>
      <trkpt lat="43.67919" lon="6.82454">
        <ele>760</ele>
        <time>2016-03-28T08:28:38Z</time>
      </trkpt>
      <trkpt lat="43.67929" lon="6.82476">
        <ele>759</ele>
        <time>2016-03-28T08:28:49Z</time>
      </trkpt>
      <trkpt lat="43.67929" lon="6.82503">
        <ele>757</ele>
        <time>2016-03-28T08:28:57Z</time>
      </trkpt>
      <trkpt lat="43.67944" lon="6.82522">
        <ele>757</ele>
        <time>2016-03-28T08:29:03Z</time>
      </trkpt>
      <trkpt lat="43.67962" lon="6.82527">
        <ele>757</ele>
        <time>2016-03-28T08:29:12Z</time>
      </trkpt>
      <trkpt lat="43.6797" lon="6.82552">
        <ele>757</ele>
        <time>2016-03-28T08:29:20Z</time>
      </trkpt>
      <trkpt lat="43.67964" lon="6.82579">
        <ele>756</ele>
        <time>2016-03-28T08:29:26Z</time>
      </trkpt>
      <trkpt lat="43.67947" lon="6.82597">
        <ele>754</ele>
        <time>2016-03-28T08:29:35Z</time>
      </trkpt>
      <trkpt lat="43.67931" lon="6.82612">
        <ele>753</ele>
        <time>2016-03-28T08:29:39Z</time>
      </trkpt>
      <trkpt lat="43.67913" lon="6.82625">
        <ele>747</ele>
        <time>2016-03-28T08:29:44Z</time>
      </trkpt>
      <trkpt lat="43.67903" lon="6.82649">
        <ele>746</ele>
        <time>2016-03-28T08:29:48Z</time>
      </trkpt>
      <trkpt lat="43.67885" lon="6.8266">
        <ele>745</ele>
        <time>2016-03-28T08:29:53Z</time>
      </trkpt>
      <trkpt lat="43.67869" lon="6.82673">
        <ele>741</ele>
        <time>2016-03-28T08:29:58Z</time>
      </trkpt>
      <trkpt lat="43.67853" lon="6.8269">
        <ele>740</ele>
        <time>2016-03-28T08:30:02Z</time>
      </trkpt>
      <trkpt lat="43.67832" lon="6.82692">
        <ele>734</ele>
        <time>2016-03-28T08:30:07Z</time>
      </trkpt>
      <trkpt lat="43.67813" lon="6.82686">
        <ele>734</ele>
        <time>2016-03-28T08:30:11Z</time>
      </trkpt>
      <trkpt lat="43.67797" lon="6.82699">
        <ele>733</ele>
        <time>2016-03-28T08:30:20Z</time>
      </trkpt>
      <trkpt lat="43.67779" lon="6.82703">
        <ele>732</ele>
        <time>2016-03-28T08:30:28Z</time>
      </trkpt>
      <trkpt lat="43.67759" lon="6.82705">
        <ele>731</ele>
        <time>2016-03-28T08:30:35Z</time>
      </trkpt>
      <trkpt lat="43.67738" lon="6.827">
        <ele>728</ele>
        <time>2016-03-28T08:30:40Z</time>
      </trkpt>
      <trkpt lat="43.6772" lon="6.827">
        <ele>727</ele>
        <time>2016-03-28T08:30:45Z</time>
      </trkpt>
      <trkpt lat="43.67702" lon="6.82714">
        <ele>727</ele>
        <time>2016-03-28T08:30:51Z</time>
      </trkpt>
      <trkpt lat="43.67686" lon="6.82727">
        <ele>728</ele>
        <time>2016-03-28T08:30:55Z</time>
      </trkpt>
      <trkpt lat="43.6767" lon="6.8274">
        <ele>729</ele>
        <time>2016-03-28T08:30:59Z</time>
      </trkpt>
      <trkpt lat="43.6765" lon="6.82754">
        <ele>729</ele>
        <time>2016-03-28T08:31:04Z</time>
      </trkpt>
      <trkpt lat="43.67633" lon="6.82763">
        <ele>729</ele>
        <time>2016-03-28T08:31:09Z</time>
      </trkpt>
      <trkpt lat="43.67615" lon="6.8278">
        <ele>728</ele>
        <time>2016-03-28T08:31:14Z</time>
      </trkpt>
      <trkpt lat="43.67596" lon="6.82783">
        <ele>728</ele>
        <time>2016-03-28T08:31:19Z</time>
      </trkpt>
      <trkpt lat="43.67578" lon="6.82794">
        <ele>725</ele>
        <time>2016-03-28T08:31:25Z</time>
      </trkpt>
      <trkpt lat="43.67566" lon="6.82813">
        <ele>726</ele>
        <time>2016-03-28T08:31:33Z</time>
      </trkpt>
      <trkpt lat="43.6755" lon="6.82823">
        <ele>725</ele>
        <time>2016-03-28T08:31:39Z</time>
      </trkpt>
      <trkpt lat="43.67542" lon="6.82847">
        <ele>725</ele>
        <time>2016-03-28T08:31:45Z</time>
      </trkpt>
      <trkpt lat="43.67545" lon="6.82874">
        <ele>725</ele>
        <time>2016-03-28T08:31:51Z</time>
      </trkpt>
      <trkpt lat="43.67558" lon="6.82894">
        <ele>725</ele>
        <time>2016-03-28T08:31:58Z</time>
      </trkpt>
      <trkpt lat="43.67561" lon="6.82919">
        <ele>724</ele>
        <time>2016-03-28T08:32:06Z</time>
      </trkpt>
      <trkpt lat="43.67546" lon="6.82936">
        <ele>723</ele>
        <time>2016-03-28T08:32:12Z</time>
      </trkpt>
      <trkpt lat="43.67536" lon="6.82958">
        <ele>722</ele>
        <time>2016-03-28T08:32:19Z</time>
      </trkpt>
      <trkpt lat="43.67517" lon="6.82963">
        <ele>721</ele>
        <time>2016-03-28T08:32:24Z</time>
      </trkpt>
      <trkpt lat="43.67503" lon="6.82945">
        <ele>721</ele>
        <time>2016-03-28T08:32:28Z</time>
      </trkpt>
      <trkpt lat="43.67483" lon="6.82935">
        <ele>717</ele>
        <time>2016-03-28T08:32:33Z</time>
      </trkpt>
      <trkpt lat="43.67471" lon="6.82958">
        <ele>716</ele>
        <time>2016-03-28T08:32:38Z</time>
      </trkpt>
      <trkpt lat="43.67467" lon="6.82986">
        <ele>715</ele>
        <time>2016-03-28T08:32:43Z</time>
      </trkpt>
      <trkpt lat="43.67466" lon="6.83011">
        <ele>714</ele>
        <time>2016-03-28T08:32:47Z</time>
      </trkpt>
      <trkpt lat="43.67473" lon="6.83034">
        <ele>714</ele>
        <time>2016-03-28T08:32:51Z</time>
      </trkpt>
      <trkpt lat="43.67484" lon="6.83057">
        <ele>714</ele>
        <time>2016-03-28T08:32:56Z</time>
      </trkpt>
      <trkpt lat="43.67482" lon="6.83088">
        <ele>713</ele>
        <time>2016-03-28T08:33:00Z</time>
      </trkpt>
      <trkpt lat="43.6748" lon="6.83113">
        <ele>712</ele>
        <time>2016-03-28T08:33:05Z</time>
      </trkpt>
      <trkpt lat="43.67473" lon="6.8314">
        <ele>711</ele>
        <time>2016-03-28T08:33:12Z</time>
      </trkpt>
      <trkpt lat="43.6746" lon="6.83121">
        <ele>712</ele>
        <time>2016-03-28T08:33:20Z</time>
      </trkpt>
      <trkpt lat="43.67445" lon="6.83138">
        <ele>711</ele>
        <time>2016-03-28T08:33:31Z</time>
      </trkpt>
      <trkpt lat="43.67436" lon="6.83161">
        <ele>711</ele>
        <time>2016-03-28T08:33:37Z</time>
      </trkpt>
      <trkpt lat="43.67424" lon="6.83181">
        <ele>709</ele>
        <time>2016-03-28T08:33:43Z</time>
      </trkpt>
      <trkpt lat="43.67417" lon="6.83208">
        <ele>705</ele>
        <time>2016-03-28T08:33:50Z</time>
      </trkpt>
      <trkpt lat="43.674" lon="6.83222">
        <ele>704</ele>
        <time>2016-03-28T08:33:56Z</time>
      </trkpt>
      <trkpt lat="43.67382" lon="6.83236">
        <ele>703</ele>
        <time>2016-03-28T08:34:03Z</time>
      </trkpt>
      <trkpt lat="43.67364" lon="6.83241">
        <ele>701</ele>
        <time>2016-03-28T08:34:09Z</time>
      </trkpt>
      <trkpt lat="43.67349" lon="6.83259">
        <ele>696</ele>
        <time>2016-03-28T08:34:17Z</time>
      </trkpt>
      <trkpt lat="43.6733" lon="6.83261">
        <ele>692</ele>
        <time>2016-03-28T08:34:26Z</time>
      </trkpt>
      <trkpt lat="43.67311" lon="6.83261">
        <ele>690</ele>
        <time>2016-03-28T08:34:36Z</time>
      </trkpt>
      <trkpt lat="43.67304" lon="6.83291">
        <ele>688</ele>
        <time>2016-03-28T08:34:45Z</time>
      </trkpt>
      <trkpt lat="43.67289" lon="6.8331">
        <ele>687</ele>
        <time>2016-03-28T08:34:50Z</time>
      </trkpt>
      <trkpt lat="43.67275" lon="6.83288">
        <ele>687</ele>
        <time>2016-03-28T08:34:55Z</time>
      </trkpt>
      <trkpt lat="43.67259" lon="6.83266">
        <ele>686</ele>
        <time>2016-03-28T08:34:59Z</time>
      </trkpt>
      <trkpt lat="43.67242" lon="6.8325">
        <ele>680</ele>
        <time>2016-03-28T08:35:04Z</time>
      </trkpt>
      <trkpt lat="43.6723" lon="6.83272">
        <ele>676</ele>
        <time>2016-03-28T08:35:08Z</time>
      </trkpt>
      <trkpt lat="43.67226" lon="6.83298">
        <ele>675</ele>
        <time>2016-03-28T08:35:12Z</time>
      </trkpt>
      <trkpt lat="43.67214" lon="6.83273">
        <ele>674</ele>
        <time>2016-03-28T08:35:22Z</time>
      </trkpt>
      <trkpt lat="43.67208" lon="6.83249">
        <ele>673</ele>
        <time>2016-03-28T08:35:28Z</time>
      </trkpt>
      <trkpt lat="43.672" lon="6.83227">
        <ele>672</ele>
        <time>2016-03-28T08:35:32Z</time>
      </trkpt>
      <trkpt lat="43.67187" lon="6.83202">
        <ele>671</ele>
        <time>2016-03-28T08:35:36Z</time>
      </trkpt>
      <trkpt lat="43.67173" lon="6.83183">
        <ele>668</ele>
        <time>2016-03-28T08:35:41Z</time>
      </trkpt>
      <trkpt lat="43.67164" lon="6.8316">
        <ele>661</ele>
        <time>2016-03-28T08:35:46Z</time>
      </trkpt>
      <trkpt lat="43.67152" lon="6.83134">
        <ele>655</ele>
        <time>2016-03-28T08:35:51Z</time>
      </trkpt>
      <trkpt lat="43.67143" lon="6.83109">
        <ele>654</ele>
        <time>2016-03-28T08:35:55Z</time>
      </trkpt>
      <trkpt lat="43.67137" lon="6.83085">
        <ele>653</ele>
        <time>2016-03-28T08:36:04Z</time>
      </trkpt>
      <trkpt lat="43.6712" lon="6.83103">
        <ele>650</ele>
        <time>2016-03-28T08:36:10Z</time>
      </trkpt>
      <trkpt lat="43.67111" lon="6.83125">
        <ele>649</ele>
        <time>2016-03-28T08:36:13Z</time>
      </trkpt>
      <trkpt lat="43.67104" lon="6.83149">
        <ele>648</ele>
        <time>2016-03-28T08:36:18Z</time>
      </trkpt>
      <trkpt lat="43.67101" lon="6.83176">
        <ele>647</ele>
        <time>2016-03-28T08:36:56Z</time>
      </trkpt>
      <trkpt lat="43.67096" lon="6.83205">
        <ele>649</ele>
        <time>2016-03-28T08:37:00Z</time>
      </trkpt>
      <trkpt lat="43.67092" lon="6.83234">
        <ele>648</ele>
        <time>2016-03-28T08:37:04Z</time>
      </trkpt>
      <trkpt lat="43.67079" lon="6.83252">
        <ele>643</ele>
        <time>2016-03-28T08:37:09Z</time>
      </trkpt>
      <trkpt lat="43.67069" lon="6.83272">
        <ele>639</ele>
        <time>2016-03-28T08:37:26Z</time>
      </trkpt>
      <trkpt lat="43.67061" lon="6.83296">
        <ele>638</ele>
        <time>2016-03-28T08:37:44Z</time>
      </trkpt>
      <trkpt lat="43.67049" lon="6.83315">
        <ele>638</ele>
        <time>2016-03-28T08:37:52Z</time>
      </trkpt>
      <trkpt lat="43.67032" lon="6.83329">
        <ele>635</ele>
        <time>2016-03-28T08:38:25Z</time>
      </trkpt>
      <trkpt lat="43.67014" lon="6.83332">
        <ele>633</ele>
        <time>2016-03-28T08:38:29Z</time>
      </trkpt>
      <trkpt lat="43.66994" lon="6.83334">
        <ele>629</ele>
        <time>2016-03-28T08:38:34Z</time>
      </trkpt>
      <trkpt lat="43.66974" lon="6.83328">
        <ele>624</ele>
        <time>2016-03-28T08:38:40Z</time>
      </trkpt>
      <trkpt lat="43.66955" lon="6.83322">
        <ele>621</ele>
        <time>2016-03-28T08:38:45Z</time>
      </trkpt>
      <trkpt lat="43.66939" lon="6.83307">
        <ele>619</ele>
        <time>2016-03-28T08:38:51Z</time>
      </trkpt>
      <trkpt lat="43.66918" lon="6.8331">
        <ele>618</ele>
        <time>2016-03-28T08:38:58Z</time>
      </trkpt>
      <trkpt lat="43.66908" lon="6.83332">
        <ele>614</ele>
        <time>2016-03-28T08:39:08Z</time>
      </trkpt>
      <trkpt lat="43.66892" lon="6.83318">
        <ele>610</ele>
        <time>2016-03-28T08:39:14Z</time>
      </trkpt>
      <trkpt lat="43.66873" lon="6.83326">
        <ele>609</ele>
        <time>2016-03-28T08:39:20Z</time>
      </trkpt>
      <trkpt lat="43.66855" lon="6.83344">
        <ele>610</ele>
        <time>2016-03-28T08:39:24Z</time>
      </trkpt>
      <trkpt lat="43.66836" lon="6.83348">
        <ele>609</ele>
        <time>2016-03-28T08:39:29Z</time>
      </trkpt>
      <trkpt lat="43.66819" lon="6.83358">
        <ele>603</ele>
        <time>2016-03-28T08:39:33Z</time>
      </trkpt>
      <trkpt lat="43.66802" lon="6.83372">
        <ele>603</ele>
        <time>2016-03-28T08:39:37Z</time>
      </trkpt>
      <trkpt lat="43.66786" lon="6.83387">
        <ele>602</ele>
        <time>2016-03-28T08:39:40Z</time>
      </trkpt>
      <trkpt lat="43.66769" lon="6.83402">
        <ele>602</ele>
        <time>2016-03-28T08:39:43Z</time>
      </trkpt>
      <trkpt lat="43.66753" lon="6.83421">
        <ele>602</ele>
        <time>2016-03-28T08:39:46Z</time>
      </trkpt>
      <trkpt lat="43.66732" lon="6.83423">
        <ele>599</ele>
        <time>2016-03-28T08:39:50Z</time>
      </trkpt>
      <trkpt lat="43.66723" lon="6.83397">
        <ele>594</ele>
        <time>2016-03-28T08:39:58Z</time>
      </trkpt>
      <trkpt lat="43.66723" lon="6.83371">
        <ele>592</ele>
        <time>2016-03-28T08:40:05Z</time>
      </trkpt>
      <trkpt lat="43.66728" lon="6.83344">
        <ele>591</ele>
        <time>2016-03-28T08:40:10Z</time>
      </trkpt>
      <trkpt lat="43.66735" lon="6.83314">
        <ele>588</ele>
        <time>2016-03-28T08:40:14Z</time>
      </trkpt>
      <trkpt lat="43.66734" lon="6.83281">
        <ele>586</ele>
        <time>2016-03-28T08:40:18Z</time>
      </trkpt>
      <trkpt lat="43.66732" lon="6.83256">
        <ele>585</ele>
        <time>2016-03-28T08:40:21Z</time>
      </trkpt>
      <trkpt lat="43.66712" lon="6.83252">
        <ele>584</ele>
        <time>2016-03-28T08:40:26Z</time>
      </trkpt>
      <trkpt lat="43.66696" lon="6.83268">
        <ele>583</ele>
        <time>2016-03-28T08:40:31Z</time>
      </trkpt>
      <trkpt lat="43.66681" lon="6.83282">
        <ele>583</ele>
        <time>2016-03-28T08:40:40Z</time>
      </trkpt>
      <trkpt lat="43.66661" lon="6.83272">
        <ele>578</ele>
        <time>2016-03-28T08:40:47Z</time>
      </trkpt>
      <trkpt lat="43.66647" lon="6.8325">
        <ele>578</ele>
        <time>2016-03-28T08:40:51Z</time>
      </trkpt>
      <trkpt lat="43.66632" lon="6.83224">
        <ele>573</ele>
        <time>2016-03-28T08:40:55Z</time>
      </trkpt>
      <trkpt lat="43.66622" lon="6.83198">
        <ele>572</ele>
        <time>2016-03-28T08:40:59Z</time>
      </trkpt>
      <trkpt lat="43.666" lon="6.83197">
        <ele>572</ele>
        <time>2016-03-28T08:41:04Z</time>
      </trkpt>
      <trkpt lat="43.6658" lon="6.83204">
        <ele>570</ele>
        <time>2016-03-28T08:41:08Z</time>
      </trkpt>
      <trkpt lat="43.66562" lon="6.83208">
        <ele>570</ele>
        <time>2016-03-28T08:41:12Z</time>
      </trkpt>
      <trkpt lat="43.6654" lon="6.83217">
        <ele>570</ele>
        <time>2016-03-28T08:41:17Z</time>
      </trkpt>
      <trkpt lat="43.66522" lon="6.83234">
        <ele>569</ele>
        <time>2016-03-28T08:41:22Z</time>
      </trkpt>
      <trkpt lat="43.66511" lon="6.83262">
        <ele>570</ele>
        <time>2016-03-28T08:41:27Z</time>
      </trkpt>
      <trkpt lat="43.66507" lon="6.83288">
        <ele>571</ele>
        <time>2016-03-28T08:41:31Z</time>
      </trkpt>
      <trkpt lat="43.66492" lon="6.83303">
        <ele>570</ele>
        <time>2016-03-28T08:41:36Z</time>
      </trkpt>
      <trkpt lat="43.66489" lon="6.83277">
        <ele>570</ele>
        <time>2016-03-28T08:42:06Z</time>
      </trkpt>
      <trkpt lat="43.6649" lon="6.83247">
        <ele>569</ele>
        <time>2016-03-28T08:42:11Z</time>
      </trkpt>
      <trkpt lat="43.66491" lon="6.83217">
        <ele>570</ele>
        <time>2016-03-28T08:42:16Z</time>
      </trkpt>
      <trkpt lat="43.6649" lon="6.83191">
        <ele>570</ele>
        <time>2016-03-28T08:42:20Z</time>
      </trkpt>
      <trkpt lat="43.66483" lon="6.83168">
        <ele>570</ele>
        <time>2016-03-28T08:42:25Z</time>
      </trkpt>
      <trkpt lat="43.6649" lon="6.83138">
        <ele>571</ele>
        <time>2016-03-28T08:42:30Z</time>
      </trkpt>
      <trkpt lat="43.66501" lon="6.83111">
        <ele>567</ele>
        <time>2016-03-28T08:42:33Z</time>
      </trkpt>
      <trkpt lat="43.66515" lon="6.83087">
        <ele>567</ele>
        <time>2016-03-28T08:42:37Z</time>
      </trkpt>
      <trkpt lat="43.66531" lon="6.83072">
        <ele>567</ele>
        <time>2016-03-28T08:42:40Z</time>
      </trkpt>
      <trkpt lat="43.66548" lon="6.83058">
        <ele>567</ele>
        <time>2016-03-28T08:42:43Z</time>
      </trkpt>
      <trkpt lat="43.66563" lon="6.83041">
        <ele>567</ele>
        <time>2016-03-28T08:42:48Z</time>
      </trkpt>
      <trkpt lat="43.66581" lon="6.83031">
        <ele>566</ele>
        <time>2016-03-28T08:42:51Z</time>
      </trkpt>
      <trkpt lat="43.66601" lon="6.83012">
        <ele>565</ele>
        <time>2016-03-28T08:42:55Z</time>
      </trkpt>
      <trkpt lat="43.66622" lon="6.83002">
        <ele>564</ele>
        <time>2016-03-28T08:42:59Z</time>
      </trkpt>
      <trkpt lat="43.66641" lon="6.82991">
        <ele>563</ele>
        <time>2016-03-28T08:43:05Z</time>
      </trkpt>
      <trkpt lat="43.66657" lon="6.82975">
        <ele>563</ele>
        <time>2016-03-28T08:43:10Z</time>
      </trkpt>
      <trkpt lat="43.66674" lon="6.82961">
        <ele>563</ele>
        <time>2016-03-28T08:43:14Z</time>
      </trkpt>
      <trkpt lat="43.66686" lon="6.82943">
        <ele>563</ele>
        <time>2016-03-28T08:43:18Z</time>
      </trkpt>
      <trkpt lat="43.66693" lon="6.82916">
        <ele>561</ele>
        <time>2016-03-28T08:43:22Z</time>
      </trkpt>
      <trkpt lat="43.66696" lon="6.8289">
        <ele>562</ele>
        <time>2016-03-28T08:43:28Z</time>
      </trkpt>
      <trkpt lat="43.66697" lon="6.82863">
        <ele>561</ele>
        <time>2016-03-28T08:43:41Z</time>
      </trkpt>
      <trkpt lat="43.66692" lon="6.82837">
        <ele>561</ele>
        <time>2016-03-28T08:43:49Z</time>
      </trkpt>
      <trkpt lat="43.667" lon="6.8281">
        <ele>559</ele>
        <time>2016-03-28T08:43:54Z</time>
      </trkpt>
      <trkpt lat="43.66699" lon="6.82781">
        <ele>559</ele>
        <time>2016-03-28T08:43:59Z</time>
      </trkpt>
      <trkpt lat="43.66708" lon="6.82753">
        <ele>558</ele>
        <time>2016-03-28T08:44:04Z</time>
      </trkpt>
      <trkpt lat="43.66715" lon="6.82725">
        <ele>558</ele>
        <time>2016-03-28T08:44:10Z</time>
      </trkpt>
      <trkpt lat="43.6672" lon="6.827">
        <ele>558</ele>
        <time>2016-03-28T08:44:15Z</time>
      </trkpt>
      <trkpt lat="43.66723" lon="6.82673">
        <ele>558</ele>
        <time>2016-03-28T08:44:20Z</time>
      </trkpt>
      <trkpt lat="43.66734" lon="6.82649">
        <ele>558</ele>
        <time>2016-03-28T08:44:24Z</time>
      </trkpt>
      <trkpt lat="43.66745" lon="6.82626">
        <ele>558</ele>
        <time>2016-03-28T08:44:29Z</time>
      </trkpt>
      <trkpt lat="43.66747" lon="6.82596">
        <ele>556</ele>
        <time>2016-03-28T08:44:33Z</time>
      </trkpt>
      <trkpt lat="43.66751" lon="6.82569">
        <ele>554</ele>
        <time>2016-03-28T08:44:37Z</time>
      </trkpt>
      <trkpt lat="43.66757" lon="6.82542">
        <ele>555</ele>
        <time>2016-03-28T08:44:41Z</time>
      </trkpt>
      <trkpt lat="43.66767" lon="6.8252">
        <ele>555</ele>
        <time>2016-03-28T08:44:44Z</time>
      </trkpt>
      <trkpt lat="43.66779" lon="6.82494">
        <ele>555</ele>
        <time>2016-03-28T08:44:48Z</time>
      </trkpt>
      <trkpt lat="43.66782" lon="6.82464">
        <ele>555</ele>
        <time>2016-03-28T08:44:52Z</time>
      </trkpt>
      <trkpt lat="43.66784" lon="6.82436">
        <ele>555</ele>
        <time>2016-03-28T08:44:55Z</time>
      </trkpt>
      <trkpt lat="43.66787" lon="6.82409">
        <ele>555</ele>
        <time>2016-03-28T08:44:58Z</time>
      </trkpt>
      <trkpt lat="43.66799" lon="6.82382">
        <ele>554</ele>
        <time>2016-03-28T08:45:01Z</time>
      </trkpt>
      <trkpt lat="43.66807" lon="6.82355">
        <ele>554</ele>
        <time>2016-03-28T08:45:05Z</time>
      </trkpt>
      <trkpt lat="43.66814" lon="6.82328">
        <ele>553</ele>
        <time>2016-03-28T08:45:11Z</time>
      </trkpt>
      <trkpt lat="43.66817" lon="6.82303">
        <ele>554</ele>
        <time>2016-03-28T08:45:16Z</time>
      </trkpt>
      <trkpt lat="43.6681" lon="6.82274">
        <ele>555</ele>
        <time>2016-03-28T08:45:21Z</time>
      </trkpt>
      <trkpt lat="43.66807" lon="6.82245">
        <ele>556</ele>
        <time>2016-03-28T08:45:26Z</time>
      </trkpt>
      <trkpt lat="43.6681" lon="6.82216">
        <ele>556</ele>
        <time>2016-03-28T08:45:31Z</time>
      </trkpt>
      <trkpt lat="43.6681" lon="6.82188">
        <ele>556</ele>
        <time>2016-03-28T08:45:36Z</time>
      </trkpt>
      <trkpt lat="43.66822" lon="6.82165">
        <ele>554</ele>
        <time>2016-03-28T08:45:41Z</time>
      </trkpt>
      <trkpt lat="43.66834" lon="6.82144">
        <ele>549</ele>
        <time>2016-03-28T08:45:45Z</time>
      </trkpt>
      <trkpt lat="43.6684" lon="6.82118">
        <ele>550</ele>
        <time>2016-03-28T08:45:50Z</time>
      </trkpt>
      <trkpt lat="43.66842" lon="6.82089">
        <ele>552</ele>
        <time>2016-03-28T08:45:56Z</time>
      </trkpt>
      <trkpt lat="43.66843" lon="6.82063">
        <ele>552</ele>
        <time>2016-03-28T08:46:01Z</time>
      </trkpt>
      <trkpt lat="43.66841" lon="6.82033">
        <ele>552</ele>
        <time>2016-03-28T08:46:06Z</time>
      </trkpt>
      <trkpt lat="43.66842" lon="6.82006">
        <ele>554</ele>
        <time>2016-03-28T08:46:11Z</time>
      </trkpt>
      <trkpt lat="43.66852" lon="6.81983">
        <ele>554</ele>
        <time>2016-03-28T08:46:15Z</time>
      </trkpt>
      <trkpt lat="43.6687" lon="6.81967">
        <ele>553</ele>
        <time>2016-03-28T08:46:20Z</time>
      </trkpt>
      <trkpt lat="43.66891" lon="6.81957">
        <ele>552</ele>
        <time>2016-03-28T08:46:25Z</time>
      </trkpt>
      <trkpt lat="43.66905" lon="6.81938">
        <ele>550</ele>
        <time>2016-03-28T08:46:29Z</time>
      </trkpt>
      <trkpt lat="43.6692" lon="6.81914">
        <ele>547</ele>
        <time>2016-03-28T08:46:33Z</time>
      </trkpt>
      <trkpt lat="43.66927" lon="6.81887">
        <ele>546</ele>
        <time>2016-03-28T08:46:38Z</time>
      </trkpt>
      <trkpt lat="43.66933" lon="6.81856">
        <ele>545</ele>
        <time>2016-03-28T08:46:41Z</time>
      </trkpt>
      <trkpt lat="43.66939" lon="6.81831">
        <ele>544</ele>
        <time>2016-03-28T08:46:44Z</time>
      </trkpt>
      <trkpt lat="43.66945" lon="6.81801">
        <ele>544</ele>
        <time>2016-03-28T08:46:48Z</time>
      </trkpt>
      <trkpt lat="43.66954" lon="6.81777">
        <ele>543</ele>
        <time>2016-03-28T08:46:51Z</time>
      </trkpt>
      <trkpt lat="43.66966" lon="6.81757">
        <ele>543</ele>
        <time>2016-03-28T08:46:54Z</time>
      </trkpt>
      <trkpt lat="43.66981" lon="6.81736">
        <ele>542</ele>
        <time>2016-03-28T08:46:58Z</time>
      </trkpt>
      <trkpt lat="43.66988" lon="6.81711">
        <ele>542</ele>
        <time>2016-03-28T08:47:02Z</time>
      </trkpt>
      <trkpt lat="43.67" lon="6.81687">
        <ele>540</ele>
        <time>2016-03-28T08:47:06Z</time>
      </trkpt>
      <trkpt lat="43.67012" lon="6.81661">
        <ele>539</ele>
        <time>2016-03-28T08:47:10Z</time>
      </trkpt>
      <trkpt lat="43.67022" lon="6.81636">
        <ele>540</ele>
        <time>2016-03-28T08:47:14Z</time>
      </trkpt>
      <trkpt lat="43.67035" lon="6.81612">
        <ele>540</ele>
        <time>2016-03-28T08:47:18Z</time>
      </trkpt>
      <trkpt lat="43.67043" lon="6.81584">
        <ele>540</ele>
        <time>2016-03-28T08:47:23Z</time>
      </trkpt>
      <trkpt lat="43.67054" lon="6.81563">
        <ele>539</ele>
        <time>2016-03-28T08:47:27Z</time>
      </trkpt>
      <trkpt lat="43.67051" lon="6.81538">
        <ele>539</ele>
        <time>2016-03-28T08:47:34Z</time>
      </trkpt>
      <trkpt lat="43.67051" lon="6.81512">
        <ele>538</ele>
        <time>2016-03-28T08:47:44Z</time>
      </trkpt>
      <trkpt lat="43.67046" lon="6.81485">
        <ele>538</ele>
        <time>2016-03-28T08:47:51Z</time>
      </trkpt>
      <trkpt lat="43.67046" lon="6.81456">
        <ele>538</ele>
        <time>2016-03-28T08:47:56Z</time>
      </trkpt>
      <trkpt lat="43.67039" lon="6.8143">
        <ele>538</ele>
        <time>2016-03-28T08:48:02Z</time>
      </trkpt>
      <trkpt lat="43.67027" lon="6.81407">
        <ele>537</ele>
        <time>2016-03-28T08:48:09Z</time>
      </trkpt>
      <trkpt lat="43.67015" lon="6.81388">
        <ele>537</ele>
        <time>2016-03-28T08:48:15Z</time>
      </trkpt>
      <trkpt lat="43.67005" lon="6.81364">
        <ele>537</ele>
        <time>2016-03-28T08:48:20Z</time>
      </trkpt>
      <trkpt lat="43.67" lon="6.81336">
        <ele>536</ele>
        <time>2016-03-28T08:48:27Z</time>
      </trkpt>
      <trkpt lat="43.66994" lon="6.81312">
        <ele>538</ele>
        <time>2016-03-28T08:48:32Z</time>
      </trkpt>
      <trkpt lat="43.66979" lon="6.81287">
        <ele>538</ele>
        <time>2016-03-28T08:48:37Z</time>
      </trkpt>
      <trkpt lat="43.66975" lon="6.81259">
        <ele>537</ele>
        <time>2016-03-28T08:48:41Z</time>
      </trkpt>
      <trkpt lat="43.66971" lon="6.81234">
        <ele>536</ele>
        <time>2016-03-28T08:48:45Z</time>
      </trkpt>
      <trkpt lat="43.66971" lon="6.81207">
        <ele>536</ele>
        <time>2016-03-28T08:48:50Z</time>
      </trkpt>
      <trkpt lat="43.6697" lon="6.81182">
        <ele>535</ele>
        <time>2016-03-28T08:48:58Z</time>
      </trkpt>
      <trkpt lat="43.66964" lon="6.81154">
        <ele>534</ele>
        <time>2016-03-28T08:49:04Z</time>
      </trkpt>
      <trkpt lat="43.66955" lon="6.81131">
        <ele>534</ele>
        <time>2016-03-28T08:49:08Z</time>
      </trkpt>
      <trkpt lat="43.66949" lon="6.81106">
        <ele>535</ele>
        <time>2016-03-28T08:49:12Z</time>
      </trkpt>
      <trkpt lat="43.66945" lon="6.81081">
        <ele>534</ele>
        <time>2016-03-28T08:49:17Z</time>
      </trkpt>
      <trkpt lat="43.66934" lon="6.81061">
        <ele>534</ele>
        <time>2016-03-28T08:49:29Z</time>
      </trkpt>
      <trkpt lat="43.6693" lon="6.81036">
        <ele>534</ele>
        <time>2016-03-28T08:49:39Z</time>
      </trkpt>
      <trkpt lat="43.6694" lon="6.81014">
        <ele>534</ele>
        <time>2016-03-28T08:49:49Z</time>
      </trkpt>
      <trkpt lat="43.66949" lon="6.80991">
        <ele>533</ele>
        <time>2016-03-28T08:49:54Z</time>
      </trkpt>
      <trkpt lat="43.66936" lon="6.80965">
        <ele>533</ele>
        <time>2016-03-28T08:49:59Z</time>
      </trkpt>
      <trkpt lat="43.66927" lon="6.80941">
        <ele>534</ele>
        <time>2016-03-28T08:50:05Z</time>
      </trkpt>
      <trkpt lat="43.66921" lon="6.80917">
        <ele>536</ele>
        <time>2016-03-28T08:50:10Z</time>
      </trkpt>
      <trkpt lat="43.6692" lon="6.80891">
        <ele>534</ele>
        <time>2016-03-28T08:50:15Z</time>
      </trkpt>
      <trkpt lat="43.66914" lon="6.80865">
        <ele>539</ele>
        <time>2016-03-28T08:50:22Z</time>
      </trkpt>
      <trkpt lat="43.66904" lon="6.80843">
        <ele>539</ele>
        <time>2016-03-28T08:50:29Z</time>
      </trkpt>
      <trkpt lat="43.66892" lon="6.80821">
        <ele>539</ele>
        <time>2016-03-28T08:50:36Z</time>
      </trkpt>
      <trkpt lat="43.66881" lon="6.80801">
        <ele>539</ele>
        <time>2016-03-28T08:50:43Z</time>
      </trkpt>
      <trkpt lat="43.66864" lon="6.80795">
        <ele>539</ele>
        <time>2016-03-28T08:50:48Z</time>
      </trkpt>
      <trkpt lat="43.66845" lon="6.80795">
        <ele>539</ele>
        <time>2016-03-28T08:50:53Z</time>
      </trkpt>
      <trkpt lat="43.66825" lon="6.80784">
        <ele>540</ele>
        <time>2016-03-28T08:50:58Z</time>
      </trkpt>
      <trkpt lat="43.66808" lon="6.80773">
        <ele>540</ele>
        <time>2016-03-28T08:51:02Z</time>
      </trkpt>
      <trkpt lat="43.66791" lon="6.80761">
        <ele>541</ele>
        <time>2016-03-28T08:51:07Z</time>
      </trkpt>
      <trkpt lat="43.66783" lon="6.80738">
        <ele>539</ele>
        <time>2016-03-28T08:51:12Z</time>
      </trkpt>
      <trkpt lat="43.66775" lon="6.80713">
        <ele>539</ele>
        <time>2016-03-28T08:51:18Z</time>
      </trkpt>
      <trkpt lat="43.6677" lon="6.80688">
        <ele>538</ele>
        <time>2016-03-28T08:51:23Z</time>
      </trkpt>
      <trkpt lat="43.66765" lon="6.80662">
        <ele>537</ele>
        <time>2016-03-28T08:51:28Z</time>
      </trkpt>
      <trkpt lat="43.66759" lon="6.80637">
        <ele>537</ele>
        <time>2016-03-28T08:51:36Z</time>
      </trkpt>
      <trkpt lat="43.66752" lon="6.80613">
        <ele>536</ele>
        <time>2016-03-28T08:51:44Z</time>
      </trkpt>
      <trkpt lat="43.66748" lon="6.80585">
        <ele>536</ele>
        <time>2016-03-28T08:52:08Z</time>
      </trkpt>
      <trkpt lat="43.66737" lon="6.80562">
        <ele>535</ele>
        <time>2016-03-28T08:52:14Z</time>
      </trkpt>
      <trkpt lat="43.66728" lon="6.80536">
        <ele>535</ele>
        <time>2016-03-28T08:52:20Z</time>
      </trkpt>
      <trkpt lat="43.66718" lon="6.80516">
        <ele>535</ele>
        <time>2016-03-28T08:52:24Z</time>
      </trkpt>
      <trkpt lat="43.66707" lon="6.8049">
        <ele>532</ele>
        <time>2016-03-28T08:52:29Z</time>
      </trkpt>
      <trkpt lat="43.66705" lon="6.80465">
        <ele>532</ele>
        <time>2016-03-28T08:52:35Z</time>
      </trkpt>
      <trkpt lat="43.66704" lon="6.80434">
        <ele>531</ele>
        <time>2016-03-28T08:52:40Z</time>
      </trkpt>
      <trkpt lat="43.66702" lon="6.80405">
        <ele>529</ele>
        <time>2016-03-28T08:52:46Z</time>
      </trkpt>
      <trkpt lat="43.66711" lon="6.80379">
        <ele>529</ele>
        <time>2016-03-28T08:52:53Z</time>
      </trkpt>
      <trkpt lat="43.66707" lon="6.80352">
        <ele>528</ele>
        <time>2016-03-28T08:52:58Z</time>
      </trkpt>
      <trkpt lat="43.66697" lon="6.80331">
        <ele>527</ele>
        <time>2016-03-28T08:53:02Z</time>
      </trkpt>
      <trkpt lat="43.66693" lon="6.80303">
        <ele>527</ele>
        <time>2016-03-28T08:53:06Z</time>
      </trkpt>
      <trkpt lat="43.66682" lon="6.8028">
        <ele>527</ele>
        <time>2016-03-28T08:53:10Z</time>
      </trkpt>
      <trkpt lat="43.66671" lon="6.80259">
        <ele>527</ele>
        <time>2016-03-28T08:53:17Z</time>
      </trkpt>
      <trkpt lat="43.66664" lon="6.80236">
        <ele>528</ele>
        <time>2016-03-28T08:53:22Z</time>
      </trkpt>
      <trkpt lat="43.66663" lon="6.8021">
        <ele>528</ele>
        <time>2016-03-28T08:53:34Z</time>
      </trkpt>
      <trkpt lat="43.66651" lon="6.80189">
        <ele>528</ele>
        <time>2016-03-28T08:53:42Z</time>
      </trkpt>
      <trkpt lat="43.66649" lon="6.80161">
        <ele>526</ele>
        <time>2016-03-28T08:53:49Z</time>
      </trkpt>
      <trkpt lat="43.66645" lon="6.80134">
        <ele>526</ele>
        <time>2016-03-28T08:53:53Z</time>
      </trkpt>
      <trkpt lat="43.66641" lon="6.80109">
        <ele>526</ele>
        <time>2016-03-28T08:53:57Z</time>
      </trkpt>
      <trkpt lat="43.66642" lon="6.80082">
        <ele>524</ele>
        <time>2016-03-28T08:54:01Z</time>
      </trkpt>
      <trkpt lat="43.66644" lon="6.80056">
        <ele>524</ele>
        <time>2016-03-28T08:54:05Z</time>
      </trkpt>
      <trkpt lat="43.66642" lon="6.80029">
        <ele>524</ele>
        <time>2016-03-28T08:54:09Z</time>
      </trkpt>
      <trkpt lat="43.66645" lon="6.79999">
        <ele>520</ele>
        <time>2016-03-28T08:54:13Z</time>
      </trkpt>
      <trkpt lat="43.66636" lon="6.79974">
        <ele>519</ele>
        <time>2016-03-28T08:54:19Z</time>
      </trkpt>
      <trkpt lat="43.66614" lon="6.79959">
        <ele>518</ele>
        <time>2016-03-28T08:54:23Z</time>
      </trkpt>
      <trkpt lat="43.66599" lon="6.79934">
        <ele>516</ele>
        <time>2016-03-28T08:54:26Z</time>
      </trkpt>
      <trkpt lat="43.66579" lon="6.79914">
        <ele>512</ele>
        <time>2016-03-28T08:54:29Z</time>
      </trkpt>
      <trkpt lat="43.66555" lon="6.79899">
        <ele>508</ele>
        <time>2016-03-28T08:54:32Z</time>
      </trkpt>
      <trkpt lat="43.66529" lon="6.79886">
        <ele>506</ele>
        <time>2016-03-28T08:54:35Z</time>
      </trkpt>
      <trkpt lat="43.66508" lon="6.79879">
        <ele>505</ele>
        <time>2016-03-28T08:54:38Z</time>
      </trkpt>
      <trkpt lat="43.66494" lon="6.79856">
        <ele>499</ele>
        <time>2016-03-28T08:54:41Z</time>
      </trkpt>
      <trkpt lat="43.6648" lon="6.79835">
        <ele>498</ele>
        <time>2016-03-28T08:54:43Z</time>
      </trkpt>
      <trkpt lat="43.66465" lon="6.79813">
        <ele>491</ele>
        <time>2016-03-28T08:54:46Z</time>
      </trkpt>
      <trkpt lat="43.66453" lon="6.79786">
        <ele>489</ele>
        <time>2016-03-28T08:54:49Z</time>
      </trkpt>
      <trkpt lat="43.66439" lon="6.79752">
        <ele>487</ele>
        <time>2016-03-28T08:54:52Z</time>
      </trkpt>
      <trkpt lat="43.66434" lon="6.79728">
        <ele>483</ele>
        <time>2016-03-28T08:54:54Z</time>
      </trkpt>
      <trkpt lat="43.66419" lon="6.79702">
        <ele>482</ele>
        <time>2016-03-28T08:54:58Z</time>
      </trkpt>
      <trkpt lat="43.66401" lon="6.79691">
        <ele>479</ele>
        <time>2016-03-28T08:55:01Z</time>
      </trkpt>
      <trkpt lat="43.66378" lon="6.79684">
        <ele>478</ele>
        <time>2016-03-28T08:55:04Z</time>
      </trkpt>
      <trkpt lat="43.66354" lon="6.79674">
        <ele>478</ele>
        <time>2016-03-28T08:55:07Z</time>
      </trkpt>
      <trkpt lat="43.66329" lon="6.7966">
        <ele>475</ele>
        <time>2016-03-28T08:55:10Z</time>
      </trkpt>
      <trkpt lat="43.6631" lon="6.79649">
        <ele>475</ele>
        <time>2016-03-28T08:55:12Z</time>
      </trkpt>
      <trkpt lat="43.66286" lon="6.79632">
        <ele>474</ele>
        <time>2016-03-28T08:55:15Z</time>
      </trkpt>
      <trkpt lat="43.66269" lon="6.79622">
        <ele>474</ele>
        <time>2016-03-28T08:55:17Z</time>
      </trkpt>
      <trkpt lat="43.66244" lon="6.79612">
        <ele>472</ele>
        <time>2016-03-28T08:55:20Z</time>
      </trkpt>
      <trkpt lat="43.66219" lon="6.79605">
        <ele>472</ele>
        <time>2016-03-28T08:55:23Z</time>
      </trkpt>
      <trkpt lat="43.66194" lon="6.79594">
        <ele>471</ele>
        <time>2016-03-28T08:55:26Z</time>
      </trkpt>
      <trkpt lat="43.66177" lon="6.79588">
        <ele>470</ele>
        <time>2016-03-28T08:55:30Z</time>
      </trkpt>
      <trkpt lat="43.6617" lon="6.79612">
        <ele>471</ele>
        <time>2016-03-28T08:55:34Z</time>
      </trkpt>
      <trkpt lat="43.66166" lon="6.7964">
        <ele>470</ele>
        <time>2016-03-28T08:55:37Z</time>
      </trkpt>
      <trkpt lat="43.66155" lon="6.79665">
        <ele>470</ele>
        <time>2016-03-28T08:55:40Z</time>
      </trkpt>
      <trkpt lat="43.66136" lon="6.7967">
        <ele>470</ele>
        <time>2016-03-28T08:55:43Z</time>
      </trkpt>
      <trkpt lat="43.66114" lon="6.79666">
        <ele>470</ele>
        <time>2016-03-28T08:55:46Z</time>
      </trkpt>
      <trkpt lat="43.66093" lon="6.79663">
        <ele>470</ele>
        <time>2016-03-28T08:55:49Z</time>
      </trkpt>
      <trkpt lat="43.66073" lon="6.79658">
        <ele>469</ele>
        <time>2016-03-28T08:55:52Z</time>
      </trkpt>
      <trkpt lat="43.66052" lon="6.79649">
        <ele>468</ele>
        <time>2016-03-28T08:55:55Z</time>
      </trkpt>
      <trkpt lat="43.66037" lon="6.79624">
        <ele>468</ele>
        <time>2016-03-28T08:55:58Z</time>
      </trkpt>
      <trkpt lat="43.66023" lon="6.79598">
        <ele>467</ele>
        <time>2016-03-28T08:56:01Z</time>
      </trkpt>
      <trkpt lat="43.66007" lon="6.79585">
        <ele>466</ele>
        <time>2016-03-28T08:56:03Z</time>
      </trkpt>
      <trkpt lat="43.65987" lon="6.79576">
        <ele>465</ele>
        <time>2016-03-28T08:56:06Z</time>
      </trkpt>
      <trkpt lat="43.65964" lon="6.7956">
        <ele>464</ele>
        <time>2016-03-28T08:56:09Z</time>
      </trkpt>
      <trkpt lat="43.65946" lon="6.79538">
        <ele>463</ele>
        <time>2016-03-28T08:56:12Z</time>
      </trkpt>
      <trkpt lat="43.65929" lon="6.79513">
        <ele>462</ele>
        <time>2016-03-28T08:56:15Z</time>
      </trkpt>
      <trkpt lat="43.65912" lon="6.7949">
        <ele>461</ele>
        <time>2016-03-28T08:56:18Z</time>
      </trkpt>
      <trkpt lat="43.65894" lon="6.79467">
        <ele>461</ele>
        <time>2016-03-28T08:56:21Z</time>
      </trkpt>
      <trkpt lat="43.65875" lon="6.79447">
        <ele>461</ele>
        <time>2016-03-28T08:56:24Z</time>
      </trkpt>
      <trkpt lat="43.65851" lon="6.79437">
        <ele>461</ele>
        <time>2016-03-28T08:56:27Z</time>
      </trkpt>
      <trkpt lat="43.65828" lon="6.79427">
        <ele>460</ele>
        <time>2016-03-28T08:56:30Z</time>
      </trkpt>
      <trkpt lat="43.65811" lon="6.7941">
        <ele>459</ele>
        <time>2016-03-28T08:56:33Z</time>
      </trkpt>
      <trkpt lat="43.65795" lon="6.79393">
        <ele>459</ele>
        <time>2016-03-28T08:56:40Z</time>
      </trkpt>
      <trkpt lat="43.65774" lon="6.79397">
        <ele>458</ele>
        <time>2016-03-28T08:56:46Z</time>
      </trkpt>
      <trkpt lat="43.65752" lon="6.79402">
        <ele>458</ele>
        <time>2016-03-28T08:56:50Z</time>
      </trkpt>
      <trkpt lat="43.65731" lon="6.79399">
        <ele>457</ele>
        <time>2016-03-28T08:56:53Z</time>
      </trkpt>
      <trkpt lat="43.65715" lon="6.79417">
        <ele>457</ele>
        <time>2016-03-28T08:56:56Z</time>
      </trkpt>
      <trkpt lat="43.65699" lon="6.79434">
        <ele>457</ele>
        <time>2016-03-28T08:56:59Z</time>
      </trkpt>
      <trkpt lat="43.65676" lon="6.79446">
        <ele>457</ele>
        <time>2016-03-28T08:57:02Z</time>
      </trkpt>
      <trkpt lat="43.65654" lon="6.7946">
        <ele>456</ele>
        <time>2016-03-28T08:57:05Z</time>
      </trkpt>
      <trkpt lat="43.65631" lon="6.79474">
        <ele>456</ele>
        <time>2016-03-28T08:57:08Z</time>
      </trkpt>
      <trkpt lat="43.65609" lon="6.7949">
        <ele>455</ele>
        <time>2016-03-28T08:57:11Z</time>
      </trkpt>
      <trkpt lat="43.65588" lon="6.79505">
        <ele>455</ele>
        <time>2016-03-28T08:57:14Z</time>
      </trkpt>
      <trkpt lat="43.65565" lon="6.79519">
        <ele>454</ele>
        <time>2016-03-28T08:57:17Z</time>
      </trkpt>
      <trkpt lat="43.65544" lon="6.79535">
        <ele>454</ele>
        <time>2016-03-28T08:57:20Z</time>
      </trkpt>
      <trkpt lat="43.65526" lon="6.79551">
        <ele>454</ele>
        <time>2016-03-28T08:57:23Z</time>
      </trkpt>
      <trkpt lat="43.65503" lon="6.79565">
        <ele>453</ele>
        <time>2016-03-28T08:57:26Z</time>
      </trkpt>
      <trkpt lat="43.65483" lon="6.7958">
        <ele>452</ele>
        <time>2016-03-28T08:57:29Z</time>
      </trkpt>
      <trkpt lat="43.65461" lon="6.79592">
        <ele>452</ele>
        <time>2016-03-28T08:57:32Z</time>
      </trkpt>
      <trkpt lat="43.6544" lon="6.79601">
        <ele>452</ele>
        <time>2016-03-28T08:57:35Z</time>
      </trkpt>
      <trkpt lat="43.65419" lon="6.79612">
        <ele>452</ele>
        <time>2016-03-28T08:57:38Z</time>
      </trkpt>
      <trkpt lat="43.65397" lon="6.79627">
        <ele>450</ele>
        <time>2016-03-28T08:57:41Z</time>
      </trkpt>
      <trkpt lat="43.65377" lon="6.79644">
        <ele>450</ele>
        <time>2016-03-28T08:57:44Z</time>
      </trkpt>
      <trkpt lat="43.6536" lon="6.79663">
        <ele>450</ele>
        <time>2016-03-28T08:57:47Z</time>
      </trkpt>
      <trkpt lat="43.65349" lon="6.79688">
        <ele>449</ele>
        <time>2016-03-28T08:57:50Z</time>
      </trkpt>
      <trkpt lat="43.65337" lon="6.79715">
        <ele>449</ele>
        <time>2016-03-28T08:57:53Z</time>
      </trkpt>
      <trkpt lat="43.65325" lon="6.79738">
        <ele>448</ele>
        <time>2016-03-28T08:57:56Z</time>
      </trkpt>
      <trkpt lat="43.65307" lon="6.79752">
        <ele>448</ele>
        <time>2016-03-28T08:57:59Z</time>
      </trkpt>
      <trkpt lat="43.65287" lon="6.79762">
        <ele>448</ele>
        <time>2016-03-28T08:58:02Z</time>
      </trkpt>
      <trkpt lat="43.65266" lon="6.79768">
        <ele>448</ele>
        <time>2016-03-28T08:58:05Z</time>
      </trkpt>
      <trkpt lat="43.65244" lon="6.79768">
        <ele>448</ele>
        <time>2016-03-28T08:58:08Z</time>
      </trkpt>
      <trkpt lat="43.6522" lon="6.79767">
        <ele>448</ele>
        <time>2016-03-28T08:58:11Z</time>
      </trkpt>
      <trkpt lat="43.65199" lon="6.79771">
        <ele>449</ele>
        <time>2016-03-28T08:58:14Z</time>
      </trkpt>
      <trkpt lat="43.6518" lon="6.79776">
        <ele>449</ele>
        <time>2016-03-28T08:58:17Z</time>
      </trkpt>
      <trkpt lat="43.65161" lon="6.7978">
        <ele>451</ele>
        <time>2016-03-28T08:58:20Z</time>
      </trkpt>
      <trkpt lat="43.65141" lon="6.79784">
        <ele>451</ele>
        <time>2016-03-28T08:58:24Z</time>
      </trkpt>
      <trkpt lat="43.65136" lon="6.79811">
        <ele>451</ele>
        <time>2016-03-28T08:58:31Z</time>
      </trkpt>
      <trkpt lat="43.65149" lon="6.79836">
        <ele>449</ele>
        <time>2016-03-28T08:58:37Z</time>
      </trkpt>
      <trkpt lat="43.65164" lon="6.7985">
        <ele>449</ele>
        <time>2016-03-28T09:12:50Z</time>
      </trkpt>
      <trkpt lat="43.65155" lon="6.79872">
        <ele>449</ele>
        <time>2016-03-28T09:30:01Z</time>
      </trkpt>
      <trkpt lat="43.65152" lon="6.79898">
        <ele>449</ele>
        <time>2016-03-28T09:33:16Z</time>
      </trkpt>
      <trkpt lat="43.65147" lon="6.79927">
        <ele>448</ele>
        <time>2016-03-28T09:33:22Z</time>
      </trkpt>
      <trkpt lat="43.65138" lon="6.79955">
        <ele>448</ele>
        <time>2016-03-28T09:33:27Z</time>
      </trkpt>
      <trkpt lat="43.65126" lon="6.79982">
        <ele>448</ele>
        <time>2016-03-28T09:33:30Z</time>
      </trkpt>
      <trkpt lat="43.65114" lon="6.80006">
        <ele>447</ele>
        <time>2016-03-28T09:33:33Z</time>
      </trkpt>
      <trkpt lat="43.65103" lon="6.80027">
        <ele>447</ele>
        <time>2016-03-28T09:33:36Z</time>
      </trkpt>
      <trkpt lat="43.65088" lon="6.80047">
        <ele>447</ele>
        <time>2016-03-28T09:33:40Z</time>
      </trkpt>
      <trkpt lat="43.65069" lon="6.80049">
        <ele>448</ele>
        <time>2016-03-28T09:33:44Z</time>
      </trkpt>
      <trkpt lat="43.65047" lon="6.80045">
        <ele>448</ele>
        <time>2016-03-28T09:33:49Z</time>
      </trkpt>
      <trkpt lat="43.65034" lon="6.80065">
        <ele>448</ele>
        <time>2016-03-28T09:33:57Z</time>
      </trkpt>
      <trkpt lat="43.6504" lon="6.80088">
        <ele>447</ele>
        <time>2016-03-28T09:34:00Z</time>
      </trkpt>
      <trkpt lat="43.65045" lon="6.80116">
        <ele>447</ele>
        <time>2016-03-28T09:34:03Z</time>
      </trkpt>
      <trkpt lat="43.65044" lon="6.80146">
        <ele>446</ele>
        <time>2016-03-28T09:34:06Z</time>
      </trkpt>
      <trkpt lat="43.65039" lon="6.80176">
        <ele>447</ele>
        <time>2016-03-28T09:34:09Z</time>
      </trkpt>
      <trkpt lat="43.65035" lon="6.80203">
        <ele>447</ele>
        <time>2016-03-28T09:34:12Z</time>
      </trkpt>
      <trkpt lat="43.65029" lon="6.80231">
        <ele>447</ele>
        <time>2016-03-28T09:34:15Z</time>
      </trkpt>
      <trkpt lat="43.6502" lon="6.80255">
        <ele>448</ele>
        <time>2016-03-28T09:34:18Z</time>
      </trkpt>
      <trkpt lat="43.65009" lon="6.80283">
        <ele>449</ele>
        <time>2016-03-28T09:34:22Z</time>
      </trkpt>
      <trkpt lat="43.65001" lon="6.80305">
        <ele>449</ele>
        <time>2016-03-28T09:34:25Z</time>
      </trkpt>
      <trkpt lat="43.64994" lon="6.80335">
        <ele>450</ele>
        <time>2016-03-28T09:34:29Z</time>
      </trkpt>
      <trkpt lat="43.6499" lon="6.80366">
        <ele>451</ele>
        <time>2016-03-28T09:34:33Z</time>
      </trkpt>
      <trkpt lat="43.64972" lon="6.80374">
        <ele>452</ele>
        <time>2016-03-28T09:34:49Z</time>
      </trkpt>
      <trkpt lat="43.64951" lon="6.80382">
        <ele>452</ele>
        <time>2016-03-28T09:34:56Z</time>
      </trkpt>
      <trkpt lat="43.64933" lon="6.8039">
        <ele>453</ele>
        <time>2016-03-28T09:35:02Z</time>
      </trkpt>
      <trkpt lat="43.64914" lon="6.80401">
        <ele>456</ele>
        <time>2016-03-28T09:35:11Z</time>
      </trkpt>
      <trkpt lat="43.64896" lon="6.80413">
        <ele>456</ele>
        <time>2016-03-28T09:35:16Z</time>
      </trkpt>
      <trkpt lat="43.64878" lon="6.80422">
        <ele>458</ele>
        <time>2016-03-28T09:35:21Z</time>
      </trkpt>
      <trkpt lat="43.6486" lon="6.80421">
        <ele>458</ele>
        <time>2016-03-28T09:35:26Z</time>
      </trkpt>
      <trkpt lat="43.6484" lon="6.8042">
        <ele>459</ele>
        <time>2016-03-28T09:35:33Z</time>
      </trkpt>
      <trkpt lat="43.64822" lon="6.80418">
        <ele>459</ele>
        <time>2016-03-28T09:35:38Z</time>
      </trkpt>
      <trkpt lat="43.64802" lon="6.80414">
        <ele>459</ele>
        <time>2016-03-28T09:35:43Z</time>
      </trkpt>
      <trkpt lat="43.64789" lon="6.80389">
        <ele>459</ele>
        <time>2016-03-28T09:35:48Z</time>
      </trkpt>
      <trkpt lat="43.64772" lon="6.80369">
        <ele>459</ele>
        <time>2016-03-28T09:35:53Z</time>
      </trkpt>
      <trkpt lat="43.6476" lon="6.80343">
        <ele>459</ele>
        <time>2016-03-28T09:35:57Z</time>
      </trkpt>
      <trkpt lat="43.64753" lon="6.80317">
        <ele>458</ele>
        <time>2016-03-28T09:36:01Z</time>
      </trkpt>
      <trkpt lat="43.6474" lon="6.80298">
        <ele>463</ele>
        <time>2016-03-28T09:36:05Z</time>
      </trkpt>
      <trkpt lat="43.64726" lon="6.80283">
        <ele>463</ele>
        <time>2016-03-28T09:36:11Z</time>
      </trkpt>
      <trkpt lat="43.64708" lon="6.80271">
        <ele>464</ele>
        <time>2016-03-28T09:36:16Z</time>
      </trkpt>
      <trkpt lat="43.64691" lon="6.8026">
        <ele>465</ele>
        <time>2016-03-28T09:36:21Z</time>
      </trkpt>
      <trkpt lat="43.64673" lon="6.80253">
        <ele>467</ele>
        <time>2016-03-28T09:36:26Z</time>
      </trkpt>
      <trkpt lat="43.64654" lon="6.80256">
        <ele>469</ele>
        <time>2016-03-28T09:36:33Z</time>
      </trkpt>
      <trkpt lat="43.64636" lon="6.80266">
        <ele>471</ele>
        <time>2016-03-28T09:36:40Z</time>
      </trkpt>
      <trkpt lat="43.64618" lon="6.80257">
        <ele>472</ele>
        <time>2016-03-28T09:36:50Z</time>
      </trkpt>
      <trkpt lat="43.64612" lon="6.80232">
        <ele>472</ele>
        <time>2016-03-28T09:36:56Z</time>
      </trkpt>
      <trkpt lat="43.64613" lon="6.80207">
        <ele>472</ele>
        <time>2016-03-28T09:37:04Z</time>
      </trkpt>
      <trkpt lat="43.64612" lon="6.80181">
        <ele>473</ele>
        <time>2016-03-28T09:37:10Z</time>
      </trkpt>
      <trkpt lat="43.64612" lon="6.80153">
        <ele>475</ele>
        <time>2016-03-28T09:37:16Z</time>
      </trkpt>
      <trkpt lat="43.64613" lon="6.80127">
        <ele>476</ele>
        <time>2016-03-28T09:37:23Z</time>
      </trkpt>
      <trkpt lat="43.64611" lon="6.80099">
        <ele>477</ele>
        <time>2016-03-28T09:37:31Z</time>
      </trkpt>
      <trkpt lat="43.64614" lon="6.80073">
        <ele>479</ele>
        <time>2016-03-28T09:37:37Z</time>
      </trkpt>
      <trkpt lat="43.64614" lon="6.80045">
        <ele>479</ele>
        <time>2016-03-28T09:37:43Z</time>
      </trkpt>
      <trkpt lat="43.646" lon="6.80027">
        <ele>479</ele>
        <time>2016-03-28T09:37:50Z</time>
      </trkpt>
      <trkpt lat="43.6458" lon="6.80026">
        <ele>480</ele>
        <time>2016-03-28T09:37:56Z</time>
      </trkpt>
      <trkpt lat="43.64562" lon="6.8003">
        <ele>481</ele>
        <time>2016-03-28T09:38:00Z</time>
      </trkpt>
      <trkpt lat="43.64545" lon="6.80036">
        <ele>481</ele>
        <time>2016-03-28T09:38:05Z</time>
      </trkpt>
      <trkpt lat="43.64528" lon="6.80049">
        <ele>481</ele>
        <time>2016-03-28T09:38:10Z</time>
      </trkpt>
      <trkpt lat="43.64514" lon="6.80065">
        <ele>481</ele>
        <time>2016-03-28T09:38:14Z</time>
      </trkpt>
      <trkpt lat="43.645" lon="6.80081">
        <ele>481</ele>
        <time>2016-03-28T09:38:18Z</time>
      </trkpt>
      <trkpt lat="43.64484" lon="6.80098">
        <ele>480</ele>
        <time>2016-03-28T09:38:22Z</time>
      </trkpt>
      <trkpt lat="43.6447" lon="6.8012">
        <ele>479</ele>
        <time>2016-03-28T09:38:26Z</time>
      </trkpt>
      <trkpt lat="43.64465" lon="6.80145">
        <ele>478</ele>
        <time>2016-03-28T09:38:29Z</time>
      </trkpt>
      <trkpt lat="43.64453" lon="6.80169">
        <ele>474</ele>
        <time>2016-03-28T09:38:33Z</time>
      </trkpt>
      <trkpt lat="43.64437" lon="6.80182">
        <ele>474</ele>
        <time>2016-03-28T09:38:50Z</time>
      </trkpt>
      <trkpt lat="43.64417" lon="6.80202">
        <ele>473</ele>
        <time>2016-03-28T09:38:54Z</time>
      </trkpt>
      <trkpt lat="43.64403" lon="6.80222">
        <ele>471</ele>
        <time>2016-03-28T09:38:57Z</time>
      </trkpt>
      <trkpt lat="43.64392" lon="6.80242">
        <ele>470</ele>
        <time>2016-03-28T09:39:00Z</time>
      </trkpt>
      <trkpt lat="43.64385" lon="6.80271">
        <ele>466</ele>
        <time>2016-03-28T09:39:03Z</time>
      </trkpt>
      <trkpt lat="43.64384" lon="6.80296">
        <ele>465</ele>
        <time>2016-03-28T09:39:06Z</time>
      </trkpt>
      <trkpt lat="43.64406" lon="6.80304">
        <ele>465</ele>
        <time>2016-03-28T09:39:11Z</time>
      </trkpt>
      <trkpt lat="43.6441" lon="6.80339">
        <ele>464</ele>
        <time>2016-03-28T09:39:15Z</time>
      </trkpt>
      <trkpt lat="43.64411" lon="6.80372">
        <ele>462</ele>
        <time>2016-03-28T09:39:18Z</time>
      </trkpt>
      <trkpt lat="43.64414" lon="6.80404">
        <ele>462</ele>
        <time>2016-03-28T09:39:21Z</time>
      </trkpt>
      <trkpt lat="43.64418" lon="6.80432">
        <ele>466</ele>
        <time>2016-03-28T09:39:24Z</time>
      </trkpt>
      <trkpt lat="43.6442" lon="6.80461">
        <ele>466</ele>
        <time>2016-03-28T09:39:28Z</time>
      </trkpt>
      <trkpt lat="43.64419" lon="6.80492">
        <ele>464</ele>
        <time>2016-03-28T09:39:32Z</time>
      </trkpt>
      <trkpt lat="43.6441" lon="6.80518">
        <ele>460</ele>
        <time>2016-03-28T09:39:35Z</time>
      </trkpt>
      <trkpt lat="43.644" lon="6.80549">
        <ele>458</ele>
        <time>2016-03-28T09:39:38Z</time>
      </trkpt>
      <trkpt lat="43.6439" lon="6.80574">
        <ele>458</ele>
        <time>2016-03-28T09:39:41Z</time>
      </trkpt>
      <trkpt lat="43.64382" lon="6.80605">
        <ele>455</ele>
        <time>2016-03-28T09:39:44Z</time>
      </trkpt>
      <trkpt lat="43.64379" lon="6.80639">
        <ele>453</ele>
        <time>2016-03-28T09:39:47Z</time>
      </trkpt>
      <trkpt lat="43.64373" lon="6.80665">
        <ele>452</ele>
        <time>2016-03-28T09:39:49Z</time>
      </trkpt>
      <trkpt lat="43.64365" lon="6.80693">
        <ele>448</ele>
        <time>2016-03-28T09:39:51Z</time>
      </trkpt>
      <trkpt lat="43.64353" lon="6.80714">
        <ele>448</ele>
        <time>2016-03-28T09:39:53Z</time>
      </trkpt>
      <trkpt lat="43.64341" lon="6.80737">
        <ele>446</ele>
        <time>2016-03-28T09:39:55Z</time>
      </trkpt>
      <trkpt lat="43.64333" lon="6.80762">
        <ele>442</ele>
        <time>2016-03-28T09:39:57Z</time>
      </trkpt>
      <trkpt lat="43.64321" lon="6.80781">
        <ele>441</ele>
        <time>2016-03-28T09:39:59Z</time>
      </trkpt>
      <trkpt lat="43.64304" lon="6.80797">
        <ele>440</ele>
        <time>2016-03-28T09:40:01Z</time>
      </trkpt>
      <trkpt lat="43.64287" lon="6.80811">
        <ele>439</ele>
        <time>2016-03-28T09:40:03Z</time>
      </trkpt>
      <trkpt lat="43.6427" lon="6.80834">
        <ele>437</ele>
        <time>2016-03-28T09:40:06Z</time>
      </trkpt>
      <trkpt lat="43.64264" lon="6.80866">
        <ele>436</ele>
        <time>2016-03-28T09:40:09Z</time>
      </trkpt>
      <trkpt lat="43.64259" lon="6.80893">
        <ele>435</ele>
        <time>2016-03-28T09:40:11Z</time>
      </trkpt>
      <trkpt lat="43.64246" lon="6.80913">
        <ele>432</ele>
        <time>2016-03-28T09:40:13Z</time>
      </trkpt>
      <trkpt lat="43.64232" lon="6.80937">
        <ele>429</ele>
        <time>2016-03-28T09:40:15Z</time>
      </trkpt>
      <trkpt lat="43.6422" lon="6.80959">
        <ele>428</ele>
        <time>2016-03-28T09:40:17Z</time>
      </trkpt>
      <trkpt lat="43.64209" lon="6.80982">
        <ele>427</ele>
        <time>2016-03-28T09:40:19Z</time>
      </trkpt>
      <trkpt lat="43.64193" lon="6.8101">
        <ele>428</ele>
        <time>2016-03-28T09:40:22Z</time>
      </trkpt>
      <trkpt lat="43.64188" lon="6.8104">
        <ele>429</ele>
        <time>2016-03-28T09:40:26Z</time>
      </trkpt>
      <trkpt lat="43.64174" lon="6.81065">
        <ele>430</ele>
        <time>2016-03-28T09:40:30Z</time>
      </trkpt>
      <trkpt lat="43.64161" lon="6.81089">
        <ele>431</ele>
        <time>2016-03-28T09:40:34Z</time>
      </trkpt>
      <trkpt lat="43.64151" lon="6.8111">
        <ele>430</ele>
        <time>2016-03-28T09:40:37Z</time>
      </trkpt>
      <trkpt lat="43.64138" lon="6.81135">
        <ele>431</ele>
        <time>2016-03-28T09:40:41Z</time>
      </trkpt>
      <trkpt lat="43.64127" lon="6.81158">
        <ele>430</ele>
        <time>2016-03-28T09:40:44Z</time>
      </trkpt>
      <trkpt lat="43.64113" lon="6.81181">
        <ele>432</ele>
        <time>2016-03-28T09:40:47Z</time>
      </trkpt>
      <trkpt lat="43.64098" lon="6.81202">
        <ele>432</ele>
        <time>2016-03-28T09:40:50Z</time>
      </trkpt>
      <trkpt lat="43.64083" lon="6.81226">
        <ele>426</ele>
        <time>2016-03-28T09:40:53Z</time>
      </trkpt>
      <trkpt lat="43.64067" lon="6.81254">
        <ele>428</ele>
        <time>2016-03-28T09:40:56Z</time>
      </trkpt>
      <trkpt lat="43.64053" lon="6.81283">
        <ele>426</ele>
        <time>2016-03-28T09:40:59Z</time>
      </trkpt>
      <trkpt lat="43.64039" lon="6.81301">
        <ele>425</ele>
        <time>2016-03-28T09:41:01Z</time>
      </trkpt>
      <trkpt lat="43.6402" lon="6.81327">
        <ele>422</ele>
        <time>2016-03-28T09:41:04Z</time>
      </trkpt>
      <trkpt lat="43.64007" lon="6.81348">
        <ele>423</ele>
        <time>2016-03-28T09:41:06Z</time>
      </trkpt>
      <trkpt lat="43.63989" lon="6.8137">
        <ele>414</ele>
        <time>2016-03-28T09:41:08Z</time>
      </trkpt>
      <trkpt lat="43.6397" lon="6.81394">
        <ele>413</ele>
        <time>2016-03-28T09:41:10Z</time>
      </trkpt>
      <trkpt lat="43.63957" lon="6.81416">
        <ele>412</ele>
        <time>2016-03-28T09:41:12Z</time>
      </trkpt>
      <trkpt lat="43.63946" lon="6.81439">
        <ele>414</ele>
        <time>2016-03-28T09:41:14Z</time>
      </trkpt>
      <trkpt lat="43.63936" lon="6.81462">
        <ele>414</ele>
        <time>2016-03-28T09:41:16Z</time>
      </trkpt>
      <trkpt lat="43.63923" lon="6.8149">
        <ele>412</ele>
        <time>2016-03-28T09:41:19Z</time>
      </trkpt>
      <trkpt lat="43.6391" lon="6.81518">
        <ele>407</ele>
        <time>2016-03-28T09:41:22Z</time>
      </trkpt>
      <trkpt lat="43.63899" lon="6.81539">
        <ele>406</ele>
        <time>2016-03-28T09:41:25Z</time>
      </trkpt>
      <trkpt lat="43.6388" lon="6.81532">
        <ele>405</ele>
        <time>2016-03-28T09:41:34Z</time>
      </trkpt>
      <trkpt lat="43.63862" lon="6.81518">
        <ele>404</ele>
        <time>2016-03-28T09:41:39Z</time>
      </trkpt>
      <trkpt lat="43.63844" lon="6.81511">
        <ele>402</ele>
        <time>2016-03-28T09:41:42Z</time>
      </trkpt>
      <trkpt lat="43.63825" lon="6.81496">
        <ele>398</ele>
        <time>2016-03-28T09:41:45Z</time>
      </trkpt>
      <trkpt lat="43.63802" lon="6.81481">
        <ele>394</ele>
        <time>2016-03-28T09:41:48Z</time>
      </trkpt>
      <trkpt lat="43.63784" lon="6.81464">
        <ele>392</ele>
        <time>2016-03-28T09:41:51Z</time>
      </trkpt>
      <trkpt lat="43.63765" lon="6.81438">
        <ele>390</ele>
        <time>2016-03-28T09:41:54Z</time>
      </trkpt>
      <trkpt lat="43.63751" lon="6.81413">
        <ele>386</ele>
        <time>2016-03-28T09:41:56Z</time>
      </trkpt>
      <trkpt lat="43.63739" lon="6.8139">
        <ele>380</ele>
        <time>2016-03-28T09:41:58Z</time>
      </trkpt>
      <trkpt lat="43.63729" lon="6.81369">
        <ele>379</ele>
        <time>2016-03-28T09:42:00Z</time>
      </trkpt>
      <trkpt lat="43.63718" lon="6.81348">
        <ele>378</ele>
        <time>2016-03-28T09:42:03Z</time>
      </trkpt>
      <trkpt lat="43.63702" lon="6.81334">
        <ele>376</ele>
        <time>2016-03-28T09:42:16Z</time>
      </trkpt>
      <trkpt lat="43.63701" lon="6.81309">
        <ele>377</ele>
        <time>2016-03-28T09:42:31Z</time>
      </trkpt>
      <trkpt lat="43.63704" lon="6.81284">
        <ele>378</ele>
        <time>2016-03-28T09:42:34Z</time>
      </trkpt>
      <trkpt lat="43.63703" lon="6.81258">
        <ele>379</ele>
        <time>2016-03-28T09:42:41Z</time>
      </trkpt>
      <trkpt lat="43.63701" lon="6.81231">
        <ele>383</ele>
        <time>2016-03-28T09:42:50Z</time>
      </trkpt>
      <trkpt lat="43.63709" lon="6.81208">
        <ele>384</ele>
        <time>2016-03-28T09:42:58Z</time>
      </trkpt>
      <trkpt lat="43.63719" lon="6.81187">
        <ele>385</ele>
        <time>2016-03-28T09:43:05Z</time>
      </trkpt>
      <trkpt lat="43.63724" lon="6.81162">
        <ele>389</ele>
        <time>2016-03-28T09:43:12Z</time>
      </trkpt>
      <trkpt lat="43.63728" lon="6.81136">
        <ele>390</ele>
        <time>2016-03-28T09:43:20Z</time>
      </trkpt>
      <trkpt lat="43.63742" lon="6.81119">
        <ele>390</ele>
        <time>2016-03-28T09:43:41Z</time>
      </trkpt>
      <trkpt lat="43.63759" lon="6.81107">
        <ele>394</ele>
        <time>2016-03-28T09:43:46Z</time>
      </trkpt>
      <trkpt lat="43.63766" lon="6.81081">
        <ele>396</ele>
        <time>2016-03-28T09:43:53Z</time>
      </trkpt>
      <trkpt lat="43.63772" lon="6.81054">
        <ele>397</ele>
        <time>2016-03-28T09:43:59Z</time>
      </trkpt>
      <trkpt lat="43.63772" lon="6.81029">
        <ele>398</ele>
        <time>2016-03-28T09:44:05Z</time>
      </trkpt>
      <trkpt lat="43.6376" lon="6.81006">
        <ele>397</ele>
        <time>2016-03-28T09:44:11Z</time>
      </trkpt>
      <trkpt lat="43.63746" lon="6.80989">
        <ele>395</ele>
        <time>2016-03-28T09:44:17Z</time>
      </trkpt>
      <trkpt lat="43.63735" lon="6.80968">
        <ele>394</ele>
        <time>2016-03-28T09:44:21Z</time>
      </trkpt>
      <trkpt lat="43.63727" lon="6.80942">
        <ele>394</ele>
        <time>2016-03-28T09:44:26Z</time>
      </trkpt>
      <trkpt lat="43.63721" lon="6.80913">
        <ele>394</ele>
        <time>2016-03-28T09:44:31Z</time>
      </trkpt>
      <trkpt lat="43.63727" lon="6.80888">
        <ele>394</ele>
        <time>2016-03-28T09:44:35Z</time>
      </trkpt>
      <trkpt lat="43.63734" lon="6.80863">
        <ele>394</ele>
        <time>2016-03-28T09:44:39Z</time>
      </trkpt>
      <trkpt lat="43.63742" lon="6.80837">
        <ele>395</ele>
        <time>2016-03-28T09:44:43Z</time>
      </trkpt>
      <trkpt lat="43.63748" lon="6.80807">
        <ele>394</ele>
        <time>2016-03-28T09:44:48Z</time>
      </trkpt>
      <trkpt lat="43.63747" lon="6.80777">
        <ele>393</ele>
        <time>2016-03-28T09:44:52Z</time>
      </trkpt>
      <trkpt lat="43.63749" lon="6.80751">
        <ele>393</ele>
        <time>2016-03-28T09:44:56Z</time>
      </trkpt>
      <trkpt lat="43.63751" lon="6.80721">
        <ele>396</ele>
        <time>2016-03-28T09:45:01Z</time>
      </trkpt>
      <trkpt lat="43.63754" lon="6.80695">
        <ele>396</ele>
        <time>2016-03-28T09:45:05Z</time>
      </trkpt>
      <trkpt lat="43.63743" lon="6.80671">
        <ele>394</ele>
        <time>2016-03-28T09:45:10Z</time>
      </trkpt>
      <trkpt lat="43.63727" lon="6.80656">
        <ele>394</ele>
        <time>2016-03-28T09:45:14Z</time>
      </trkpt>
      <trkpt lat="43.63707" lon="6.80645">
        <ele>394</ele>
        <time>2016-03-28T09:45:19Z</time>
      </trkpt>
      <trkpt lat="43.63684" lon="6.80645">
        <ele>394</ele>
        <time>2016-03-28T09:45:24Z</time>
      </trkpt>
      <trkpt lat="43.63666" lon="6.80636">
        <ele>393</ele>
        <time>2016-03-28T09:45:27Z</time>
      </trkpt>
      <trkpt lat="43.6365" lon="6.80619">
        <ele>393</ele>
        <time>2016-03-28T09:45:30Z</time>
      </trkpt>
      <trkpt lat="43.63637" lon="6.80601">
        <ele>393</ele>
        <time>2016-03-28T09:45:33Z</time>
      </trkpt>
      <trkpt lat="43.63621" lon="6.80582">
        <ele>393</ele>
        <time>2016-03-28T09:45:37Z</time>
      </trkpt>
      <trkpt lat="43.63615" lon="6.80555">
        <ele>392</ele>
        <time>2016-03-28T09:45:41Z</time>
      </trkpt>
      <trkpt lat="43.63615" lon="6.80529">
        <ele>392</ele>
        <time>2016-03-28T09:45:47Z</time>
      </trkpt>
      <trkpt lat="43.63612" lon="6.80501">
        <ele>392</ele>
        <time>2016-03-28T09:45:51Z</time>
      </trkpt>
      <trkpt lat="43.63611" lon="6.80475">
        <ele>390</ele>
        <time>2016-03-28T09:45:57Z</time>
      </trkpt>
      <trkpt lat="43.63592" lon="6.80484">
        <ele>391</ele>
        <time>2016-03-28T09:46:10Z</time>
      </trkpt>
      <trkpt lat="43.63581" lon="6.80508">
        <ele>393</ele>
        <time>2016-03-28T09:46:17Z</time>
      </trkpt>
      <trkpt lat="43.63571" lon="6.80529">
        <ele>394</ele>
        <time>2016-03-28T09:46:25Z</time>
      </trkpt>
      <trkpt lat="43.63557" lon="6.80546">
        <ele>394</ele>
        <time>2016-03-28T09:46:37Z</time>
      </trkpt>
      <trkpt lat="43.63539" lon="6.80543">
        <ele>394</ele>
        <time>2016-03-28T09:46:45Z</time>
      </trkpt>
      <trkpt lat="43.6352" lon="6.80543">
        <ele>395</ele>
        <time>2016-03-28T09:46:56Z</time>
      </trkpt>
      <trkpt lat="43.63501" lon="6.80536">
        <ele>395</ele>
        <time>2016-03-28T09:47:02Z</time>
      </trkpt>
      <trkpt lat="43.63494" lon="6.80512">
        <ele>395</ele>
        <time>2016-03-28T09:47:09Z</time>
      </trkpt>
      <trkpt lat="43.63486" lon="6.80486">
        <ele>395</ele>
        <time>2016-03-28T09:47:13Z</time>
      </trkpt>
      <trkpt lat="43.63478" lon="6.80458">
        <ele>395</ele>
        <time>2016-03-28T09:47:19Z</time>
      </trkpt>
      <trkpt lat="43.63471" lon="6.8043">
        <ele>394</ele>
        <time>2016-03-28T09:47:25Z</time>
      </trkpt>
      <trkpt lat="43.63466" lon="6.80406">
        <ele>394</ele>
        <time>2016-03-28T09:47:30Z</time>
      </trkpt>
      <trkpt lat="43.63461" lon="6.8038">
        <ele>394</ele>
        <time>2016-03-28T09:47:35Z</time>
      </trkpt>
      <trkpt lat="43.63456" lon="6.80354">
        <ele>394</ele>
        <time>2016-03-28T09:47:41Z</time>
      </trkpt>
      <trkpt lat="43.63449" lon="6.80329">
        <ele>394</ele>
        <time>2016-03-28T09:47:46Z</time>
      </trkpt>
      <trkpt lat="43.63446" lon="6.80304">
        <ele>393</ele>
        <time>2016-03-28T09:47:53Z</time>
      </trkpt>
      <trkpt lat="43.63456" lon="6.80279">
        <ele>393</ele>
        <time>2016-03-28T09:47:56Z</time>
      </trkpt>
      <trkpt lat="43.6346" lon="6.80247">
        <ele>391</ele>
        <time>2016-03-28T09:48:00Z</time>
      </trkpt>
      <trkpt lat="43.63465" lon="6.80221">
        <ele>391</ele>
        <time>2016-03-28T09:48:03Z</time>
      </trkpt>
      <trkpt lat="43.63471" lon="6.80195">
        <ele>391</ele>
        <time>2016-03-28T09:48:06Z</time>
      </trkpt>
      <trkpt lat="43.63475" lon="6.80167">
        <ele>390</ele>
        <time>2016-03-28T09:48:09Z</time>
      </trkpt>
      <trkpt lat="43.63474" lon="6.80142">
        <ele>389</ele>
        <time>2016-03-28T09:48:12Z</time>
      </trkpt>
      <trkpt lat="43.63471" lon="6.80115">
        <ele>389</ele>
        <time>2016-03-28T09:48:15Z</time>
      </trkpt>
      <trkpt lat="43.63462" lon="6.80089">
        <ele>388</ele>
        <time>2016-03-28T09:48:18Z</time>
      </trkpt>
      <trkpt lat="43.63453" lon="6.80064">
        <ele>383</ele>
        <time>2016-03-28T09:48:21Z</time>
      </trkpt>
      <trkpt lat="43.63447" lon="6.80038">
        <ele>381</ele>
        <time>2016-03-28T09:48:24Z</time>
      </trkpt>
      <trkpt lat="43.63444" lon="6.80006">
        <ele>377</ele>
        <time>2016-03-28T09:48:27Z</time>
      </trkpt>
      <trkpt lat="43.63448" lon="6.79973">
        <ele>369</ele>
        <time>2016-03-28T09:48:30Z</time>
      </trkpt>
      <trkpt lat="43.63461" lon="6.79951">
        <ele>369</ele>
        <time>2016-03-28T09:48:33Z</time>
      </trkpt>
      <trkpt lat="43.63477" lon="6.79936">
        <ele>370</ele>
        <time>2016-03-28T09:48:36Z</time>
      </trkpt>
      <trkpt lat="43.63495" lon="6.79931">
        <ele>373</ele>
        <time>2016-03-28T09:48:40Z</time>
      </trkpt>
      <trkpt lat="43.63517" lon="6.79939">
        <ele>378</ele>
        <time>2016-03-28T09:48:45Z</time>
      </trkpt>
      <trkpt lat="43.63536" lon="6.79948">
        <ele>379</ele>
        <time>2016-03-28T09:48:49Z</time>
      </trkpt>
      <trkpt lat="43.63558" lon="6.79958">
        <ele>379</ele>
        <time>2016-03-28T09:48:54Z</time>
      </trkpt>
      <trkpt lat="43.63577" lon="6.7997">
        <ele>380</ele>
        <time>2016-03-28T09:48:58Z</time>
      </trkpt>
      <trkpt lat="43.63595" lon="6.79981">
        <ele>378</ele>
        <time>2016-03-28T09:49:02Z</time>
      </trkpt>
      <trkpt lat="43.63612" lon="6.79995">
        <ele>377</ele>
        <time>2016-03-28T09:49:06Z</time>
      </trkpt>
      <trkpt lat="43.6363" lon="6.8001">
        <ele>384</ele>
        <time>2016-03-28T09:49:10Z</time>
      </trkpt>
      <trkpt lat="43.63649" lon="6.80026">
        <ele>384</ele>
        <time>2016-03-28T09:49:14Z</time>
      </trkpt>
      <trkpt lat="43.63668" lon="6.80043">
        <ele>383</ele>
        <time>2016-03-28T09:49:18Z</time>
      </trkpt>
      <trkpt lat="43.63687" lon="6.80055">
        <ele>383</ele>
        <time>2016-03-28T09:49:22Z</time>
      </trkpt>
      <trkpt lat="43.63706" lon="6.80059">
        <ele>383</ele>
        <time>2016-03-28T09:49:26Z</time>
      </trkpt>
      <trkpt lat="43.63728" lon="6.80067">
        <ele>385</ele>
        <time>2016-03-28T09:49:30Z</time>
      </trkpt>
      <trkpt lat="43.63748" lon="6.80065">
        <ele>385</ele>
        <time>2016-03-28T09:49:34Z</time>
      </trkpt>
      <trkpt lat="43.63768" lon="6.80062">
        <ele>386</ele>
        <time>2016-03-28T09:49:38Z</time>
      </trkpt>
      <trkpt lat="43.63757" lon="6.8004">
        <ele>383</ele>
        <time>2016-03-28T09:50:43Z</time>
      </trkpt>
      <trkpt lat="43.63746" lon="6.8002">
        <ele>378</ele>
        <time>2016-03-28T09:51:00Z</time>
      </trkpt>
      <trkpt lat="43.63756" lon="6.79997">
        <ele>370</ele>
        <time>2016-03-28T09:52:01Z</time>
      </trkpt>
      <trkpt lat="43.63763" lon="6.79957">
        <ele>361</ele>
        <time>2016-03-28T09:53:37Z</time>
      </trkpt>
      <trkpt lat="43.63774" lon="6.79933">
        <ele>357</ele>
        <time>2016-03-28T09:53:46Z</time>
      </trkpt>
      <trkpt lat="43.63786" lon="6.79914">
        <ele>337</ele>
        <time>2016-03-28T09:53:52Z</time>
      </trkpt>
      <trkpt lat="43.63802" lon="6.79901">
        <ele>336</ele>
        <time>2016-03-28T09:53:58Z</time>
      </trkpt>
      <trkpt lat="43.63822" lon="6.79888">
        <ele>336</ele>
        <time>2016-03-28T09:54:15Z</time>
      </trkpt>
      <trkpt lat="43.63825" lon="6.79861">
        <ele>327</ele>
        <time>2016-03-28T09:54:52Z</time>
      </trkpt>
      <trkpt lat="43.63807" lon="6.79864">
        <ele>328</ele>
        <time>2016-03-28T09:55:19Z</time>
      </trkpt>
      <trkpt lat="43.63791" lon="6.79853">
        <ele>325</ele>
        <time>2016-03-28T09:57:57Z</time>
      </trkpt>
      <trkpt lat="43.63804" lon="6.79835">
        <ele>323</ele>
        <time>2016-03-28T10:08:28Z</time>
      </trkpt>
      <trkpt lat="43.63814" lon="6.79813">
        <ele>299</ele>
        <time>2016-03-28T10:08:34Z</time>
      </trkpt>
      <trkpt lat="43.63831" lon="6.798">
        <ele>296</ele>
        <time>2016-03-28T10:08:42Z</time>
      </trkpt>
      <trkpt lat="43.63849" lon="6.79805">
        <ele>305</ele>
        <time>2016-03-28T10:08:59Z</time>
      </trkpt>
      <trkpt lat="43.6387" lon="6.79803">
        <ele>305</ele>
        <time>2016-03-28T10:09:07Z</time>
      </trkpt>
      <trkpt lat="43.63885" lon="6.7979">
        <ele>304</ele>
        <time>2016-03-28T10:09:39Z</time>
      </trkpt>
      <trkpt lat="43.6387" lon="6.79776">
        <ele>299</ele>
        <time>2016-03-28T10:09:51Z</time>
      </trkpt>
      <trkpt lat="43.63855" lon="6.79761">
        <ele>292</ele>
        <time>2016-03-28T10:09:59Z</time>
      </trkpt>
      <trkpt lat="43.63838" lon="6.79749">
        <ele>274</ele>
        <time>2016-03-28T10:10:14Z</time>
      </trkpt>
      <trkpt lat="43.63817" lon="6.79742">
        <ele>265</ele>
        <time>2016-03-28T10:10:31Z</time>
      </trkpt>
      <trkpt lat="43.63802" lon="6.79757">
        <ele>285</ele>
        <time>2016-03-28T10:10:35Z</time>
      </trkpt>
      <trkpt lat="43.63785" lon="6.7977">
        <ele>286</ele>
        <time>2016-03-28T10:10:41Z</time>
      </trkpt>
      <trkpt lat="43.63767" lon="6.79779">
        <ele>286</ele>
        <time>2016-03-28T10:10:49Z</time>
      </trkpt>
      <trkpt lat="43.63747" lon="6.79775">
        <ele>288</ele>
        <time>2016-03-28T10:10:56Z</time>
      </trkpt>
      <trkpt lat="43.63731" lon="6.79763">
        <ele>286</ele>
        <time>2016-03-28T10:11:02Z</time>
      </trkpt>
      <trkpt lat="43.63713" lon="6.79744">
        <ele>269</ele>
        <time>2016-03-28T10:11:07Z</time>
      </trkpt>
      <trkpt lat="43.63699" lon="6.79725">
        <ele>269</ele>
        <time>2016-03-28T10:11:13Z</time>
      </trkpt>
      <trkpt lat="43.63681" lon="6.79712">
        <ele>268</ele>
        <time>2016-03-28T10:11:18Z</time>
      </trkpt>
      <trkpt lat="43.63664" lon="6.79703">
        <ele>280</ele>
        <time>2016-03-28T10:12:18Z</time>
      </trkpt>
      <trkpt lat="43.63648" lon="6.79692">
        <ele>278</ele>
        <time>2016-03-28T10:12:25Z</time>
      </trkpt>
      <trkpt lat="43.63632" lon="6.79676">
        <ele>278</ele>
        <time>2016-03-28T10:12:33Z</time>
      </trkpt>
      <trkpt lat="43.63614" lon="6.79663">
        <ele>255</ele>
        <time>2016-03-28T10:12:37Z</time>
      </trkpt>
      <trkpt lat="43.63597" lon="6.79654">
        <ele>260</ele>
        <time>2016-03-28T10:12:41Z</time>
      </trkpt>
      <trkpt lat="43.63581" lon="6.79642">
        <ele>262</ele>
        <time>2016-03-28T10:12:49Z</time>
      </trkpt>
      <trkpt lat="43.63565" lon="6.79626">
        <ele>255</ele>
        <time>2016-03-28T10:12:53Z</time>
      </trkpt>
      <trkpt lat="43.63549" lon="6.79613">
        <ele>251</ele>
        <time>2016-03-28T10:12:57Z</time>
      </trkpt>
      <trkpt lat="43.63531" lon="6.79624">
        <ele>254</ele>
        <time>2016-03-28T10:13:04Z</time>
      </trkpt>
      <trkpt lat="43.63511" lon="6.79632">
        <ele>257</ele>
        <time>2016-03-28T10:13:13Z</time>
      </trkpt>
      <trkpt lat="43.63494" lon="6.79643">
        <ele>251</ele>
        <time>2016-03-28T10:13:18Z</time>
      </trkpt>
      <trkpt lat="43.63475" lon="6.79646">
        <ele>248</ele>
        <time>2016-03-28T10:13:33Z</time>
      </trkpt>
      <trkpt lat="43.63457" lon="6.79644">
        <ele>242</ele>
        <time>2016-03-28T10:13:46Z</time>
      </trkpt>
      <trkpt lat="43.63441" lon="6.79657">
        <ele>240</ele>
        <time>2016-03-28T10:13:55Z</time>
      </trkpt>
      <trkpt lat="43.63422" lon="6.79667">
        <ele>236</ele>
        <time>2016-03-28T10:14:03Z</time>
      </trkpt>
      <trkpt lat="43.63407" lon="6.79679">
        <ele>233</ele>
        <time>2016-03-28T10:14:54Z</time>
      </trkpt>
      <trkpt lat="43.63389" lon="6.79679">
        <ele>230</ele>
        <time>2016-03-28T10:15:20Z</time>
      </trkpt>
      <trkpt lat="43.63379" lon="6.79701">
        <ele>231</ele>
        <time>2016-03-28T10:15:27Z</time>
      </trkpt>
      <trkpt lat="43.63369" lon="6.79721">
        <ele>231</ele>
        <time>2016-03-28T10:15:53Z</time>
      </trkpt>
      <trkpt lat="43.63351" lon="6.79724">
        <ele>227</ele>
        <time>2016-03-28T10:16:34Z</time>
      </trkpt>
      <trkpt lat="43.63332" lon="6.79734">
        <ele>207</ele>
        <time>2016-03-28T10:16:45Z</time>
      </trkpt>
      <trkpt lat="43.63314" lon="6.79742">
        <ele>204</ele>
        <time>2016-03-28T10:17:21Z</time>
      </trkpt>
      <trkpt lat="43.63295" lon="6.79751">
        <ele>209</ele>
        <time>2016-03-28T10:17:45Z</time>
      </trkpt>
      <trkpt lat="43.63279" lon="6.79769">
        <ele>205</ele>
        <time>2016-03-28T10:17:50Z</time>
      </trkpt>
      <trkpt lat="43.63276" lon="6.79796">
        <ele>209</ele>
        <time>2016-03-28T10:17:57Z</time>
      </trkpt>
      <trkpt lat="43.63268" lon="6.79818">
        <ele>208</ele>
        <time>2016-03-28T10:18:04Z</time>
      </trkpt>
      <trkpt lat="43.63258" lon="6.7984">
        <ele>215</ele>
        <time>2016-03-28T10:18:13Z</time>
      </trkpt>
      <trkpt lat="43.63247" lon="6.79861">
        <ele>207</ele>
        <time>2016-03-28T10:18:18Z</time>
      </trkpt>
      <trkpt lat="43.63232" lon="6.79878">
        <ele>211</ele>
        <time>2016-03-28T10:18:27Z</time>
      </trkpt>
      <trkpt lat="43.63215" lon="6.79893">
        <ele>212</ele>
        <time>2016-03-28T10:18:36Z</time>
      </trkpt>
      <trkpt lat="43.63197" lon="6.79899">
        <ele>209</ele>
        <time>2016-03-28T10:18:44Z</time>
      </trkpt>
      <trkpt lat="43.63177" lon="6.79907">
        <ele>208</ele>
        <time>2016-03-28T10:18:54Z</time>
      </trkpt>
      <trkpt lat="43.63162" lon="6.79925">
        <ele>212</ele>
        <time>2016-03-28T10:18:59Z</time>
      </trkpt>
      <trkpt lat="43.63143" lon="6.79932">
        <ele>214</ele>
        <time>2016-03-28T10:19:25Z</time>
      </trkpt>
      <trkpt lat="43.63126" lon="6.79942">
        <ele>214</ele>
        <time>2016-03-28T10:19:46Z</time>
      </trkpt>
      <trkpt lat="43.63107" lon="6.79942">
        <ele>210</ele>
        <time>2016-03-28T10:20:01Z</time>
      </trkpt>
      <trkpt lat="43.63087" lon="6.79939">
        <ele>204</ele>
        <time>2016-03-28T10:20:09Z</time>
      </trkpt>
      <trkpt lat="43.63074" lon="6.79958">
        <ele>195</ele>
        <time>2016-03-28T10:20:24Z</time>
      </trkpt>
      <trkpt lat="43.63061" lon="6.79978">
        <ele>199</ele>
        <time>2016-03-28T10:20:47Z</time>
      </trkpt>
      <trkpt lat="43.63043" lon="6.79992">
        <ele>198</ele>
        <time>2016-03-28T10:20:52Z</time>
      </trkpt>
      <trkpt lat="43.63025" lon="6.80002">
        <ele>209</ele>
        <time>2016-03-28T10:21:03Z</time>
      </trkpt>
      <trkpt lat="43.63008" lon="6.80017">
        <ele>208</ele>
        <time>2016-03-28T10:21:13Z</time>
      </trkpt>
      <trkpt lat="43.62992" lon="6.80029">
        <ele>199</ele>
        <time>2016-03-28T10:21:39Z</time>
      </trkpt>
      <trkpt lat="43.62976" lon="6.80041">
        <ele>199</ele>
        <time>2016-03-28T10:22:32Z</time>
      </trkpt>
      <trkpt lat="43.62973" lon="6.80066">
        <ele>202</ele>
        <time>2016-03-28T10:22:59Z</time>
      </trkpt>
      <trkpt lat="43.62974" lon="6.80091">
        <ele>210</ele>
        <time>2016-03-28T10:23:13Z</time>
      </trkpt>
      <trkpt lat="43.62966" lon="6.80114">
        <ele>210</ele>
        <time>2016-03-28T10:23:22Z</time>
      </trkpt>
      <trkpt lat="43.62954" lon="6.80133">
        <ele>209</ele>
        <time>2016-03-28T10:24:19Z</time>
      </trkpt>
      <trkpt lat="43.62945" lon="6.80155">
        <ele>207</ele>
        <time>2016-03-28T10:26:57Z</time>
      </trkpt>
      <trkpt lat="43.62936" lon="6.80178">
        <ele>208</ele>
        <time>2016-03-28T10:28:42Z</time>
      </trkpt>
      <trkpt lat="43.62927" lon="6.802">
        <ele>209</ele>
        <time>2016-03-28T10:29:38Z</time>
      </trkpt>
      <trkpt lat="43.62909" lon="6.80207">
        <ele>188</ele>
        <time>2016-03-28T10:30:06Z</time>
      </trkpt>
      <trkpt lat="43.62899" lon="6.80229">
        <ele>188</ele>
        <time>2016-03-28T10:30:42Z</time>
      </trkpt>
      <trkpt lat="43.62894" lon="6.80254">
        <ele>187</ele>
        <time>2016-03-28T10:30:48Z</time>
      </trkpt>
      <trkpt lat="43.62892" lon="6.80283">
        <ele>184</ele>
        <time>2016-03-28T10:30:53Z</time>
      </trkpt>
      <trkpt lat="43.62889" lon="6.80313">
        <ele>184</ele>
        <time>2016-03-28T10:30:58Z</time>
      </trkpt>
      <trkpt lat="43.62893" lon="6.8034">
        <ele>183</ele>
        <time>2016-03-28T10:31:07Z</time>
      </trkpt>
      <trkpt lat="43.62904" lon="6.80365">
        <ele>181</ele>
        <time>2016-03-28T10:31:12Z</time>
      </trkpt>
      <trkpt lat="43.62917" lon="6.80391">
        <ele>198</ele>
        <time>2016-03-28T10:31:17Z</time>
      </trkpt>
      <trkpt lat="43.62929" lon="6.80417">
        <ele>188</ele>
        <time>2016-03-28T10:31:21Z</time>
      </trkpt>
      <trkpt lat="43.62941" lon="6.80444">
        <ele>192</ele>
        <time>2016-03-28T10:31:25Z</time>
      </trkpt>
      <trkpt lat="43.62953" lon="6.8047">
        <ele>192</ele>
        <time>2016-03-28T10:31:29Z</time>
      </trkpt>
      <trkpt lat="43.62964" lon="6.80492">
        <ele>193</ele>
        <time>2016-03-28T10:31:34Z</time>
      </trkpt>
      <trkpt lat="43.62978" lon="6.8051">
        <ele>187</ele>
        <time>2016-03-28T10:31:40Z</time>
      </trkpt>
      <trkpt lat="43.62989" lon="6.80531">
        <ele>186</ele>
        <time>2016-03-28T10:31:45Z</time>
      </trkpt>
      <trkpt lat="43.62995" lon="6.80555">
        <ele>184</ele>
        <time>2016-03-28T10:31:49Z</time>
      </trkpt>
      <trkpt lat="43.63" lon="6.8058">
        <ele>192</ele>
        <time>2016-03-28T10:31:52Z</time>
      </trkpt>
      <trkpt lat="43.6301" lon="6.80607">
        <ele>197</ele>
        <time>2016-03-28T10:31:56Z</time>
      </trkpt>
      <trkpt lat="43.63016" lon="6.80635">
        <ele>197</ele>
        <time>2016-03-28T10:32:03Z</time>
      </trkpt>
      <trkpt lat="43.63021" lon="6.80664">
        <ele>194</ele>
        <time>2016-03-28T10:32:08Z</time>
      </trkpt>
      <trkpt lat="43.63027" lon="6.80694">
        <ele>188</ele>
        <time>2016-03-28T10:32:12Z</time>
      </trkpt>
      <trkpt lat="43.63039" lon="6.80724">
        <ele>187</ele>
        <time>2016-03-28T10:32:16Z</time>
      </trkpt>
      <trkpt lat="43.63052" lon="6.80744">
        <ele>189</ele>
        <time>2016-03-28T10:32:20Z</time>
      </trkpt>
      <trkpt lat="43.63068" lon="6.80764">
        <ele>185</ele>
        <time>2016-03-28T10:32:24Z</time>
      </trkpt>
      <trkpt lat="43.63084" lon="6.80783">
        <ele>204</ele>
        <time>2016-03-28T10:32:28Z</time>
      </trkpt>
      <trkpt lat="43.63098" lon="6.80805">
        <ele>203</ele>
        <time>2016-03-28T10:32:32Z</time>
      </trkpt>
      <trkpt lat="43.63109" lon="6.8083">
        <ele>202</ele>
        <time>2016-03-28T10:32:37Z</time>
      </trkpt>
      <trkpt lat="43.63118" lon="6.80853">
        <ele>196</ele>
        <time>2016-03-28T10:32:44Z</time>
      </trkpt>
      <trkpt lat="43.63125" lon="6.80876">
        <ele>196</ele>
        <time>2016-03-28T10:32:54Z</time>
      </trkpt>
      <trkpt lat="43.63133" lon="6.809">
        <ele>196</ele>
        <time>2016-03-28T10:33:20Z</time>
      </trkpt>
      <trkpt lat="43.63136" lon="6.80925">
        <ele>191</ele>
        <time>2016-03-28T10:33:40Z</time>
      </trkpt>
      <trkpt lat="43.6314" lon="6.80951">
        <ele>189</ele>
        <time>2016-03-28T10:33:46Z</time>
      </trkpt>
      <trkpt lat="43.63146" lon="6.80976">
        <ele>189</ele>
        <time>2016-03-28T10:33:50Z</time>
      </trkpt>
      <trkpt lat="43.63148" lon="6.81006">
        <ele>184</ele>
        <time>2016-03-28T10:33:56Z</time>
      </trkpt>
      <trkpt lat="43.63153" lon="6.8103">
        <ele>182</ele>
        <time>2016-03-28T10:34:03Z</time>
      </trkpt>
      <trkpt lat="43.63155" lon="6.81055">
        <ele>180</ele>
        <time>2016-03-28T10:34:09Z</time>
      </trkpt>
      <trkpt lat="43.63161" lon="6.81084">
        <ele>182</ele>
        <time>2016-03-28T10:34:15Z</time>
      </trkpt>
      <trkpt lat="43.63165" lon="6.81112">
        <ele>172</ele>
        <time>2016-03-28T10:34:19Z</time>
      </trkpt>
      <trkpt lat="43.63169" lon="6.81137">
        <ele>190</ele>
        <time>2016-03-28T10:34:22Z</time>
      </trkpt>
      <trkpt lat="43.63173" lon="6.81165">
        <ele>180</ele>
        <time>2016-03-28T10:34:25Z</time>
      </trkpt>
      <trkpt lat="43.63188" lon="6.81183">
        <ele>183</ele>
        <time>2016-03-28T10:34:29Z</time>
      </trkpt>
      <trkpt lat="43.6319" lon="6.81208">
        <ele>183</ele>
        <time>2016-03-28T10:34:33Z</time>
      </trkpt>
      <trkpt lat="43.63195" lon="6.81234">
        <ele>181</ele>
        <time>2016-03-28T10:34:37Z</time>
      </trkpt>
      <trkpt lat="43.632" lon="6.81263">
        <ele>176</ele>
        <time>2016-03-28T10:34:43Z</time>
      </trkpt>
      <trkpt lat="43.63199" lon="6.81292">
        <ele>175</ele>
        <time>2016-03-28T10:34:51Z</time>
      </trkpt>
      <trkpt lat="43.632" lon="6.81321">
        <ele>174</ele>
        <time>2016-03-28T10:34:55Z</time>
      </trkpt>
      <trkpt lat="43.632" lon="6.81354">
        <ele>172</ele>
        <time>2016-03-28T10:34:59Z</time>
      </trkpt>
      <trkpt lat="43.63203" lon="6.81383">
        <ele>172</ele>
        <time>2016-03-28T10:35:03Z</time>
      </trkpt>
      <trkpt lat="43.63202" lon="6.8141">
        <ele>172</ele>
        <time>2016-03-28T10:35:08Z</time>
      </trkpt>
      <trkpt lat="43.63195" lon="6.81432">
        <ele>166</ele>
        <time>2016-03-28T10:35:14Z</time>
      </trkpt>
      <trkpt lat="43.6319" lon="6.81457">
        <ele>165</ele>
        <time>2016-03-28T10:35:22Z</time>
      </trkpt>
      <trkpt lat="43.63202" lon="6.81475">
        <ele>165</ele>
        <time>2016-03-28T10:35:32Z</time>
      </trkpt>
      <trkpt lat="43.63216" lon="6.81496">
        <ele>168</ele>
        <time>2016-03-28T10:35:54Z</time>
      </trkpt>
      <trkpt lat="43.63228" lon="6.81518">
        <ele>160</ele>
        <time>2016-03-28T10:36:03Z</time>
      </trkpt>
      <trkpt lat="43.63241" lon="6.81535">
        <ele>159</ele>
        <time>2016-03-28T10:36:09Z</time>
      </trkpt>
      <trkpt lat="43.63258" lon="6.81549">
        <ele>177</ele>
        <time>2016-03-28T10:36:15Z</time>
      </trkpt>
      <trkpt lat="43.63267" lon="6.81574">
        <ele>172</ele>
        <time>2016-03-28T10:36:53Z</time>
      </trkpt>
      <trkpt lat="43.63277" lon="6.81601">
        <ele>170</ele>
        <time>2016-03-28T10:37:02Z</time>
      </trkpt>
      <trkpt lat="43.6328" lon="6.81627">
        <ele>170</ele>
        <time>2016-03-28T10:37:18Z</time>
      </trkpt>
      <trkpt lat="43.63268" lon="6.81653">
        <ele>166</ele>
        <time>2016-03-28T10:38:12Z</time>
      </trkpt>
      <trkpt lat="43.6325" lon="6.81664">
        <ele>157</ele>
        <time>2016-03-28T10:38:18Z</time>
      </trkpt>
      <trkpt lat="43.63234" lon="6.8165">
        <ele>150</ele>
        <time>2016-03-28T10:38:23Z</time>
      </trkpt>
      <trkpt lat="43.63216" lon="6.81654">
        <ele>148</ele>
        <time>2016-03-28T10:38:27Z</time>
      </trkpt>
      <trkpt lat="43.63197" lon="6.81662">
        <ele>147</ele>
        <time>2016-03-28T10:38:32Z</time>
      </trkpt>
      <trkpt lat="43.63178" lon="6.81674">
        <ele>151</ele>
        <time>2016-03-28T10:38:37Z</time>
      </trkpt>
      <trkpt lat="43.63159" lon="6.81688">
        <ele>144</ele>
        <time>2016-03-28T10:38:42Z</time>
      </trkpt>
      <trkpt lat="43.63144" lon="6.81704">
        <ele>145</ele>
        <time>2016-03-28T10:38:47Z</time>
      </trkpt>
      <trkpt lat="43.63131" lon="6.81724">
        <ele>145</ele>
        <time>2016-03-28T10:38:56Z</time>
      </trkpt>
      <trkpt lat="43.63114" lon="6.81737">
        <ele>143</ele>
        <time>2016-03-28T10:39:00Z</time>
      </trkpt>
      <trkpt lat="43.6311" lon="6.81765">
        <ele>155</ele>
        <time>2016-03-28T10:39:04Z</time>
      </trkpt>
      <trkpt lat="43.63107" lon="6.8179">
        <ele>158</ele>
        <time>2016-03-28T10:39:08Z</time>
      </trkpt>
      <trkpt lat="43.63101" lon="6.81819">
        <ele>160</ele>
        <time>2016-03-28T10:39:12Z</time>
      </trkpt>
      <trkpt lat="43.63083" lon="6.81839">
        <ele>157</ele>
        <time>2016-03-28T10:39:16Z</time>
      </trkpt>
      <trkpt lat="43.63062" lon="6.81848">
        <ele>160</ele>
        <time>2016-03-28T10:39:20Z</time>
      </trkpt>
      <trkpt lat="43.63041" lon="6.81862">
        <ele>161</ele>
        <time>2016-03-28T10:39:24Z</time>
      </trkpt>
      <trkpt lat="43.63023" lon="6.81863">
        <ele>160</ele>
        <time>2016-03-28T10:39:28Z</time>
      </trkpt>
      <trkpt lat="43.63001" lon="6.81862">
        <ele>158</ele>
        <time>2016-03-28T10:39:34Z</time>
      </trkpt>
      <trkpt lat="43.62981" lon="6.81859">
        <ele>150</ele>
        <time>2016-03-28T10:39:38Z</time>
      </trkpt>
      <trkpt lat="43.62965" lon="6.81875">
        <ele>151</ele>
        <time>2016-03-28T10:39:43Z</time>
      </trkpt>
      <trkpt lat="43.62948" lon="6.8189">
        <ele>151</ele>
        <time>2016-03-28T10:39:48Z</time>
      </trkpt>
      <trkpt lat="43.62933" lon="6.81908">
        <ele>152</ele>
        <time>2016-03-28T10:39:53Z</time>
      </trkpt>
      <trkpt lat="43.6292" lon="6.81929">
        <ele>161</ele>
        <time>2016-03-28T10:39:57Z</time>
      </trkpt>
      <trkpt lat="43.62911" lon="6.81953">
        <ele>156</ele>
        <time>2016-03-28T10:40:01Z</time>
      </trkpt>
      <trkpt lat="43.629" lon="6.81979">
        <ele>160</ele>
        <time>2016-03-28T10:40:06Z</time>
      </trkpt>
      <trkpt lat="43.62888" lon="6.81999">
        <ele>159</ele>
        <time>2016-03-28T10:40:10Z</time>
      </trkpt>
      <trkpt lat="43.62874" lon="6.8202">
        <ele>169</ele>
        <time>2016-03-28T10:40:15Z</time>
      </trkpt>
      <trkpt lat="43.62854" lon="6.82013">
        <ele>163</ele>
        <time>2016-03-28T10:40:19Z</time>
      </trkpt>
      <trkpt lat="43.62836" lon="6.82023">
        <ele>163</ele>
        <time>2016-03-28T10:40:23Z</time>
      </trkpt>
      <trkpt lat="43.62823" lon="6.8204">
        <ele>151</ele>
        <time>2016-03-28T10:40:26Z</time>
      </trkpt>
      <trkpt lat="43.62802" lon="6.82053">
        <ele>151</ele>
        <time>2016-03-28T10:40:30Z</time>
      </trkpt>
      <trkpt lat="43.6278" lon="6.82067">
        <ele>149</ele>
        <time>2016-03-28T10:40:34Z</time>
      </trkpt>
      <trkpt lat="43.62764" lon="6.82093">
        <ele>156</ele>
        <time>2016-03-28T10:40:37Z</time>
      </trkpt>
      <trkpt lat="43.6275" lon="6.82112">
        <ele>158</ele>
        <time>2016-03-28T10:40:39Z</time>
      </trkpt>
      <trkpt lat="43.62736" lon="6.8214">
        <ele>144</ele>
        <time>2016-03-28T10:40:42Z</time>
      </trkpt>
      <trkpt lat="43.62719" lon="6.82155">
        <ele>143</ele>
        <time>2016-03-28T10:40:46Z</time>
      </trkpt>
      <trkpt lat="43.62702" lon="6.82178">
        <ele>149</ele>
        <time>2016-03-28T10:40:50Z</time>
      </trkpt>
      <trkpt lat="43.62683" lon="6.82195">
        <ele>148</ele>
        <time>2016-03-28T10:40:53Z</time>
      </trkpt>
      <trkpt lat="43.62667" lon="6.82218">
        <ele>135</ele>
        <time>2016-03-28T10:40:57Z</time>
      </trkpt>
      <trkpt lat="43.62648" lon="6.82234">
        <ele>136</ele>
        <time>2016-03-28T10:41:00Z</time>
      </trkpt>
      <trkpt lat="43.62633" lon="6.82264">
        <ele>143</ele>
        <time>2016-03-28T10:41:03Z</time>
      </trkpt>
      <trkpt lat="43.62622" lon="6.82293">
        <ele>143</ele>
        <time>2016-03-28T10:41:06Z</time>
      </trkpt>
      <trkpt lat="43.62606" lon="6.82309">
        <ele>141</ele>
        <time>2016-03-28T10:41:09Z</time>
      </trkpt>
      <trkpt lat="43.62593" lon="6.82327">
        <ele>138</ele>
        <time>2016-03-28T10:41:12Z</time>
      </trkpt>
      <trkpt lat="43.62577" lon="6.82351">
        <ele>132</ele>
        <time>2016-03-28T10:41:15Z</time>
      </trkpt>
      <trkpt lat="43.62566" lon="6.8237">
        <ele>130</ele>
        <time>2016-03-28T10:41:17Z</time>
      </trkpt>
      <trkpt lat="43.62552" lon="6.82396">
        <ele>131</ele>
        <time>2016-03-28T10:41:20Z</time>
      </trkpt>
      <trkpt lat="43.62543" lon="6.8242">
        <ele>136</ele>
        <time>2016-03-28T10:41:23Z</time>
      </trkpt>
      <trkpt lat="43.62535" lon="6.82445">
        <ele>136</ele>
        <time>2016-03-28T10:41:26Z</time>
      </trkpt>
      <trkpt lat="43.62526" lon="6.82473">
        <ele>136</ele>
        <time>2016-03-28T10:41:30Z</time>
      </trkpt>
      <trkpt lat="43.62522" lon="6.82499">
        <ele>136</ele>
        <time>2016-03-28T10:41:33Z</time>
      </trkpt>
      <trkpt lat="43.62521" lon="6.82529">
        <ele>143</ele>
        <time>2016-03-28T10:41:37Z</time>
      </trkpt>
      <trkpt lat="43.62521" lon="6.82559">
        <ele>144</ele>
        <time>2016-03-28T10:41:41Z</time>
      </trkpt>
      <trkpt lat="43.62514" lon="6.82585">
        <ele>146</ele>
        <time>2016-03-28T10:41:45Z</time>
      </trkpt>
      <trkpt lat="43.62505" lon="6.82611">
        <ele>150</ele>
        <time>2016-03-28T10:41:49Z</time>
      </trkpt>
      <trkpt lat="43.62496" lon="6.82635">
        <ele>138</ele>
        <time>2016-03-28T10:41:53Z</time>
      </trkpt>
      <trkpt lat="43.62488" lon="6.82659">
        <ele>143</ele>
        <time>2016-03-28T10:41:57Z</time>
      </trkpt>
      <trkpt lat="43.62483" lon="6.82683">
        <ele>145</ele>
        <time>2016-03-28T10:42:01Z</time>
      </trkpt>
      <trkpt lat="43.62482" lon="6.82709">
        <ele>144</ele>
        <time>2016-03-28T10:42:05Z</time>
      </trkpt>
      <trkpt lat="43.62481" lon="6.82736">
        <ele>147</ele>
        <time>2016-03-28T10:42:09Z</time>
      </trkpt>
      <trkpt lat="43.62485" lon="6.82763">
        <ele>149</ele>
        <time>2016-03-28T10:42:13Z</time>
      </trkpt>
      <trkpt lat="43.62486" lon="6.82788">
        <ele>147</ele>
        <time>2016-03-28T10:42:17Z</time>
      </trkpt>
      <trkpt lat="43.62488" lon="6.82818">
        <ele>150</ele>
        <time>2016-03-28T10:42:22Z</time>
      </trkpt>
      <trkpt lat="43.62489" lon="6.82847">
        <ele>151</ele>
        <time>2016-03-28T10:42:27Z</time>
      </trkpt>
      <trkpt lat="43.62492" lon="6.82874">
        <ele>148</ele>
        <time>2016-03-28T10:42:32Z</time>
      </trkpt>
      <trkpt lat="43.62495" lon="6.82902">
        <ele>151</ele>
        <time>2016-03-28T10:42:37Z</time>
      </trkpt>
      <trkpt lat="43.62497" lon="6.8293">
        <ele>152</ele>
        <time>2016-03-28T10:42:42Z</time>
      </trkpt>
      <trkpt lat="43.625" lon="6.82957">
        <ele>148</ele>
        <time>2016-03-28T10:42:47Z</time>
      </trkpt>
      <trkpt lat="43.62502" lon="6.82985">
        <ele>163</ele>
        <time>2016-03-28T10:42:53Z</time>
      </trkpt>
      <trkpt lat="43.62506" lon="6.8301">
        <ele>162</ele>
        <time>2016-03-28T10:42:57Z</time>
      </trkpt>
      <trkpt lat="43.62508" lon="6.83037">
        <ele>166</ele>
        <time>2016-03-28T10:43:03Z</time>
      </trkpt>
      <trkpt lat="43.6251" lon="6.83062">
        <ele>165</ele>
        <time>2016-03-28T10:43:08Z</time>
      </trkpt>
      <trkpt lat="43.62514" lon="6.83091">
        <ele>164</ele>
        <time>2016-03-28T10:43:13Z</time>
      </trkpt>
      <trkpt lat="43.62515" lon="6.8312">
        <ele>167</ele>
        <time>2016-03-28T10:43:19Z</time>
      </trkpt>
      <trkpt lat="43.62517" lon="6.83147">
        <ele>167</ele>
        <time>2016-03-28T10:43:24Z</time>
      </trkpt>
      <trkpt lat="43.62522" lon="6.83177">
        <ele>166</ele>
        <time>2016-03-28T10:43:29Z</time>
      </trkpt>
      <trkpt lat="43.62528" lon="6.83202">
        <ele>168</ele>
        <time>2016-03-28T10:43:34Z</time>
      </trkpt>
      <trkpt lat="43.62537" lon="6.83225">
        <ele>168</ele>
        <time>2016-03-28T10:43:39Z</time>
      </trkpt>
      <trkpt lat="43.62548" lon="6.83247">
        <ele>170</ele>
        <time>2016-03-28T10:43:44Z</time>
      </trkpt>
      <trkpt lat="43.62554" lon="6.83275">
        <ele>169</ele>
        <time>2016-03-28T10:43:49Z</time>
      </trkpt>
      <trkpt lat="43.62558" lon="6.833">
        <ele>168</ele>
        <time>2016-03-28T10:43:54Z</time>
      </trkpt>
      <trkpt lat="43.62562" lon="6.83326">
        <ele>169</ele>
        <time>2016-03-28T10:44:00Z</time>
      </trkpt>
      <trkpt lat="43.62571" lon="6.83353">
        <ele>167</ele>
        <time>2016-03-28T10:44:06Z</time>
      </trkpt>
      <trkpt lat="43.62584" lon="6.83376">
        <ele>178</ele>
        <time>2016-03-28T10:44:12Z</time>
      </trkpt>
      <trkpt lat="43.62598" lon="6.83398">
        <ele>176</ele>
        <time>2016-03-28T10:44:18Z</time>
      </trkpt>
      <trkpt lat="43.62612" lon="6.8342">
        <ele>173</ele>
        <time>2016-03-28T10:44:24Z</time>
      </trkpt>
      <trkpt lat="43.62625" lon="6.8344">
        <ele>174</ele>
        <time>2016-03-28T10:44:29Z</time>
      </trkpt>
      <trkpt lat="43.62638" lon="6.83459">
        <ele>175</ele>
        <time>2016-03-28T10:44:34Z</time>
      </trkpt>
      <trkpt lat="43.62651" lon="6.83483">
        <ele>176</ele>
        <time>2016-03-28T10:44:40Z</time>
      </trkpt>
      <trkpt lat="43.62664" lon="6.83503">
        <ele>177</ele>
        <time>2016-03-28T10:44:45Z</time>
      </trkpt>
      <trkpt lat="43.62678" lon="6.83524">
        <ele>181</ele>
        <time>2016-03-28T10:44:51Z</time>
      </trkpt>
      <trkpt lat="43.62693" lon="6.83541">
        <ele>182</ele>
        <time>2016-03-28T10:44:56Z</time>
      </trkpt>
      <trkpt lat="43.62709" lon="6.83559">
        <ele>183</ele>
        <time>2016-03-28T10:45:02Z</time>
      </trkpt>
      <trkpt lat="43.62724" lon="6.83577">
        <ele>184</ele>
        <time>2016-03-28T10:45:07Z</time>
      </trkpt>
      <trkpt lat="43.62739" lon="6.83593">
        <ele>180</ele>
        <time>2016-03-28T10:45:12Z</time>
      </trkpt>
      <trkpt lat="43.62755" lon="6.83613">
        <ele>188</ele>
        <time>2016-03-28T10:45:18Z</time>
      </trkpt>
      <trkpt lat="43.62769" lon="6.83631">
        <ele>188</ele>
        <time>2016-03-28T10:45:23Z</time>
      </trkpt>
      <trkpt lat="43.62782" lon="6.83648">
        <ele>188</ele>
        <time>2016-03-28T10:45:28Z</time>
      </trkpt>
      <trkpt lat="43.62798" lon="6.83663">
        <ele>189</ele>
        <time>2016-03-28T10:45:32Z</time>
      </trkpt>
      <trkpt lat="43.6282" lon="6.83671">
        <ele>187</ele>
        <time>2016-03-28T10:45:36Z</time>
      </trkpt>
      <trkpt lat="43.62838" lon="6.83689">
        <ele>192</ele>
        <time>2016-03-28T10:45:40Z</time>
      </trkpt>
      <trkpt lat="43.62853" lon="6.83712">
        <ele>192</ele>
        <time>2016-03-28T10:45:44Z</time>
      </trkpt>
      <trkpt lat="43.62864" lon="6.83732">
        <ele>191</ele>
        <time>2016-03-28T10:45:47Z</time>
      </trkpt>
      <trkpt lat="43.62876" lon="6.83755">
        <ele>189</ele>
        <time>2016-03-28T10:45:52Z</time>
      </trkpt>
      <trkpt lat="43.62887" lon="6.83781">
        <ele>189</ele>
        <time>2016-03-28T10:45:57Z</time>
      </trkpt>
      <trkpt lat="43.62895" lon="6.83806">
        <ele>190</ele>
        <time>2016-03-28T10:46:02Z</time>
      </trkpt>
      <trkpt lat="43.62909" lon="6.8383">
        <ele>192</ele>
        <time>2016-03-28T10:46:08Z</time>
      </trkpt>
      <trkpt lat="43.62924" lon="6.83851">
        <ele>195</ele>
        <time>2016-03-28T10:46:14Z</time>
      </trkpt>
      <trkpt lat="43.62939" lon="6.83872">
        <ele>195</ele>
        <time>2016-03-28T10:46:19Z</time>
      </trkpt>
      <trkpt lat="43.62956" lon="6.83889">
        <ele>196</ele>
        <time>2016-03-28T10:46:24Z</time>
      </trkpt>
      <trkpt lat="43.62973" lon="6.83901">
        <ele>197</ele>
        <time>2016-03-28T10:46:30Z</time>
      </trkpt>
      <trkpt lat="43.6299" lon="6.83912">
        <ele>198</ele>
        <time>2016-03-28T10:46:36Z</time>
      </trkpt>
      <trkpt lat="43.63009" lon="6.83923">
        <ele>199</ele>
        <time>2016-03-28T10:46:42Z</time>
      </trkpt>
      <trkpt lat="43.63029" lon="6.83931">
        <ele>199</ele>
        <time>2016-03-28T10:46:48Z</time>
      </trkpt>
      <trkpt lat="43.63048" lon="6.8394">
        <ele>199</ele>
        <time>2016-03-28T10:46:55Z</time>
      </trkpt>
      <trkpt lat="43.63069" lon="6.8395">
        <ele>200</ele>
        <time>2016-03-28T10:47:01Z</time>
      </trkpt>
      <trkpt lat="43.63087" lon="6.83962">
        <ele>204</ele>
        <time>2016-03-28T10:47:05Z</time>
      </trkpt>
      <trkpt lat="43.63103" lon="6.83974">
        <ele>204</ele>
        <time>2016-03-28T10:47:08Z</time>
      </trkpt>
      <trkpt lat="43.63122" lon="6.83991">
        <ele>205</ele>
        <time>2016-03-28T10:47:12Z</time>
      </trkpt>
      <trkpt lat="43.63133" lon="6.84013">
        <ele>207</ele>
        <time>2016-03-28T10:47:16Z</time>
      </trkpt>
      <trkpt lat="43.6314" lon="6.84041">
        <ele>208</ele>
        <time>2016-03-28T10:47:21Z</time>
      </trkpt>
      <trkpt lat="43.63148" lon="6.84065">
        <ele>209</ele>
        <time>2016-03-28T10:47:26Z</time>
      </trkpt>
      <trkpt lat="43.63155" lon="6.84092">
        <ele>216</ele>
        <time>2016-03-28T10:47:32Z</time>
      </trkpt>
      <trkpt lat="43.63137" lon="6.84102">
        <ele>217</ele>
        <time>2016-03-28T10:47:38Z</time>
      </trkpt>
      <trkpt lat="43.63116" lon="6.84108">
        <ele>217</ele>
        <time>2016-03-28T10:47:45Z</time>
      </trkpt>
      <trkpt lat="43.63098" lon="6.84104">
        <ele>215</ele>
        <time>2016-03-28T10:47:50Z</time>
      </trkpt>
      <trkpt lat="43.63078" lon="6.84098">
        <ele>212</ele>
        <time>2016-03-28T10:47:56Z</time>
      </trkpt>
      <trkpt lat="43.6306" lon="6.84094">
        <ele>213</ele>
        <time>2016-03-28T10:48:02Z</time>
      </trkpt>
      <trkpt lat="43.63042" lon="6.84099">
        <ele>213</ele>
        <time>2016-03-28T10:48:08Z</time>
      </trkpt>
      <trkpt lat="43.63027" lon="6.84118">
        <ele>215</ele>
        <time>2016-03-28T10:48:14Z</time>
      </trkpt>
      <trkpt lat="43.63016" lon="6.8414">
        <ele>218</ele>
        <time>2016-03-28T10:48:20Z</time>
      </trkpt>
      <trkpt lat="43.62998" lon="6.84151">
        <ele>221</ele>
        <time>2016-03-28T10:48:26Z</time>
      </trkpt>
      <trkpt lat="43.62978" lon="6.84147">
        <ele>220</ele>
        <time>2016-03-28T10:48:33Z</time>
      </trkpt>
      <trkpt lat="43.62991" lon="6.84168">
        <ele>228</ele>
        <time>2016-03-28T10:48:46Z</time>
      </trkpt>
      <trkpt lat="43.63009" lon="6.84183">
        <ele>229</ele>
        <time>2016-03-28T10:48:53Z</time>
      </trkpt>
      <trkpt lat="43.63027" lon="6.84185">
        <ele>231</ele>
        <time>2016-03-28T10:49:00Z</time>
      </trkpt>
      <trkpt lat="43.63043" lon="6.8417">
        <ele>230</ele>
        <time>2016-03-28T10:49:07Z</time>
      </trkpt>
      <trkpt lat="43.63061" lon="6.84163">
        <ele>221</ele>
        <time>2016-03-28T10:49:15Z</time>
      </trkpt>
      <trkpt lat="43.63076" lon="6.84178">
        <ele>230</ele>
        <time>2016-03-28T10:49:22Z</time>
      </trkpt>
      <trkpt lat="43.63089" lon="6.84199">
        <ele>233</ele>
        <time>2016-03-28T10:49:30Z</time>
      </trkpt>
      <trkpt lat="43.63087" lon="6.84224">
        <ele>237</ele>
        <time>2016-03-28T10:49:50Z</time>
      </trkpt>
      <trkpt lat="43.63098" lon="6.84245">
        <ele>238</ele>
        <time>2016-03-28T10:50:38Z</time>
      </trkpt>
      <trkpt lat="43.63083" lon="6.84259">
        <ele>241</ele>
        <time>2016-03-28T10:52:49Z</time>
      </trkpt>
      <trkpt lat="43.63082" lon="6.84284">
        <ele>242</ele>
        <time>2016-03-28T10:53:48Z</time>
      </trkpt>
      <trkpt lat="43.63084" lon="6.8431">
        <ele>244</ele>
        <time>2016-03-28T11:01:08Z</time>
      </trkpt>
      <trkpt lat="43.6307" lon="6.84327">
        <ele>243</ele>
        <time>2016-03-28T11:01:16Z</time>
      </trkpt>
      <trkpt lat="43.63057" lon="6.8435">
        <ele>243</ele>
        <time>2016-03-28T11:01:25Z</time>
      </trkpt>
      <trkpt lat="43.63041" lon="6.84369">
        <ele>243</ele>
        <time>2016-03-28T11:01:30Z</time>
      </trkpt>
      <trkpt lat="43.63037" lon="6.84396">
        <ele>243</ele>
        <time>2016-03-28T11:01:36Z</time>
      </trkpt>
      <trkpt lat="43.63054" lon="6.84418">
        <ele>241</ele>
        <time>2016-03-28T11:01:40Z</time>
      </trkpt>
      <trkpt lat="43.6307" lon="6.84442">
        <ele>240</ele>
        <time>2016-03-28T11:01:43Z</time>
      </trkpt>
      <trkpt lat="43.63088" lon="6.84459">
        <ele>237</ele>
        <time>2016-03-28T11:01:46Z</time>
      </trkpt>
      <trkpt lat="43.63107" lon="6.84461">
        <ele>237</ele>
        <time>2016-03-28T11:01:53Z</time>
      </trkpt>
      <trkpt lat="43.6312" lon="6.84478">
        <ele>237</ele>
        <time>2016-03-28T11:01:57Z</time>
      </trkpt>
      <trkpt lat="43.63136" lon="6.84493">
        <ele>237</ele>
        <time>2016-03-28T11:02:02Z</time>
      </trkpt>
      <trkpt lat="43.63153" lon="6.84509">
        <ele>233</ele>
        <time>2016-03-28T11:02:08Z</time>
      </trkpt>
      <trkpt lat="43.6317" lon="6.84522">
        <ele>235</ele>
        <time>2016-03-28T11:02:13Z</time>
      </trkpt>
      <trkpt lat="43.63186" lon="6.84533">
        <ele>235</ele>
        <time>2016-03-28T11:02:19Z</time>
      </trkpt>
      <trkpt lat="43.63202" lon="6.84545">
        <ele>235</ele>
        <time>2016-03-28T11:02:23Z</time>
      </trkpt>
      <trkpt lat="43.6322" lon="6.84564">
        <ele>236</ele>
        <time>2016-03-28T11:02:29Z</time>
      </trkpt>
      <trkpt lat="43.63234" lon="6.84583">
        <ele>236</ele>
        <time>2016-03-28T11:02:34Z</time>
      </trkpt>
      <trkpt lat="43.63246" lon="6.84605">
        <ele>234</ele>
        <time>2016-03-28T11:02:39Z</time>
      </trkpt>
      <trkpt lat="43.63249" lon="6.84634">
        <ele>234</ele>
        <time>2016-03-28T11:02:44Z</time>
      </trkpt>
      <trkpt lat="43.63236" lon="6.84657">
        <ele>234</ele>
        <time>2016-03-28T11:02:49Z</time>
      </trkpt>
      <trkpt lat="43.63221" lon="6.84674">
        <ele>234</ele>
        <time>2016-03-28T11:02:54Z</time>
      </trkpt>
      <trkpt lat="43.63207" lon="6.84691">
        <ele>233</ele>
        <time>2016-03-28T11:02:59Z</time>
      </trkpt>
      <trkpt lat="43.63194" lon="6.84711">
        <ele>233</ele>
        <time>2016-03-28T11:03:04Z</time>
      </trkpt>
      <trkpt lat="43.63186" lon="6.84736">
        <ele>232</ele>
        <time>2016-03-28T11:03:09Z</time>
      </trkpt>
      <trkpt lat="43.63186" lon="6.84763">
        <ele>232</ele>
        <time>2016-03-28T11:03:14Z</time>
      </trkpt>
      <trkpt lat="43.63193" lon="6.84786">
        <ele>232</ele>
        <time>2016-03-28T11:03:18Z</time>
      </trkpt>
      <trkpt lat="43.63201" lon="6.84813">
        <ele>232</ele>
        <time>2016-03-28T11:03:22Z</time>
      </trkpt>
      <trkpt lat="43.63213" lon="6.84841">
        <ele>231</ele>
        <time>2016-03-28T11:03:27Z</time>
      </trkpt>
      <trkpt lat="43.63223" lon="6.84866">
        <ele>232</ele>
        <time>2016-03-28T11:03:32Z</time>
      </trkpt>
      <trkpt lat="43.63236" lon="6.84885">
        <ele>232</ele>
        <time>2016-03-28T11:03:37Z</time>
      </trkpt>
      <trkpt lat="43.63251" lon="6.84905">
        <ele>235</ele>
        <time>2016-03-28T11:03:41Z</time>
      </trkpt>
      <trkpt lat="43.63267" lon="6.84926">
        <ele>234</ele>
        <time>2016-03-28T11:03:46Z</time>
      </trkpt>
      <trkpt lat="43.63281" lon="6.84947">
        <ele>235</ele>
        <time>2016-03-28T11:03:50Z</time>
      </trkpt>
      <trkpt lat="43.63293" lon="6.84974">
        <ele>236</ele>
        <time>2016-03-28T11:03:54Z</time>
      </trkpt>
      <trkpt lat="43.63302" lon="6.84998">
        <ele>236</ele>
        <time>2016-03-28T11:03:58Z</time>
      </trkpt>
      <trkpt lat="43.63284" lon="6.85001">
        <ele>235</ele>
        <time>2016-03-28T11:04:08Z</time>
      </trkpt>
      <trkpt lat="43.63259" lon="6.84994">
        <ele>233</ele>
        <time>2016-03-28T11:04:12Z</time>
      </trkpt>
      <trkpt lat="43.63236" lon="6.84984">
        <ele>232</ele>
        <time>2016-03-28T11:04:15Z</time>
      </trkpt>
      <trkpt lat="43.63218" lon="6.84964">
        <ele>232</ele>
        <time>2016-03-28T11:04:18Z</time>
      </trkpt>
      <trkpt lat="43.63201" lon="6.84948">
        <ele>232</ele>
        <time>2016-03-28T11:04:21Z</time>
      </trkpt>
      <trkpt lat="43.63187" lon="6.84928">
        <ele>230</ele>
        <time>2016-03-28T11:04:24Z</time>
      </trkpt>
      <trkpt lat="43.6317" lon="6.84909">
        <ele>228</ele>
        <time>2016-03-28T11:04:27Z</time>
      </trkpt>
      <trkpt lat="43.63152" lon="6.84893">
        <ele>227</ele>
        <time>2016-03-28T11:04:31Z</time>
      </trkpt>
      <trkpt lat="43.63135" lon="6.84874">
        <ele>226</ele>
        <time>2016-03-28T11:04:35Z</time>
      </trkpt>
      <trkpt lat="43.63119" lon="6.84861">
        <ele>226</ele>
        <time>2016-03-28T11:04:38Z</time>
      </trkpt>
      <trkpt lat="43.63099" lon="6.84851">
        <ele>224</ele>
        <time>2016-03-28T11:04:41Z</time>
      </trkpt>
      <trkpt lat="43.6308" lon="6.84843">
        <ele>221</ele>
        <time>2016-03-28T11:04:44Z</time>
      </trkpt>
      <trkpt lat="43.63059" lon="6.84839">
        <ele>221</ele>
        <time>2016-03-28T11:04:47Z</time>
      </trkpt>
      <trkpt lat="43.63034" lon="6.84838">
        <ele>220</ele>
        <time>2016-03-28T11:04:50Z</time>
      </trkpt>
      <trkpt lat="43.63012" lon="6.84844">
        <ele>218</ele>
        <time>2016-03-28T11:04:53Z</time>
      </trkpt>
      <trkpt lat="43.6299" lon="6.84851">
        <ele>215</ele>
        <time>2016-03-28T11:04:56Z</time>
      </trkpt>
      <trkpt lat="43.6297" lon="6.84864">
        <ele>215</ele>
        <time>2016-03-28T11:04:59Z</time>
      </trkpt>
      <trkpt lat="43.62955" lon="6.8488">
        <ele>216</ele>
        <time>2016-03-28T11:05:02Z</time>
      </trkpt>
      <trkpt lat="43.62938" lon="6.849">
        <ele>216</ele>
        <time>2016-03-28T11:05:06Z</time>
      </trkpt>
      <trkpt lat="43.62923" lon="6.84923">
        <ele>220</ele>
        <time>2016-03-28T11:05:11Z</time>
      </trkpt>
      <trkpt lat="43.62908" lon="6.84942">
        <ele>217</ele>
        <time>2016-03-28T11:05:15Z</time>
      </trkpt>
      <trkpt lat="43.62893" lon="6.84964">
        <ele>217</ele>
        <time>2016-03-28T11:05:20Z</time>
      </trkpt>
      <trkpt lat="43.62882" lon="6.84986">
        <ele>218</ele>
        <time>2016-03-28T11:05:24Z</time>
      </trkpt>
      <trkpt lat="43.62872" lon="6.85011">
        <ele>225</ele>
        <time>2016-03-28T11:05:28Z</time>
      </trkpt>
      <trkpt lat="43.62865" lon="6.85036">
        <ele>227</ele>
        <time>2016-03-28T11:05:33Z</time>
      </trkpt>
      <trkpt lat="43.62854" lon="6.85057">
        <ele>227</ele>
        <time>2016-03-28T11:05:40Z</time>
      </trkpt>
      <trkpt lat="43.62844" lon="6.85078">
        <ele>226</ele>
        <time>2016-03-28T11:05:45Z</time>
      </trkpt>
      <trkpt lat="43.62835" lon="6.85105">
        <ele>236</ele>
        <time>2016-03-28T11:05:51Z</time>
      </trkpt>
      <trkpt lat="43.6283" lon="6.85133">
        <ele>224</ele>
        <time>2016-03-28T11:05:56Z</time>
      </trkpt>
      <trkpt lat="43.62823" lon="6.8516">
        <ele>230</ele>
        <time>2016-03-28T11:06:03Z</time>
      </trkpt>
      <trkpt lat="43.62813" lon="6.85185">
        <ele>232</ele>
        <time>2016-03-28T11:06:10Z</time>
      </trkpt>
      <trkpt lat="43.62813" lon="6.85213">
        <ele>233</ele>
        <time>2016-03-28T11:06:17Z</time>
      </trkpt>
      <trkpt lat="43.62813" lon="6.85239">
        <ele>236</ele>
        <time>2016-03-28T11:06:23Z</time>
      </trkpt>
      <trkpt lat="43.62807" lon="6.85267">
        <ele>241</ele>
        <time>2016-03-28T11:06:31Z</time>
      </trkpt>
      <trkpt lat="43.62807" lon="6.85294">
        <ele>242</ele>
        <time>2016-03-28T11:06:37Z</time>
      </trkpt>
      <trkpt lat="43.62803" lon="6.85319">
        <ele>243</ele>
        <time>2016-03-28T11:06:42Z</time>
      </trkpt>
      <trkpt lat="43.62788" lon="6.8534">
        <ele>249</ele>
        <time>2016-03-28T11:06:50Z</time>
      </trkpt>
      <trkpt lat="43.6277" lon="6.85346">
        <ele>245</ele>
        <time>2016-03-28T11:06:54Z</time>
      </trkpt>
      <trkpt lat="43.62754" lon="6.85361">
        <ele>246</ele>
        <time>2016-03-28T11:06:58Z</time>
      </trkpt>
      <trkpt lat="43.6274" lon="6.85378">
        <ele>237</ele>
        <time>2016-03-28T11:07:01Z</time>
      </trkpt>
      <trkpt lat="43.62723" lon="6.85395">
        <ele>238</ele>
        <time>2016-03-28T11:07:05Z</time>
      </trkpt>
      <trkpt lat="43.62706" lon="6.85411">
        <ele>237</ele>
        <time>2016-03-28T11:07:10Z</time>
      </trkpt>
      <trkpt lat="43.62692" lon="6.85428">
        <ele>245</ele>
        <time>2016-03-28T11:07:16Z</time>
      </trkpt>
      <trkpt lat="43.62675" lon="6.85446">
        <ele>245</ele>
        <time>2016-03-28T11:07:21Z</time>
      </trkpt>
      <trkpt lat="43.62661" lon="6.85464">
        <ele>236</ele>
        <time>2016-03-28T11:07:25Z</time>
      </trkpt>
      <trkpt lat="43.62645" lon="6.85479">
        <ele>237</ele>
        <time>2016-03-28T11:07:30Z</time>
      </trkpt>
      <trkpt lat="43.62633" lon="6.85503">
        <ele>240</ele>
        <time>2016-03-28T11:07:36Z</time>
      </trkpt>
      <trkpt lat="43.62624" lon="6.85528">
        <ele>240</ele>
        <time>2016-03-28T11:07:42Z</time>
      </trkpt>
      <trkpt lat="43.62614" lon="6.8555">
        <ele>239</ele>
        <time>2016-03-28T11:07:50Z</time>
      </trkpt>
      <trkpt lat="43.62613" lon="6.8558">
        <ele>238</ele>
        <time>2016-03-28T11:07:54Z</time>
      </trkpt>
      <trkpt lat="43.62604" lon="6.85606">
        <ele>239</ele>
        <time>2016-03-28T11:07:58Z</time>
      </trkpt>
      <trkpt lat="43.62599" lon="6.85636">
        <ele>238</ele>
        <time>2016-03-28T11:08:02Z</time>
      </trkpt>
      <trkpt lat="43.62596" lon="6.85663">
        <ele>234</ele>
        <time>2016-03-28T11:08:05Z</time>
      </trkpt>
      <trkpt lat="43.62591" lon="6.85697">
        <ele>235</ele>
        <time>2016-03-28T11:08:08Z</time>
      </trkpt>
      <trkpt lat="43.62597" lon="6.85728">
        <ele>234</ele>
        <time>2016-03-28T11:08:11Z</time>
      </trkpt>
      <trkpt lat="43.62588" lon="6.85753">
        <ele>224</ele>
        <time>2016-03-28T11:08:14Z</time>
      </trkpt>
      <trkpt lat="43.62586" lon="6.85788">
        <ele>228</ele>
        <time>2016-03-28T11:08:17Z</time>
      </trkpt>
      <trkpt lat="43.62586" lon="6.85816">
        <ele>225</ele>
        <time>2016-03-28T11:08:19Z</time>
      </trkpt>
      <trkpt lat="43.62588" lon="6.85842">
        <ele>219</ele>
        <time>2016-03-28T11:08:21Z</time>
      </trkpt>
      <trkpt lat="43.62594" lon="6.85875">
        <ele>220</ele>
        <time>2016-03-28T11:08:24Z</time>
      </trkpt>
      <trkpt lat="43.626" lon="6.85908">
        <ele>217</ele>
        <time>2016-03-28T11:08:27Z</time>
      </trkpt>
      <trkpt lat="43.62612" lon="6.85937">
        <ele>215</ele>
        <time>2016-03-28T11:08:30Z</time>
      </trkpt>
      <trkpt lat="43.62627" lon="6.85961">
        <ele>216</ele>
        <time>2016-03-28T11:08:33Z</time>
      </trkpt>
      <trkpt lat="43.62641" lon="6.85981">
        <ele>216</ele>
        <time>2016-03-28T11:08:37Z</time>
      </trkpt>
      <trkpt lat="43.62652" lon="6.86005">
        <ele>216</ele>
        <time>2016-03-28T11:08:41Z</time>
      </trkpt>
      <trkpt lat="43.62665" lon="6.86027">
        <ele>216</ele>
        <time>2016-03-28T11:08:45Z</time>
      </trkpt>
      <trkpt lat="43.62681" lon="6.86046">
        <ele>221</ele>
        <time>2016-03-28T11:08:49Z</time>
      </trkpt>
      <trkpt lat="43.62692" lon="6.86066">
        <ele>221</ele>
        <time>2016-03-28T11:08:53Z</time>
      </trkpt>
      <trkpt lat="43.62677" lon="6.86085">
        <ele>218</ele>
        <time>2016-03-28T11:08:58Z</time>
      </trkpt>
      <trkpt lat="43.62665" lon="6.86104">
        <ele>218</ele>
        <time>2016-03-28T11:09:01Z</time>
      </trkpt>
      <trkpt lat="43.62656" lon="6.86127">
        <ele>219</ele>
        <time>2016-03-28T11:09:04Z</time>
      </trkpt>
      <trkpt lat="43.62647" lon="6.8615">
        <ele>220</ele>
        <time>2016-03-28T11:09:10Z</time>
      </trkpt>
      <trkpt lat="43.62626" lon="6.86148">
        <ele>219</ele>
        <time>2016-03-28T11:09:18Z</time>
      </trkpt>
      <trkpt lat="43.62607" lon="6.86152">
        <ele>219</ele>
        <time>2016-03-28T11:09:22Z</time>
      </trkpt>
      <trkpt lat="43.62586" lon="6.86158">
        <ele>220</ele>
        <time>2016-03-28T11:09:27Z</time>
      </trkpt>
      <trkpt lat="43.62569" lon="6.86167">
        <ele>222</ele>
        <time>2016-03-28T11:09:31Z</time>
      </trkpt>
      <trkpt lat="43.6255" lon="6.86177">
        <ele>222</ele>
        <time>2016-03-28T11:09:35Z</time>
      </trkpt>
      <trkpt lat="43.62532" lon="6.86182">
        <ele>221</ele>
        <time>2016-03-28T11:09:39Z</time>
      </trkpt>
      <trkpt lat="43.62514" lon="6.86194">
        <ele>221</ele>
        <time>2016-03-28T11:09:43Z</time>
      </trkpt>
      <trkpt lat="43.62494" lon="6.86218">
        <ele>216</ele>
        <time>2016-03-28T11:09:47Z</time>
      </trkpt>
      <trkpt lat="43.62481" lon="6.86251">
        <ele>218</ele>
        <time>2016-03-28T11:09:50Z</time>
      </trkpt>
      <trkpt lat="43.62475" lon="6.86275">
        <ele>217</ele>
        <time>2016-03-28T11:09:52Z</time>
      </trkpt>
      <trkpt lat="43.62454" lon="6.86286">
        <ele>217</ele>
        <time>2016-03-28T11:09:55Z</time>
      </trkpt>
      <trkpt lat="43.62439" lon="6.86271">
        <ele>216</ele>
        <time>2016-03-28T11:09:59Z</time>
      </trkpt>
      <trkpt lat="43.6242" lon="6.8626">
        <ele>213</ele>
        <time>2016-03-28T11:10:02Z</time>
      </trkpt>
      <trkpt lat="43.62402" lon="6.86247">
        <ele>210</ele>
        <time>2016-03-28T11:10:05Z</time>
      </trkpt>
      <trkpt lat="43.62384" lon="6.8623">
        <ele>209</ele>
        <time>2016-03-28T11:10:08Z</time>
      </trkpt>
      <trkpt lat="43.62367" lon="6.86222">
        <ele>209</ele>
        <time>2016-03-28T11:10:11Z</time>
      </trkpt>
      <trkpt lat="43.62362" lon="6.86198">
        <ele>209</ele>
        <time>2016-03-28T11:10:14Z</time>
      </trkpt>
      <trkpt lat="43.62357" lon="6.8617">
        <ele>208</ele>
        <time>2016-03-28T11:10:17Z</time>
      </trkpt>
      <trkpt lat="43.62345" lon="6.86143">
        <ele>206</ele>
        <time>2016-03-28T11:10:21Z</time>
      </trkpt>
      <trkpt lat="43.62335" lon="6.86123">
        <ele>205</ele>
        <time>2016-03-28T11:10:24Z</time>
      </trkpt>
      <trkpt lat="43.62321" lon="6.86098">
        <ele>208</ele>
        <time>2016-03-28T11:10:28Z</time>
      </trkpt>
      <trkpt lat="43.62306" lon="6.86081">
        <ele>205</ele>
        <time>2016-03-28T11:10:32Z</time>
      </trkpt>
      <trkpt lat="43.62285" lon="6.8607">
        <ele>206</ele>
        <time>2016-03-28T11:10:37Z</time>
      </trkpt>
      <trkpt lat="43.62266" lon="6.86062">
        <ele>207</ele>
        <time>2016-03-28T11:10:43Z</time>
      </trkpt>
      <trkpt lat="43.62247" lon="6.86065">
        <ele>211</ele>
        <time>2016-03-28T11:10:48Z</time>
      </trkpt>
      <trkpt lat="43.62229" lon="6.86068">
        <ele>211</ele>
        <time>2016-03-28T11:10:56Z</time>
      </trkpt>
      <trkpt lat="43.62209" lon="6.86072">
        <ele>211</ele>
        <time>2016-03-28T11:11:04Z</time>
      </trkpt>
      <trkpt lat="43.62192" lon="6.86082">
        <ele>212</ele>
        <time>2016-03-28T11:11:12Z</time>
      </trkpt>
      <trkpt lat="43.62175" lon="6.86096">
        <ele>218</ele>
        <time>2016-03-28T11:11:21Z</time>
      </trkpt>
      <trkpt lat="43.62163" lon="6.86118">
        <ele>222</ele>
        <time>2016-03-28T11:11:29Z</time>
      </trkpt>
      <trkpt lat="43.62147" lon="6.86132">
        <ele>224</ele>
        <time>2016-03-28T11:11:36Z</time>
      </trkpt>
      <trkpt lat="43.62127" lon="6.86131">
        <ele>224</ele>
        <time>2016-03-28T11:11:46Z</time>
      </trkpt>
      <trkpt lat="43.62107" lon="6.86127">
        <ele>223</ele>
        <time>2016-03-28T11:11:52Z</time>
      </trkpt>
      <trkpt lat="43.62088" lon="6.86126">
        <ele>223</ele>
        <time>2016-03-28T11:11:57Z</time>
      </trkpt>
      <trkpt lat="43.62067" lon="6.86128">
        <ele>224</ele>
        <time>2016-03-28T11:12:03Z</time>
      </trkpt>
      <trkpt lat="43.6205" lon="6.86119">
        <ele>224</ele>
        <time>2016-03-28T11:12:08Z</time>
      </trkpt>
      <trkpt lat="43.62034" lon="6.86104">
        <ele>224</ele>
        <time>2016-03-28T11:12:12Z</time>
      </trkpt>
      <trkpt lat="43.62018" lon="6.86088">
        <ele>223</ele>
        <time>2016-03-28T11:12:17Z</time>
      </trkpt>
      <trkpt lat="43.61999" lon="6.86099">
        <ele>222</ele>
        <time>2016-03-28T11:12:23Z</time>
      </trkpt>
      <trkpt lat="43.61988" lon="6.86119">
        <ele>222</ele>
        <time>2016-03-28T11:12:29Z</time>
      </trkpt>
      <trkpt lat="43.61984" lon="6.86144">
        <ele>223</ele>
        <time>2016-03-28T11:12:35Z</time>
      </trkpt>
      <trkpt lat="43.61978" lon="6.86171">
        <ele>226</ele>
        <time>2016-03-28T11:12:42Z</time>
      </trkpt>
      <trkpt lat="43.61966" lon="6.86194">
        <ele>226</ele>
        <time>2016-03-28T11:12:49Z</time>
      </trkpt>
      <trkpt lat="43.61956" lon="6.86218">
        <ele>226</ele>
        <time>2016-03-28T11:12:55Z</time>
      </trkpt>
      <trkpt lat="43.6195" lon="6.86242">
        <ele>225</ele>
        <time>2016-03-28T11:13:01Z</time>
      </trkpt>
      <trkpt lat="43.61957" lon="6.86267">
        <ele>232</ele>
        <time>2016-03-28T11:13:08Z</time>
      </trkpt>
      <trkpt lat="43.61957" lon="6.86294">
        <ele>234</ele>
        <time>2016-03-28T11:13:14Z</time>
      </trkpt>
      <trkpt lat="43.61948" lon="6.86318">
        <ele>234</ele>
        <time>2016-03-28T11:13:20Z</time>
      </trkpt>
      <trkpt lat="43.61943" lon="6.86345">
        <ele>239</ele>
        <time>2016-03-28T11:13:28Z</time>
      </trkpt>
      <trkpt lat="43.61932" lon="6.86365">
        <ele>239</ele>
        <time>2016-03-28T11:13:37Z</time>
      </trkpt>
      <trkpt lat="43.61921" lon="6.86386">
        <ele>241</ele>
        <time>2016-03-28T11:13:47Z</time>
      </trkpt>
      <trkpt lat="43.61913" lon="6.86411">
        <ele>239</ele>
        <time>2016-03-28T11:13:53Z</time>
      </trkpt>
      <trkpt lat="43.61911" lon="6.86437">
        <ele>241</ele>
        <time>2016-03-28T11:13:59Z</time>
      </trkpt>
      <trkpt lat="43.61904" lon="6.86463">
        <ele>241</ele>
        <time>2016-03-28T11:14:06Z</time>
      </trkpt>
      <trkpt lat="43.619" lon="6.8649">
        <ele>241</ele>
        <time>2016-03-28T11:14:12Z</time>
      </trkpt>
      <trkpt lat="43.61903" lon="6.86516">
        <ele>242</ele>
        <time>2016-03-28T11:14:18Z</time>
      </trkpt>
      <trkpt lat="43.61909" lon="6.8654">
        <ele>242</ele>
        <time>2016-03-28T11:14:30Z</time>
      </trkpt>
      <trkpt lat="43.61922" lon="6.86562">
        <ele>242</ele>
        <time>2016-03-28T11:14:38Z</time>
      </trkpt>
      <trkpt lat="43.61939" lon="6.86573">
        <ele>242</ele>
        <time>2016-03-28T11:14:46Z</time>
      </trkpt>
      <trkpt lat="43.61958" lon="6.86568">
        <ele>242</ele>
        <time>2016-03-28T11:14:53Z</time>
      </trkpt>
      <trkpt lat="43.61976" lon="6.86562">
        <ele>243</ele>
        <time>2016-03-28T11:14:59Z</time>
      </trkpt>
      <trkpt lat="43.61993" lon="6.86575">
        <ele>242</ele>
        <time>2016-03-28T11:15:07Z</time>
      </trkpt>
      <trkpt lat="43.62008" lon="6.86588">
        <ele>243</ele>
        <time>2016-03-28T11:15:14Z</time>
      </trkpt>
      <trkpt lat="43.62011" lon="6.86615">
        <ele>243</ele>
        <time>2016-03-28T11:15:23Z</time>
      </trkpt>
      <trkpt lat="43.62002" lon="6.8664">
        <ele>243</ele>
        <time>2016-03-28T11:15:32Z</time>
      </trkpt>
      <trkpt lat="43.61991" lon="6.86663">
        <ele>241</ele>
        <time>2016-03-28T11:15:41Z</time>
      </trkpt>
      <trkpt lat="43.6198" lon="6.86684">
        <ele>242</ele>
        <time>2016-03-28T11:15:49Z</time>
      </trkpt>
      <trkpt lat="43.61974" lon="6.86708">
        <ele>242</ele>
        <time>2016-03-28T11:15:57Z</time>
      </trkpt>
      <trkpt lat="43.61965" lon="6.86732">
        <ele>243</ele>
        <time>2016-03-28T11:16:05Z</time>
      </trkpt>
      <trkpt lat="43.61955" lon="6.86755">
        <ele>246</ele>
        <time>2016-03-28T11:16:12Z</time>
      </trkpt>
      <trkpt lat="43.61947" lon="6.86777">
        <ele>246</ele>
        <time>2016-03-28T11:16:16Z</time>
      </trkpt>
      <trkpt lat="43.61941" lon="6.86801">
        <ele>247</ele>
        <time>2016-03-28T11:16:20Z</time>
      </trkpt>
      <trkpt lat="43.61933" lon="6.86824">
        <ele>247</ele>
        <time>2016-03-28T11:16:24Z</time>
      </trkpt>
      <trkpt lat="43.61924" lon="6.86847">
        <ele>250</ele>
        <time>2016-03-28T11:16:29Z</time>
      </trkpt>
      <trkpt lat="43.61913" lon="6.86872">
        <ele>248</ele>
        <time>2016-03-28T11:16:35Z</time>
      </trkpt>
      <trkpt lat="43.61904" lon="6.86896">
        <ele>249</ele>
        <time>2016-03-28T11:16:40Z</time>
      </trkpt>
      <trkpt lat="43.61897" lon="6.86922">
        <ele>253</ele>
        <time>2016-03-28T11:16:46Z</time>
      </trkpt>
      <trkpt lat="43.61887" lon="6.86949">
        <ele>253</ele>
        <time>2016-03-28T11:16:52Z</time>
      </trkpt>
      <trkpt lat="43.61881" lon="6.86976">
        <ele>254</ele>
        <time>2016-03-28T11:16:59Z</time>
      </trkpt>
      <trkpt lat="43.61882" lon="6.87001">
        <ele>258</ele>
        <time>2016-03-28T11:17:06Z</time>
      </trkpt>
      <trkpt lat="43.61885" lon="6.87026">
        <ele>259</ele>
        <time>2016-03-28T11:17:18Z</time>
      </trkpt>
      <trkpt lat="43.61887" lon="6.87052">
        <ele>259</ele>
        <time>2016-03-28T11:17:26Z</time>
      </trkpt>
      <trkpt lat="43.61898" lon="6.87073">
        <ele>260</ele>
        <time>2016-03-28T11:17:46Z</time>
      </trkpt>
      <trkpt lat="43.61915" lon="6.87085">
        <ele>260</ele>
        <time>2016-03-28T11:17:54Z</time>
      </trkpt>
      <trkpt lat="43.6193" lon="6.87099">
        <ele>258</ele>
        <time>2016-03-28T11:20:04Z</time>
      </trkpt>
      <trkpt lat="43.61949" lon="6.87097">
        <ele>258</ele>
        <time>2016-03-28T11:22:49Z</time>
      </trkpt>
      <trkpt lat="43.61968" lon="6.87095">
        <ele>258</ele>
        <time>2016-03-28T11:22:56Z</time>
      </trkpt>
      <trkpt lat="43.61988" lon="6.8709">
        <ele>260</ele>
        <time>2016-03-28T11:23:03Z</time>
      </trkpt>
      <trkpt lat="43.6201" lon="6.87089">
        <ele>261</ele>
        <time>2016-03-28T11:23:09Z</time>
      </trkpt>
      <trkpt lat="43.62027" lon="6.87092">
        <ele>259</ele>
        <time>2016-03-28T11:23:14Z</time>
      </trkpt>
      <trkpt lat="43.62042" lon="6.87109">
        <ele>258</ele>
        <time>2016-03-28T11:23:20Z</time>
      </trkpt>
      <trkpt lat="43.62056" lon="6.87126">
        <ele>257</ele>
        <time>2016-03-28T11:23:28Z</time>
      </trkpt>
      <trkpt lat="43.62073" lon="6.87147">
        <ele>256</ele>
        <time>2016-03-28T11:23:32Z</time>
      </trkpt>
      <trkpt lat="43.62086" lon="6.87166">
        <ele>256</ele>
        <time>2016-03-28T11:23:36Z</time>
      </trkpt>
      <trkpt lat="43.62073" lon="6.87192">
        <ele>252</ele>
        <time>2016-03-28T11:23:42Z</time>
      </trkpt>
      <trkpt lat="43.62072" lon="6.87218">
        <ele>252</ele>
        <time>2016-03-28T11:23:45Z</time>
      </trkpt>
      <trkpt lat="43.62074" lon="6.87243">
        <ele>253</ele>
        <time>2016-03-28T11:23:50Z</time>
      </trkpt>
      <trkpt lat="43.62075" lon="6.87269">
        <ele>249</ele>
        <time>2016-03-28T11:23:56Z</time>
      </trkpt>
      <trkpt lat="43.62073" lon="6.87297">
        <ele>247</ele>
        <time>2016-03-28T11:24:02Z</time>
      </trkpt>
      <trkpt lat="43.62078" lon="6.87322">
        <ele>248</ele>
        <time>2016-03-28T11:24:07Z</time>
      </trkpt>
      <trkpt lat="43.62087" lon="6.87344">
        <ele>252</ele>
        <time>2016-03-28T11:24:11Z</time>
      </trkpt>
      <trkpt lat="43.621" lon="6.87369">
        <ele>253</ele>
        <time>2016-03-28T11:24:15Z</time>
      </trkpt>
      <trkpt lat="43.62112" lon="6.87391">
        <ele>252</ele>
        <time>2016-03-28T11:24:19Z</time>
      </trkpt>
      <trkpt lat="43.62125" lon="6.87409">
        <ele>253</ele>
        <time>2016-03-28T11:24:24Z</time>
      </trkpt>
      <trkpt lat="43.62139" lon="6.87427">
        <ele>252</ele>
        <time>2016-03-28T11:24:30Z</time>
      </trkpt>
      <trkpt lat="43.62155" lon="6.87446">
        <ele>252</ele>
        <time>2016-03-28T11:24:36Z</time>
      </trkpt>
      <trkpt lat="43.62171" lon="6.87464">
        <ele>257</ele>
        <time>2016-03-28T11:24:42Z</time>
      </trkpt>
      <trkpt lat="43.62186" lon="6.87478">
        <ele>256</ele>
        <time>2016-03-28T11:24:48Z</time>
      </trkpt>
      <trkpt lat="43.62204" lon="6.8749">
        <ele>257</ele>
        <time>2016-03-28T11:24:55Z</time>
      </trkpt>
      <trkpt lat="43.62222" lon="6.87499">
        <ele>258</ele>
        <time>2016-03-28T11:25:05Z</time>
      </trkpt>
      <trkpt lat="43.62238" lon="6.87512">
        <ele>259</ele>
        <time>2016-03-28T11:25:14Z</time>
      </trkpt>
      <trkpt lat="43.62259" lon="6.8752">
        <ele>260</ele>
        <time>2016-03-28T11:25:20Z</time>
      </trkpt>
      <trkpt lat="43.62277" lon="6.87526">
        <ele>260</ele>
        <time>2016-03-28T11:25:26Z</time>
      </trkpt>
      <trkpt lat="43.62297" lon="6.87529">
        <ele>260</ele>
        <time>2016-03-28T11:25:32Z</time>
      </trkpt>
      <trkpt lat="43.62307" lon="6.87505">
        <ele>260</ele>
        <time>2016-03-28T11:25:38Z</time>
      </trkpt>
      <trkpt lat="43.62327" lon="6.87505">
        <ele>259</ele>
        <time>2016-03-28T11:25:44Z</time>
      </trkpt>
      <trkpt lat="43.62347" lon="6.87512">
        <ele>261</ele>
        <time>2016-03-28T11:25:49Z</time>
      </trkpt>
      <trkpt lat="43.62363" lon="6.87526">
        <ele>262</ele>
        <time>2016-03-28T11:25:54Z</time>
      </trkpt>
      <trkpt lat="43.62381" lon="6.87538">
        <ele>262</ele>
        <time>2016-03-28T11:25:59Z</time>
      </trkpt>
      <trkpt lat="43.62398" lon="6.87544">
        <ele>263</ele>
        <time>2016-03-28T11:26:04Z</time>
      </trkpt>
      <trkpt lat="43.62416" lon="6.87546">
        <ele>263</ele>
        <time>2016-03-28T11:26:09Z</time>
      </trkpt>
      <trkpt lat="43.62436" lon="6.87549">
        <ele>264</ele>
        <time>2016-03-28T11:26:15Z</time>
      </trkpt>
      <trkpt lat="43.62446" lon="6.8757">
        <ele>265</ele>
        <time>2016-03-28T11:26:23Z</time>
      </trkpt>
      <trkpt lat="43.62465" lon="6.87579">
        <ele>264</ele>
        <time>2016-03-28T11:26:30Z</time>
      </trkpt>
      <trkpt lat="43.62485" lon="6.87588">
        <ele>266</ele>
        <time>2016-03-28T11:26:36Z</time>
      </trkpt>
      <trkpt lat="43.62502" lon="6.87603">
        <ele>265</ele>
        <time>2016-03-28T11:26:45Z</time>
      </trkpt>
      <trkpt lat="43.62517" lon="6.87619">
        <ele>265</ele>
        <time>2016-03-28T11:26:54Z</time>
      </trkpt>
      <trkpt lat="43.62532" lon="6.87635">
        <ele>265</ele>
        <time>2016-03-28T11:27:01Z</time>
      </trkpt>
      <trkpt lat="43.62545" lon="6.87652">
        <ele>265</ele>
        <time>2016-03-28T11:27:09Z</time>
      </trkpt>
      <trkpt lat="43.6256" lon="6.87669">
        <ele>265</ele>
        <time>2016-03-28T11:27:16Z</time>
      </trkpt>
      <trkpt lat="43.62576" lon="6.87682">
        <ele>265</ele>
        <time>2016-03-28T11:27:23Z</time>
      </trkpt>
      <trkpt lat="43.62566" lon="6.87705">
        <ele>265</ele>
        <time>2016-03-28T11:27:35Z</time>
      </trkpt>
      <trkpt lat="43.62553" lon="6.87728">
        <ele>265</ele>
        <time>2016-03-28T11:27:40Z</time>
      </trkpt>
      <trkpt lat="43.62542" lon="6.8775">
        <ele>265</ele>
        <time>2016-03-28T11:27:45Z</time>
      </trkpt>
      <trkpt lat="43.62532" lon="6.87774">
        <ele>265</ele>
        <time>2016-03-28T11:27:50Z</time>
      </trkpt>
      <trkpt lat="43.62522" lon="6.87799">
        <ele>265</ele>
        <time>2016-03-28T11:27:55Z</time>
      </trkpt>
      <trkpt lat="43.62513" lon="6.87824">
        <ele>267</ele>
        <time>2016-03-28T11:28:00Z</time>
      </trkpt>
      <trkpt lat="43.62506" lon="6.87849">
        <ele>266</ele>
        <time>2016-03-28T11:28:04Z</time>
      </trkpt>
      <trkpt lat="43.62498" lon="6.87874">
        <ele>272</ele>
        <time>2016-03-28T11:28:08Z</time>
      </trkpt>
      <trkpt lat="43.62492" lon="6.87901">
        <ele>271</ele>
        <time>2016-03-28T11:28:12Z</time>
      </trkpt>
      <trkpt lat="43.62489" lon="6.87932">
        <ele>271</ele>
        <time>2016-03-28T11:28:16Z</time>
      </trkpt>
      <trkpt lat="43.62489" lon="6.87958">
        <ele>272</ele>
        <time>2016-03-28T11:28:19Z</time>
      </trkpt>
      <trkpt lat="43.62487" lon="6.87986">
        <ele>271</ele>
        <time>2016-03-28T11:28:22Z</time>
      </trkpt>
      <trkpt lat="43.62484" lon="6.88019">
        <ele>272</ele>
        <time>2016-03-28T11:28:26Z</time>
      </trkpt>
      <trkpt lat="43.62482" lon="6.88052">
        <ele>272</ele>
        <time>2016-03-28T11:28:30Z</time>
      </trkpt>
      <trkpt lat="43.6248" lon="6.8808">
        <ele>272</ele>
        <time>2016-03-28T11:28:33Z</time>
      </trkpt>
      <trkpt lat="43.62477" lon="6.88109">
        <ele>271</ele>
        <time>2016-03-28T11:28:37Z</time>
      </trkpt>
      <trkpt lat="43.62472" lon="6.88138">
        <ele>271</ele>
        <time>2016-03-28T11:28:41Z</time>
      </trkpt>
      <trkpt lat="43.62466" lon="6.88163">
        <ele>271</ele>
        <time>2016-03-28T11:28:44Z</time>
      </trkpt>
      <trkpt lat="43.62458" lon="6.88192">
        <ele>269</ele>
        <time>2016-03-28T11:28:48Z</time>
      </trkpt>
      <trkpt lat="43.62454" lon="6.88216">
        <ele>269</ele>
        <time>2016-03-28T11:28:51Z</time>
      </trkpt>
      <trkpt lat="43.62455" lon="6.88242">
        <ele>269</ele>
        <time>2016-03-28T11:28:54Z</time>
      </trkpt>
      <trkpt lat="43.62459" lon="6.88269">
        <ele>267</ele>
        <time>2016-03-28T11:28:57Z</time>
      </trkpt>
      <trkpt lat="43.62462" lon="6.88295">
        <ele>267</ele>
        <time>2016-03-28T11:29:00Z</time>
      </trkpt>
      <trkpt lat="43.62464" lon="6.88322">
        <ele>267</ele>
        <time>2016-03-28T11:29:03Z</time>
      </trkpt>
      <trkpt lat="43.62473" lon="6.8835">
        <ele>264</ele>
        <time>2016-03-28T11:29:06Z</time>
      </trkpt>
      <trkpt lat="43.62477" lon="6.88377">
        <ele>263</ele>
        <time>2016-03-28T11:29:09Z</time>
      </trkpt>
      <trkpt lat="43.62486" lon="6.88406">
        <ele>263</ele>
        <time>2016-03-28T11:29:12Z</time>
      </trkpt>
      <trkpt lat="43.62488" lon="6.88435">
        <ele>260</ele>
        <time>2016-03-28T11:29:15Z</time>
      </trkpt>
      <trkpt lat="43.62485" lon="6.88468">
        <ele>259</ele>
        <time>2016-03-28T11:29:18Z</time>
      </trkpt>
      <trkpt lat="43.62486" lon="6.88501">
        <ele>259</ele>
        <time>2016-03-28T11:29:21Z</time>
      </trkpt>
      <trkpt lat="43.6249" lon="6.88533">
        <ele>259</ele>
        <time>2016-03-28T11:29:24Z</time>
      </trkpt>
      <trkpt lat="43.62497" lon="6.88565">
        <ele>260</ele>
        <time>2016-03-28T11:29:27Z</time>
      </trkpt>
      <trkpt lat="43.62497" lon="6.88596">
        <ele>261</ele>
        <time>2016-03-28T11:29:30Z</time>
      </trkpt>
      <trkpt lat="43.62504" lon="6.88626">
        <ele>258</ele>
        <time>2016-03-28T11:29:33Z</time>
      </trkpt>
      <trkpt lat="43.62509" lon="6.88653">
        <ele>259</ele>
        <time>2016-03-28T11:29:36Z</time>
      </trkpt>
      <trkpt lat="43.62509" lon="6.88678">
        <ele>260</ele>
        <time>2016-03-28T11:29:39Z</time>
      </trkpt>
      <trkpt lat="43.62491" lon="6.88688">
        <ele>262</ele>
        <time>2016-03-28T11:29:44Z</time>
      </trkpt>
      <trkpt lat="43.62477" lon="6.88712">
        <ele>262</ele>
        <time>2016-03-28T11:30:02Z</time>
      </trkpt>
      <trkpt lat="43.62478" lon="6.88741">
        <ele>262</ele>
        <time>2016-03-28T11:30:07Z</time>
      </trkpt>
      <trkpt lat="43.62457" lon="6.88752">
        <ele>264</ele>
        <time>2016-03-28T11:30:12Z</time>
      </trkpt>
      <trkpt lat="43.62438" lon="6.88754">
        <ele>264</ele>
        <time>2016-03-28T11:30:16Z</time>
      </trkpt>
      <trkpt lat="43.62437" lon="6.88783">
        <ele>264</ele>
        <time>2016-03-28T11:30:21Z</time>
      </trkpt>
      <trkpt lat="43.62437" lon="6.88812">
        <ele>265</ele>
        <time>2016-03-28T11:30:25Z</time>
      </trkpt>
      <trkpt lat="43.62433" lon="6.88838">
        <ele>266</ele>
        <time>2016-03-28T11:30:29Z</time>
      </trkpt>
      <trkpt lat="43.62426" lon="6.88861">
        <ele>266</ele>
        <time>2016-03-28T11:30:33Z</time>
      </trkpt>
      <trkpt lat="43.62415" lon="6.88883">
        <ele>267</ele>
        <time>2016-03-28T11:30:37Z</time>
      </trkpt>
      <trkpt lat="43.62404" lon="6.88905">
        <ele>267</ele>
        <time>2016-03-28T11:30:41Z</time>
      </trkpt>
      <trkpt lat="43.62389" lon="6.88923">
        <ele>267</ele>
        <time>2016-03-28T11:30:45Z</time>
      </trkpt>
      <trkpt lat="43.62373" lon="6.88935">
        <ele>266</ele>
        <time>2016-03-28T11:30:49Z</time>
      </trkpt>
      <trkpt lat="43.62363" lon="6.88956">
        <ele>266</ele>
        <time>2016-03-28T11:30:53Z</time>
      </trkpt>
      <trkpt lat="43.62356" lon="6.88982">
        <ele>265</ele>
        <time>2016-03-28T11:30:58Z</time>
      </trkpt>
      <trkpt lat="43.6235" lon="6.89005">
        <ele>263</ele>
        <time>2016-03-28T11:31:04Z</time>
      </trkpt>
      <trkpt lat="43.62336" lon="6.89024">
        <ele>263</ele>
        <time>2016-03-28T11:31:15Z</time>
      </trkpt>
      <trkpt lat="43.62321" lon="6.89046">
        <ele>265</ele>
        <time>2016-03-28T11:31:26Z</time>
      </trkpt>
      <trkpt lat="43.62334" lon="6.89068">
        <ele>261</ele>
        <time>2016-03-28T11:31:32Z</time>
      </trkpt>
      <trkpt lat="43.62339" lon="6.89094">
        <ele>258</ele>
        <time>2016-03-28T11:31:37Z</time>
      </trkpt>
      <trkpt lat="43.62352" lon="6.89113">
        <ele>256</ele>
        <time>2016-03-28T11:31:41Z</time>
      </trkpt>
      <trkpt lat="43.62345" lon="6.89138">
        <ele>255</ele>
        <time>2016-03-28T11:31:47Z</time>
      </trkpt>
      <trkpt lat="43.62337" lon="6.89163">
        <ele>253</ele>
        <time>2016-03-28T11:31:54Z</time>
      </trkpt>
      <trkpt lat="43.62337" lon="6.89191">
        <ele>248</ele>
        <time>2016-03-28T11:32:06Z</time>
      </trkpt>
      <trkpt lat="43.62322" lon="6.89211">
        <ele>249</ele>
        <time>2016-03-28T11:32:12Z</time>
      </trkpt>
      <trkpt lat="43.623" lon="6.89222">
        <ele>249</ele>
        <time>2016-03-28T11:32:16Z</time>
      </trkpt>
      <trkpt lat="43.6228" lon="6.89234">
        <ele>250</ele>
        <time>2016-03-28T11:32:21Z</time>
      </trkpt>
      <trkpt lat="43.62261" lon="6.89249">
        <ele>249</ele>
        <time>2016-03-28T11:32:26Z</time>
      </trkpt>
      <trkpt lat="43.62243" lon="6.89265">
        <ele>246</ele>
        <time>2016-03-28T11:32:32Z</time>
      </trkpt>
      <trkpt lat="43.62223" lon="6.89275">
        <ele>245</ele>
        <time>2016-03-28T11:32:37Z</time>
      </trkpt>
      <trkpt lat="43.62202" lon="6.89283">
        <ele>245</ele>
        <time>2016-03-28T11:32:42Z</time>
      </trkpt>
      <trkpt lat="43.62183" lon="6.8929">
        <ele>245</ele>
        <time>2016-03-28T11:32:47Z</time>
      </trkpt>
      <trkpt lat="43.62165" lon="6.89306">
        <ele>245</ele>
        <time>2016-03-28T11:32:55Z</time>
      </trkpt>
      <trkpt lat="43.62147" lon="6.89319">
        <ele>244</ele>
        <time>2016-03-28T11:33:03Z</time>
      </trkpt>
      <trkpt lat="43.62129" lon="6.89331">
        <ele>245</ele>
        <time>2016-03-28T11:33:11Z</time>
      </trkpt>
      <trkpt lat="43.62111" lon="6.89343">
        <ele>234</ele>
        <time>2016-03-28T11:33:16Z</time>
      </trkpt>
      <trkpt lat="43.62093" lon="6.89346">
        <ele>236</ele>
        <time>2016-03-28T11:33:22Z</time>
      </trkpt>
      <trkpt lat="43.62077" lon="6.89336">
        <ele>237</ele>
        <time>2016-03-28T11:33:28Z</time>
      </trkpt>
      <trkpt lat="43.62058" lon="6.8933">
        <ele>237</ele>
        <time>2016-03-28T11:33:34Z</time>
      </trkpt>
      <trkpt lat="43.62048" lon="6.89352">
        <ele>229</ele>
        <time>2016-03-28T11:33:42Z</time>
      </trkpt>
      <trkpt lat="43.62032" lon="6.89366">
        <ele>226</ele>
        <time>2016-03-28T11:33:48Z</time>
      </trkpt>
      <trkpt lat="43.62012" lon="6.8937">
        <ele>225</ele>
        <time>2016-03-28T11:33:54Z</time>
      </trkpt>
      <trkpt lat="43.61999" lon="6.89386">
        <ele>215</ele>
        <time>2016-03-28T11:34:01Z</time>
      </trkpt>
      <trkpt lat="43.61979" lon="6.89385">
        <ele>215</ele>
        <time>2016-03-28T11:34:23Z</time>
      </trkpt>
      <trkpt lat="43.61963" lon="6.89368">
        <ele>214</ele>
        <time>2016-03-28T11:34:36Z</time>
      </trkpt>
      <trkpt lat="43.61947" lon="6.8938">
        <ele>212</ele>
        <time>2016-03-28T11:34:41Z</time>
      </trkpt>
      <trkpt lat="43.61943" lon="6.89405">
        <ele>211</ele>
        <time>2016-03-28T11:34:46Z</time>
      </trkpt>
      <trkpt lat="43.61927" lon="6.89428">
        <ele>205</ele>
        <time>2016-03-28T11:34:51Z</time>
      </trkpt>
      <trkpt lat="43.61912" lon="6.89443">
        <ele>198</ele>
        <time>2016-03-28T11:35:05Z</time>
      </trkpt>
      <trkpt lat="43.61894" lon="6.89453">
        <ele>196</ele>
        <time>2016-03-28T11:35:19Z</time>
      </trkpt>
      <trkpt lat="43.61877" lon="6.89462">
        <ele>194</ele>
        <time>2016-03-28T11:35:27Z</time>
      </trkpt>
      <trkpt lat="43.61857" lon="6.89466">
        <ele>192</ele>
        <time>2016-03-28T11:35:36Z</time>
      </trkpt>
      <trkpt lat="43.61836" lon="6.89471">
        <ele>190</ele>
        <time>2016-03-28T11:35:41Z</time>
      </trkpt>
      <trkpt lat="43.61818" lon="6.89475">
        <ele>181</ele>
        <time>2016-03-28T11:35:45Z</time>
      </trkpt>
      <trkpt lat="43.61798" lon="6.89478">
        <ele>179</ele>
        <time>2016-03-28T11:35:51Z</time>
      </trkpt>
      <trkpt lat="43.61785" lon="6.89459">
        <ele>179</ele>
        <time>2016-03-28T11:35:59Z</time>
      </trkpt>
      <trkpt lat="43.61767" lon="6.89445">
        <ele>178</ele>
        <time>2016-03-28T11:36:07Z</time>
      </trkpt>
      <trkpt lat="43.61749" lon="6.8944">
        <ele>166</ele>
        <time>2016-03-28T11:36:12Z</time>
      </trkpt>
      <trkpt lat="43.6173" lon="6.89441">
        <ele>163</ele>
        <time>2016-03-28T11:36:18Z</time>
      </trkpt>
      <trkpt lat="43.61713" lon="6.89451">
        <ele>159</ele>
        <time>2016-03-28T11:36:28Z</time>
      </trkpt>
      <trkpt lat="43.61702" lon="6.8943">
        <ele>158</ele>
        <time>2016-03-28T11:36:41Z</time>
      </trkpt>
      <trkpt lat="43.61684" lon="6.89421">
        <ele>154</ele>
        <time>2016-03-28T11:36:55Z</time>
      </trkpt>
      <trkpt lat="43.61679" lon="6.89396">
        <ele>163</ele>
        <time>2016-03-28T11:37:23Z</time>
      </trkpt>
      <trkpt lat="43.61666" lon="6.89377">
        <ele>154</ele>
        <time>2016-03-28T11:37:49Z</time>
      </trkpt>
      <trkpt lat="43.61648" lon="6.89375">
        <ele>154</ele>
        <time>2016-03-28T11:37:58Z</time>
      </trkpt>
      <trkpt lat="43.61629" lon="6.89374">
        <ele>152</ele>
        <time>2016-03-28T11:38:07Z</time>
      </trkpt>
      <trkpt lat="43.6161" lon="6.89376">
        <ele>150</ele>
        <time>2016-03-28T11:38:17Z</time>
      </trkpt>
      <trkpt lat="43.61593" lon="6.89396">
        <ele>146</ele>
        <time>2016-03-28T11:38:23Z</time>
      </trkpt>
      <trkpt lat="43.61574" lon="6.89409">
        <ele>136</ele>
        <time>2016-03-28T11:38:27Z</time>
      </trkpt>
      <trkpt lat="43.61556" lon="6.89421">
        <ele>128</ele>
        <time>2016-03-28T11:38:31Z</time>
      </trkpt>
      <trkpt lat="43.61536" lon="6.89419">
        <ele>126</ele>
        <time>2016-03-28T11:38:35Z</time>
      </trkpt>
      <trkpt lat="43.61521" lon="6.89433">
        <ele>125</ele>
        <time>2016-03-28T11:38:39Z</time>
      </trkpt>
      <trkpt lat="43.61502" lon="6.89442">
        <ele>124</ele>
        <time>2016-03-28T11:38:44Z</time>
      </trkpt>
      <trkpt lat="43.61484" lon="6.89449">
        <ele>117</ele>
        <time>2016-03-28T11:38:51Z</time>
      </trkpt>
      <trkpt lat="43.61466" lon="6.89448">
        <ele>116</ele>
        <time>2016-03-28T11:38:59Z</time>
      </trkpt>
      <trkpt lat="43.6145" lon="6.89463">
        <ele>113</ele>
        <time>2016-03-28T11:39:09Z</time>
      </trkpt>
      <trkpt lat="43.61433" lon="6.8945">
        <ele>114</ele>
        <time>2016-03-28T11:39:18Z</time>
      </trkpt>
      <trkpt lat="43.61415" lon="6.89452">
        <ele>102</ele>
        <time>2016-03-28T11:40:22Z</time>
      </trkpt>
      <trkpt lat="43.61397" lon="6.89444">
        <ele>102</ele>
        <time>2016-03-28T11:40:30Z</time>
      </trkpt>
      <trkpt lat="43.61378" lon="6.89437">
        <ele>100</ele>
        <time>2016-03-28T11:40:37Z</time>
      </trkpt>
      <trkpt lat="43.61359" lon="6.89432">
        <ele>97</ele>
        <time>2016-03-28T11:40:42Z</time>
      </trkpt>
      <trkpt lat="43.61339" lon="6.89428">
        <ele>96</ele>
        <time>2016-03-28T11:40:48Z</time>
      </trkpt>
      <trkpt lat="43.61322" lon="6.8942">
        <ele>86</ele>
        <time>2016-03-28T11:40:54Z</time>
      </trkpt>
      <trkpt lat="43.61302" lon="6.89415">
        <ele>78</ele>
        <time>2016-03-28T11:41:01Z</time>
      </trkpt>
      <trkpt lat="43.61284" lon="6.89404">
        <ele>72</ele>
        <time>2016-03-28T11:41:07Z</time>
      </trkpt>
      <trkpt lat="43.61265" lon="6.8941">
        <ele>67</ele>
        <time>2016-03-28T11:41:21Z</time>
      </trkpt>
      <trkpt lat="43.61263" lon="6.89384">
        <ele>68</ele>
        <time>2016-03-28T11:41:28Z</time>
      </trkpt>
      <trkpt lat="43.61269" lon="6.8936">
        <ele>67</ele>
        <time>2016-03-28T11:41:35Z</time>
      </trkpt>
      <trkpt lat="43.61269" lon="6.89333">
        <ele>63</ele>
        <time>2016-03-28T11:41:41Z</time>
      </trkpt>
      <trkpt lat="43.61276" lon="6.89309">
        <ele>57</ele>
        <time>2016-03-28T11:41:48Z</time>
      </trkpt>
      <trkpt lat="43.61258" lon="6.89315">
        <ele>55</ele>
        <time>2016-03-28T11:42:42Z</time>
      </trkpt>
      <trkpt lat="43.61259" lon="6.8929">
        <ele>54</ele>
        <time>2016-03-28T11:42:55Z</time>
      </trkpt>
      <trkpt lat="43.61273" lon="6.89272">
        <ele>53</ele>
        <time>2016-03-28T11:43:12Z</time>
      </trkpt>
      <trkpt lat="43.61255" lon="6.89265">
        <ele>49</ele>
        <time>2016-03-28T11:43:24Z</time>
      </trkpt>
      <trkpt lat="43.61237" lon="6.89271">
        <ele>40</ele>
        <time>2016-03-28T11:43:45Z</time>
      </trkpt>
      <trkpt lat="43.61218" lon="6.89274">
        <ele>38</ele>
        <time>2016-03-28T11:44:15Z</time>
      </trkpt>
      <trkpt lat="43.61211" lon="6.89247">
        <ele>40</ele>
        <time>2016-03-28T11:44:25Z</time>
      </trkpt>
      <trkpt lat="43.61207" lon="6.89272">
        <ele>37</ele>
        <time>2016-03-28T11:47:10Z</time>
      </trkpt>
      <trkpt lat="43.6121" lon="6.89299">
        <ele>38</ele>
        <time>2016-03-28T11:47:17Z</time>
      </trkpt>
      <trkpt lat="43.61212" lon="6.8933">
        <ele>40</ele>
        <time>2016-03-28T11:47:22Z</time>
      </trkpt>
      <trkpt lat="43.61211" lon="6.89355">
        <ele>43</ele>
        <time>2016-03-28T11:47:26Z</time>
      </trkpt>
      <trkpt lat="43.61207" lon="6.89384">
        <ele>43</ele>
        <time>2016-03-28T11:47:31Z</time>
      </trkpt>
      <trkpt lat="43.61203" lon="6.89408">
        <ele>42</ele>
        <time>2016-03-28T11:47:35Z</time>
      </trkpt>
      <trkpt lat="43.61195" lon="6.89431">
        <ele>42</ele>
        <time>2016-03-28T11:47:39Z</time>
      </trkpt>
      <trkpt lat="43.61182" lon="6.89452">
        <ele>41</ele>
        <time>2016-03-28T11:47:43Z</time>
      </trkpt>
      <trkpt lat="43.61165" lon="6.89469">
        <ele>31</ele>
        <time>2016-03-28T11:47:47Z</time>
      </trkpt>
      <trkpt lat="43.61147" lon="6.89482">
        <ele>32</ele>
        <time>2016-03-28T11:47:51Z</time>
      </trkpt>
      <trkpt lat="43.61125" lon="6.89494">
        <ele>31</ele>
        <time>2016-03-28T11:47:55Z</time>
      </trkpt>
      <trkpt lat="43.61104" lon="6.89507">
        <ele>36</ele>
        <time>2016-03-28T11:47:59Z</time>
      </trkpt>
      <trkpt lat="43.61085" lon="6.89518">
        <ele>36</ele>
        <time>2016-03-28T11:48:03Z</time>
      </trkpt>
      <trkpt lat="43.61065" lon="6.89531">
        <ele>33</ele>
        <time>2016-03-28T11:48:07Z</time>
      </trkpt>
      <trkpt lat="43.61046" lon="6.89544">
        <ele>33</ele>
        <time>2016-03-28T11:48:11Z</time>
      </trkpt>
      <trkpt lat="43.61026" lon="6.89558">
        <ele>32</ele>
        <time>2016-03-28T11:48:15Z</time>
      </trkpt>
      <trkpt lat="43.61008" lon="6.89571">
        <ele>31</ele>
        <time>2016-03-28T11:48:19Z</time>
      </trkpt>
      <trkpt lat="43.60987" lon="6.89585">
        <ele>31</ele>
        <time>2016-03-28T11:48:23Z</time>
      </trkpt>
      <trkpt lat="43.60972" lon="6.89599">
        <ele>32</ele>
        <time>2016-03-28T11:48:26Z</time>
      </trkpt>
      <trkpt lat="43.60957" lon="6.89618">
        <ele>33</ele>
        <time>2016-03-28T11:48:30Z</time>
      </trkpt>
      <trkpt lat="43.60944" lon="6.89637">
        <ele>32</ele>
        <time>2016-03-28T11:48:33Z</time>
      </trkpt>
      <trkpt lat="43.60934" lon="6.89659">
        <ele>30</ele>
        <time>2016-03-28T11:48:36Z</time>
      </trkpt>
      <trkpt lat="43.60926" lon="6.89683">
        <ele>35</ele>
        <time>2016-03-28T11:48:40Z</time>
      </trkpt>
      <trkpt lat="43.60918" lon="6.89705">
        <ele>39</ele>
        <time>2016-03-28T11:48:43Z</time>
      </trkpt>
      <trkpt lat="43.60906" lon="6.89733">
        <ele>32</ele>
        <time>2016-03-28T11:48:47Z</time>
      </trkpt>
      <trkpt lat="43.60894" lon="6.89759">
        <ele>34</ele>
        <time>2016-03-28T11:48:51Z</time>
      </trkpt>
      <trkpt lat="43.6088" lon="6.8978">
        <ele>34</ele>
        <time>2016-03-28T11:48:55Z</time>
      </trkpt>
      <trkpt lat="43.60862" lon="6.898">
        <ele>33</ele>
        <time>2016-03-28T11:48:59Z</time>
      </trkpt>
      <trkpt lat="43.60845" lon="6.8982">
        <ele>32</ele>
        <time>2016-03-28T11:49:03Z</time>
      </trkpt>
      <trkpt lat="43.60825" lon="6.89836">
        <ele>29</ele>
        <time>2016-03-28T11:49:07Z</time>
      </trkpt>
      <trkpt lat="43.6081" lon="6.89852">
        <ele>29</ele>
        <time>2016-03-28T11:49:10Z</time>
      </trkpt>
      <trkpt lat="43.60798" lon="6.89875">
        <ele>29</ele>
        <time>2016-03-28T11:49:13Z</time>
      </trkpt>
      <trkpt lat="43.60787" lon="6.89901">
        <ele>29</ele>
        <time>2016-03-28T11:49:16Z</time>
      </trkpt>
      <trkpt lat="43.60778" lon="6.89927">
        <ele>32</ele>
        <time>2016-03-28T11:49:19Z</time>
      </trkpt>
      <trkpt lat="43.60766" lon="6.89954">
        <ele>32</ele>
        <time>2016-03-28T11:49:22Z</time>
      </trkpt>
      <trkpt lat="43.60752" lon="6.89978">
        <ele>31</ele>
        <time>2016-03-28T11:49:25Z</time>
      </trkpt>
      <trkpt lat="43.60739" lon="6.9">
        <ele>26</ele>
        <time>2016-03-28T11:49:28Z</time>
      </trkpt>
      <trkpt lat="43.60726" lon="6.90023">
        <ele>26</ele>
        <time>2016-03-28T11:49:31Z</time>
      </trkpt>
      <trkpt lat="43.60714" lon="6.90045">
        <ele>25</ele>
        <time>2016-03-28T11:49:34Z</time>
      </trkpt>
      <trkpt lat="43.60703" lon="6.90068">
        <ele>25</ele>
        <time>2016-03-28T11:49:37Z</time>
      </trkpt>
      <trkpt lat="43.60692" lon="6.90089">
        <ele>26</ele>
        <time>2016-03-28T11:49:40Z</time>
      </trkpt>
      <trkpt lat="43.60677" lon="6.90111">
        <ele>25</ele>
        <time>2016-03-28T11:49:44Z</time>
      </trkpt>
      <trkpt lat="43.60664" lon="6.90129">
        <ele>23</ele>
        <time>2016-03-28T11:49:47Z</time>
      </trkpt>
      <trkpt lat="43.60658" lon="6.9016">
        <ele>24</ele>
        <time>2016-03-28T11:49:51Z</time>
      </trkpt>
      <trkpt lat="43.60656" lon="6.90192">
        <ele>26</ele>
        <time>2016-03-28T11:49:55Z</time>
      </trkpt>
      <trkpt lat="43.60656" lon="6.90217">
        <ele>26</ele>
        <time>2016-03-28T11:49:58Z</time>
      </trkpt>
      <trkpt lat="43.60659" lon="6.9025">
        <ele>27</ele>
        <time>2016-03-28T11:50:02Z</time>
      </trkpt>
      <trkpt lat="43.60664" lon="6.90278">
        <ele>30</ele>
        <time>2016-03-28T11:50:05Z</time>
      </trkpt>
      <trkpt lat="43.60656" lon="6.90305">
        <ele>31</ele>
        <time>2016-03-28T11:50:08Z</time>
      </trkpt>
      <trkpt lat="43.60644" lon="6.90325">
        <ele>32</ele>
        <time>2016-03-28T11:50:11Z</time>
      </trkpt>
      <trkpt lat="43.60632" lon="6.90345">
        <ele>38</ele>
        <time>2016-03-28T11:50:15Z</time>
      </trkpt>
      <trkpt lat="43.60621" lon="6.90367">
        <ele>39</ele>
        <time>2016-03-28T11:50:20Z</time>
      </trkpt>
      <trkpt lat="43.60612" lon="6.9039">
        <ele>40</ele>
        <time>2016-03-28T11:50:26Z</time>
      </trkpt>
      <trkpt lat="43.60598" lon="6.9041">
        <ele>42</ele>
        <time>2016-03-28T11:50:32Z</time>
      </trkpt>
      <trkpt lat="43.60582" lon="6.90429">
        <ele>47</ele>
        <time>2016-03-28T11:50:38Z</time>
      </trkpt>
      <trkpt lat="43.60569" lon="6.90451">
        <ele>49</ele>
        <time>2016-03-28T11:50:43Z</time>
      </trkpt>
      <trkpt lat="43.6056" lon="6.90474">
        <ele>48</ele>
        <time>2016-03-28T11:50:49Z</time>
      </trkpt>
      <trkpt lat="43.60553" lon="6.90498">
        <ele>48</ele>
        <time>2016-03-28T11:50:55Z</time>
      </trkpt>
      <trkpt lat="43.60545" lon="6.90521">
        <ele>46</ele>
        <time>2016-03-28T11:51:01Z</time>
      </trkpt>
      <trkpt lat="43.60535" lon="6.90545">
        <ele>47</ele>
        <time>2016-03-28T11:51:07Z</time>
      </trkpt>
      <trkpt lat="43.60527" lon="6.90567">
        <ele>46</ele>
        <time>2016-03-28T11:51:13Z</time>
      </trkpt>
      <trkpt lat="43.60516" lon="6.90588">
        <ele>46</ele>
        <time>2016-03-28T11:51:19Z</time>
      </trkpt>
      <trkpt lat="43.60505" lon="6.90612">
        <ele>47</ele>
        <time>2016-03-28T11:51:25Z</time>
      </trkpt>
      <trkpt lat="43.60496" lon="6.90634">
        <ele>48</ele>
        <time>2016-03-28T11:51:30Z</time>
      </trkpt>
      <trkpt lat="43.60486" lon="6.90659">
        <ele>48</ele>
        <time>2016-03-28T11:51:37Z</time>
      </trkpt>
      <trkpt lat="43.60478" lon="6.90682">
        <ele>50</ele>
        <time>2016-03-28T11:51:43Z</time>
      </trkpt>
      <trkpt lat="43.60467" lon="6.90702">
        <ele>51</ele>
        <time>2016-03-28T11:51:48Z</time>
      </trkpt>
      <trkpt lat="43.60456" lon="6.90722">
        <ele>51</ele>
        <time>2016-03-28T11:51:54Z</time>
      </trkpt>
      <trkpt lat="43.60445" lon="6.90746">
        <ele>51</ele>
        <time>2016-03-28T11:52:01Z</time>
      </trkpt>
      <trkpt lat="43.60439" lon="6.90773">
        <ele>53</ele>
        <time>2016-03-28T11:52:09Z</time>
      </trkpt>
      <trkpt lat="43.60431" lon="6.90801">
        <ele>53</ele>
        <time>2016-03-28T11:52:15Z</time>
      </trkpt>
      <trkpt lat="43.60423" lon="6.90826">
        <ele>53</ele>
        <time>2016-03-28T11:52:20Z</time>
      </trkpt>
      <trkpt lat="43.60416" lon="6.90851">
        <ele>51</ele>
        <time>2016-03-28T11:52:25Z</time>
      </trkpt>
      <trkpt lat="43.6041" lon="6.90875">
        <ele>51</ele>
        <time>2016-03-28T11:52:30Z</time>
      </trkpt>
      <trkpt lat="43.60405" lon="6.90902">
        <ele>51</ele>
        <time>2016-03-28T11:52:35Z</time>
      </trkpt>
      <trkpt lat="43.60403" lon="6.90928">
        <ele>51</ele>
        <time>2016-03-28T11:52:39Z</time>
      </trkpt>
      <trkpt lat="43.60385" lon="6.90933">
        <ele>50</ele>
        <time>2016-03-28T11:52:48Z</time>
      </trkpt>
      <trkpt lat="43.60368" lon="6.9092">
        <ele>49</ele>
        <time>2016-03-28T11:52:53Z</time>
      </trkpt>
      <trkpt lat="43.6035" lon="6.90909">
        <ele>50</ele>
        <time>2016-03-28T11:52:58Z</time>
      </trkpt>
      <trkpt lat="43.60332" lon="6.90899">
        <ele>51</ele>
        <time>2016-03-28T11:53:02Z</time>
      </trkpt>
      <trkpt lat="43.60314" lon="6.9089">
        <ele>53</ele>
        <time>2016-03-28T11:53:06Z</time>
      </trkpt>
      <trkpt lat="43.60298" lon="6.90878">
        <ele>54</ele>
        <time>2016-03-28T11:53:11Z</time>
      </trkpt>
      <trkpt lat="43.60278" lon="6.9087">
        <ele>55</ele>
        <time>2016-03-28T11:53:17Z</time>
      </trkpt>
      <trkpt lat="43.60258" lon="6.90876">
        <ele>56</ele>
        <time>2016-03-28T11:53:24Z</time>
      </trkpt>
      <trkpt lat="43.60239" lon="6.90884">
        <ele>64</ele>
        <time>2016-03-28T11:53:32Z</time>
      </trkpt>
      <trkpt lat="43.6022" lon="6.9089">
        <ele>65</ele>
        <time>2016-03-28T11:53:40Z</time>
      </trkpt>
      <trkpt lat="43.60202" lon="6.90899">
        <ele>67</ele>
        <time>2016-03-28T11:53:49Z</time>
      </trkpt>
      <trkpt lat="43.60187" lon="6.90917">
        <ele>68</ele>
        <time>2016-03-28T11:53:58Z</time>
      </trkpt>
      <trkpt lat="43.60172" lon="6.90933">
        <ele>69</ele>
        <time>2016-03-28T11:54:33Z</time>
      </trkpt>
      <trkpt lat="43.60155" lon="6.90948">
        <ele>75</ele>
        <time>2016-03-28T11:54:41Z</time>
      </trkpt>
      <trkpt lat="43.60137" lon="6.90961">
        <ele>76</ele>
        <time>2016-03-28T11:54:51Z</time>
      </trkpt>
      <trkpt lat="43.60122" lon="6.90981">
        <ele>77</ele>
        <time>2016-03-28T11:54:57Z</time>
      </trkpt>
      <trkpt lat="43.60111" lon="6.91002">
        <ele>73</ele>
        <time>2016-03-28T11:55:04Z</time>
      </trkpt>
      <trkpt lat="43.60096" lon="6.91022">
        <ele>74</ele>
        <time>2016-03-28T11:55:11Z</time>
      </trkpt>
      <trkpt lat="43.60083" lon="6.91042">
        <ele>79</ele>
        <time>2016-03-28T11:55:17Z</time>
      </trkpt>
      <trkpt lat="43.60071" lon="6.91067">
        <ele>77</ele>
        <time>2016-03-28T11:55:23Z</time>
      </trkpt>
      <trkpt lat="43.60061" lon="6.91088">
        <ele>71</ele>
        <time>2016-03-28T11:55:29Z</time>
      </trkpt>
      <trkpt lat="43.60052" lon="6.91111">
        <ele>69</ele>
        <time>2016-03-28T11:55:37Z</time>
      </trkpt>
      <trkpt lat="43.60038" lon="6.91128">
        <ele>68</ele>
        <time>2016-03-28T11:55:49Z</time>
      </trkpt>
      <trkpt lat="43.60022" lon="6.91142">
        <ele>67</ele>
        <time>2016-03-28T11:55:58Z</time>
      </trkpt>
      <trkpt lat="43.60001" lon="6.91138">
        <ele>68</ele>
        <time>2016-03-28T11:56:06Z</time>
      </trkpt>
      <trkpt lat="43.59983" lon="6.91131">
        <ele>63</ele>
        <time>2016-03-28T11:56:16Z</time>
      </trkpt>
      <trkpt lat="43.59985" lon="6.91157">
        <ele>62</ele>
        <time>2016-03-28T11:57:03Z</time>
      </trkpt>
      <trkpt lat="43.59998" lon="6.9118">
        <ele>56</ele>
        <time>2016-03-28T11:57:17Z</time>
      </trkpt>
      <trkpt lat="43.60009" lon="6.912">
        <ele>50</ele>
        <time>2016-03-28T11:57:21Z</time>
      </trkpt>
      <trkpt lat="43.5999" lon="6.91197">
        <ele>48</ele>
        <time>2016-03-28T11:57:28Z</time>
      </trkpt>
      <trkpt lat="43.59967" lon="6.91203">
        <ele>44</ele>
        <time>2016-03-28T11:57:32Z</time>
      </trkpt>
      <trkpt lat="43.59949" lon="6.9121">
        <ele>41</ele>
        <time>2016-03-28T11:57:36Z</time>
      </trkpt>
      <trkpt lat="43.59925" lon="6.91206">
        <ele>39</ele>
        <time>2016-03-28T11:57:40Z</time>
      </trkpt>
      <trkpt lat="43.59909" lon="6.91188">
        <ele>32</ele>
        <time>2016-03-28T11:57:44Z</time>
      </trkpt>
      <trkpt lat="43.59913" lon="6.91216">
        <ele>27</ele>
        <time>2016-03-28T11:57:51Z</time>
      </trkpt>
      <trkpt lat="43.59906" lon="6.91239">
        <ele>25</ele>
        <time>2016-03-28T11:57:59Z</time>
      </trkpt>
      <trkpt lat="43.5989" lon="6.91254">
        <ele>23</ele>
        <time>2016-03-28T11:58:10Z</time>
      </trkpt>
      <trkpt lat="43.59873" lon="6.91261">
        <ele>22</ele>
        <time>2016-03-28T11:58:25Z</time>
      </trkpt>
      <trkpt lat="43.59865" lon="6.91285">
        <ele>23</ele>
        <time>2016-03-28T11:58:52Z</time>
      </trkpt>
      <trkpt lat="43.5986" lon="6.91311">
        <ele>23</ele>
        <time>2016-03-28T11:58:56Z</time>
      </trkpt>
      <trkpt lat="43.59847" lon="6.91334">
        <ele>31</ele>
        <time>2016-03-28T11:59:00Z</time>
      </trkpt>
      <trkpt lat="43.59829" lon="6.91346">
        <ele>28</ele>
        <time>2016-03-28T11:59:05Z</time>
      </trkpt>
      <trkpt lat="43.59809" lon="6.91353">
        <ele>30</ele>
        <time>2016-03-28T11:59:10Z</time>
      </trkpt>
      <trkpt lat="43.59788" lon="6.91358">
        <ele>30</ele>
        <time>2016-03-28T11:59:16Z</time>
      </trkpt>
      <trkpt lat="43.59769" lon="6.91371">
        <ele>30</ele>
        <time>2016-03-28T11:59:21Z</time>
      </trkpt>
      <trkpt lat="43.59749" lon="6.91382">
        <ele>25</ele>
        <time>2016-03-28T11:59:26Z</time>
      </trkpt>
      <trkpt lat="43.59731" lon="6.91386">
        <ele>24</ele>
        <time>2016-03-28T11:59:30Z</time>
      </trkpt>
      <trkpt lat="43.59712" lon="6.91388">
        <ele>24</ele>
        <time>2016-03-28T11:59:36Z</time>
      </trkpt>
      <trkpt lat="43.59694" lon="6.91407">
        <ele>23</ele>
        <time>2016-03-28T11:59:41Z</time>
      </trkpt>
      <trkpt lat="43.59681" lon="6.91427">
        <ele>25</ele>
        <time>2016-03-28T11:59:45Z</time>
      </trkpt>
      <trkpt lat="43.59665" lon="6.91445">
        <ele>23</ele>
        <time>2016-03-28T11:59:50Z</time>
      </trkpt>
      <trkpt lat="43.59648" lon="6.91458">
        <ele>24</ele>
        <time>2016-03-28T11:59:54Z</time>
      </trkpt>
      <trkpt lat="43.5963" lon="6.91473">
        <ele>25</ele>
        <time>2016-03-28T11:59:58Z</time>
      </trkpt>
      <trkpt lat="43.59616" lon="6.91494">
        <ele>24</ele>
        <time>2016-03-28T12:00:03Z</time>
      </trkpt>
      <trkpt lat="43.59604" lon="6.91519">
        <ele>26</ele>
        <time>2016-03-28T12:00:08Z</time>
      </trkpt>
      <trkpt lat="43.59594" lon="6.91545">
        <ele>27</ele>
        <time>2016-03-28T12:00:13Z</time>
      </trkpt>
      <trkpt lat="43.59583" lon="6.91567">
        <ele>23</ele>
        <time>2016-03-28T12:00:17Z</time>
      </trkpt>
      <trkpt lat="43.59571" lon="6.91593">
        <ele>26</ele>
        <time>2016-03-28T12:00:22Z</time>
      </trkpt>
      <trkpt lat="43.59557" lon="6.91614">
        <ele>28</ele>
        <time>2016-03-28T12:00:27Z</time>
      </trkpt>
      <trkpt lat="43.59539" lon="6.91625">
        <ele>28</ele>
        <time>2016-03-28T12:00:32Z</time>
      </trkpt>
      <trkpt lat="43.59523" lon="6.91637">
        <ele>27</ele>
        <time>2016-03-28T12:00:36Z</time>
      </trkpt>
      <trkpt lat="43.59506" lon="6.91652">
        <ele>26</ele>
        <time>2016-03-28T12:00:41Z</time>
      </trkpt>
      <trkpt lat="43.5949" lon="6.91666">
        <ele>23</ele>
        <time>2016-03-28T12:00:46Z</time>
      </trkpt>
      <trkpt lat="43.59474" lon="6.91678">
        <ele>25</ele>
        <time>2016-03-28T12:00:52Z</time>
      </trkpt>
      <trkpt lat="43.59461" lon="6.91694">
        <ele>26</ele>
        <time>2016-03-28T12:01:41Z</time>
      </trkpt>
      <trkpt lat="43.59446" lon="6.91711">
        <ele>26</ele>
        <time>2016-03-28T12:19:01Z</time>
      </trkpt>
      <trkpt lat="43.59434" lon="6.91733">
        <ele>25</ele>
        <time>2016-03-28T12:19:07Z</time>
      </trkpt>
      <trkpt lat="43.59421" lon="6.91755">
        <ele>25</ele>
        <time>2016-03-28T12:19:14Z</time>
      </trkpt>
      <trkpt lat="43.59409" lon="6.91775">
        <ele>23</ele>
        <time>2016-03-28T12:19:19Z</time>
      </trkpt>
      <trkpt lat="43.5939" lon="6.91788">
        <ele>23</ele>
        <time>2016-03-28T12:19:24Z</time>
      </trkpt>
      <trkpt lat="43.59374" lon="6.91807">
        <ele>23</ele>
        <time>2016-03-28T12:19:29Z</time>
      </trkpt>
      <trkpt lat="43.59357" lon="6.91825">
        <ele>22</ele>
        <time>2016-03-28T12:19:36Z</time>
      </trkpt>
      <trkpt lat="43.59341" lon="6.91839">
        <ele>25</ele>
        <time>2016-03-28T12:19:40Z</time>
      </trkpt>
      <trkpt lat="43.59324" lon="6.91855">
        <ele>24</ele>
        <time>2016-03-28T12:19:44Z</time>
      </trkpt>
      <trkpt lat="43.59308" lon="6.91873">
        <ele>25</ele>
        <time>2016-03-28T12:19:48Z</time>
      </trkpt>
      <trkpt lat="43.59295" lon="6.91892">
        <ele>25</ele>
        <time>2016-03-28T12:19:52Z</time>
      </trkpt>
      <trkpt lat="43.59284" lon="6.91919">
        <ele>28</ele>
        <time>2016-03-28T12:19:57Z</time>
      </trkpt>
      <trkpt lat="43.59274" lon="6.91945">
        <ele>28</ele>
        <time>2016-03-28T12:20:01Z</time>
      </trkpt>
      <trkpt lat="43.59265" lon="6.9197">
        <ele>27</ele>
        <time>2016-03-28T12:20:05Z</time>
      </trkpt>
      <trkpt lat="43.59257" lon="6.91996">
        <ele>24</ele>
        <time>2016-03-28T12:20:09Z</time>
      </trkpt>
      <trkpt lat="43.59248" lon="6.92022">
        <ele>20</ele>
        <time>2016-03-28T12:20:13Z</time>
      </trkpt>
      <trkpt lat="43.5924" lon="6.9205">
        <ele>19</ele>
        <time>2016-03-28T12:20:17Z</time>
      </trkpt>
      <trkpt lat="43.59234" lon="6.9208">
        <ele>20</ele>
        <time>2016-03-28T12:20:21Z</time>
      </trkpt>
      <trkpt lat="43.59231" lon="6.92108">
        <ele>21</ele>
        <time>2016-03-28T12:20:25Z</time>
      </trkpt>
      <trkpt lat="43.59229" lon="6.92137">
        <ele>21</ele>
        <time>2016-03-28T12:20:29Z</time>
      </trkpt>
      <trkpt lat="43.59225" lon="6.92163">
        <ele>22</ele>
        <time>2016-03-28T12:20:33Z</time>
      </trkpt>
      <trkpt lat="43.59221" lon="6.9219">
        <ele>21</ele>
        <time>2016-03-28T12:20:37Z</time>
      </trkpt>
      <trkpt lat="43.59217" lon="6.92221">
        <ele>21</ele>
        <time>2016-03-28T12:20:42Z</time>
      </trkpt>
      <trkpt lat="43.59218" lon="6.92247">
        <ele>21</ele>
        <time>2016-03-28T12:20:46Z</time>
      </trkpt>
      <trkpt lat="43.59226" lon="6.9227">
        <ele>20</ele>
        <time>2016-03-28T12:20:50Z</time>
      </trkpt>
      <trkpt lat="43.59242" lon="6.92289">
        <ele>20</ele>
        <time>2016-03-28T12:20:54Z</time>
      </trkpt>
      <trkpt lat="43.59261" lon="6.92306">
        <ele>23</ele>
        <time>2016-03-28T12:20:58Z</time>
      </trkpt>
      <trkpt lat="43.59279" lon="6.92321">
        <ele>23</ele>
        <time>2016-03-28T12:21:02Z</time>
      </trkpt>
      <trkpt lat="43.59294" lon="6.92342">
        <ele>20</ele>
        <time>2016-03-28T12:21:06Z</time>
      </trkpt>
      <trkpt lat="43.59308" lon="6.92366">
        <ele>19</ele>
        <time>2016-03-28T12:21:10Z</time>
      </trkpt>
      <trkpt lat="43.59319" lon="6.92392">
        <ele>19</ele>
        <time>2016-03-28T12:21:14Z</time>
      </trkpt>
      <trkpt lat="43.5933" lon="6.92416">
        <ele>19</ele>
        <time>2016-03-28T12:21:18Z</time>
      </trkpt>
      <trkpt lat="43.5934" lon="6.92437">
        <ele>20</ele>
        <time>2016-03-28T12:21:22Z</time>
      </trkpt>
      <trkpt lat="43.59354" lon="6.9246">
        <ele>20</ele>
        <time>2016-03-28T12:21:26Z</time>
      </trkpt>
      <trkpt lat="43.59368" lon="6.92479">
        <ele>20</ele>
        <time>2016-03-28T12:21:30Z</time>
      </trkpt>
      <trkpt lat="43.59385" lon="6.92497">
        <ele>20</ele>
        <time>2016-03-28T12:21:34Z</time>
      </trkpt>
      <trkpt lat="43.59399" lon="6.9252">
        <ele>19</ele>
        <time>2016-03-28T12:21:38Z</time>
      </trkpt>
      <trkpt lat="43.59419" lon="6.92538">
        <ele>24</ele>
        <time>2016-03-28T12:21:42Z</time>
      </trkpt>
      <trkpt lat="43.59436" lon="6.92561">
        <ele>23</ele>
        <time>2016-03-28T12:21:46Z</time>
      </trkpt>
      <trkpt lat="43.59447" lon="6.92589">
        <ele>21</ele>
        <time>2016-03-28T12:21:50Z</time>
      </trkpt>
      <trkpt lat="43.59455" lon="6.92614">
        <ele>20</ele>
        <time>2016-03-28T12:21:54Z</time>
      </trkpt>
      <trkpt lat="43.59458" lon="6.92639">
        <ele>20</ele>
        <time>2016-03-28T12:21:58Z</time>
      </trkpt>
      <trkpt lat="43.59465" lon="6.92662">
        <ele>19</ele>
        <time>2016-03-28T12:22:04Z</time>
      </trkpt>
      <trkpt lat="43.59485" lon="6.92662">
        <ele>20</ele>
        <time>2016-03-28T12:22:08Z</time>
      </trkpt>
      <trkpt lat="43.59507" lon="6.92667">
        <ele>19</ele>
        <time>2016-03-28T12:22:12Z</time>
      </trkpt>
      <trkpt lat="43.59529" lon="6.92679">
        <ele>18</ele>
        <time>2016-03-28T12:22:16Z</time>
      </trkpt>
      <trkpt lat="43.5955" lon="6.92691">
        <ele>18</ele>
        <time>2016-03-28T12:22:20Z</time>
      </trkpt>
      <trkpt lat="43.59572" lon="6.92702">
        <ele>18</ele>
        <time>2016-03-28T12:22:24Z</time>
      </trkpt>
      <trkpt lat="43.59589" lon="6.92712">
        <ele>17</ele>
        <time>2016-03-28T12:22:27Z</time>
      </trkpt>
      <trkpt lat="43.59606" lon="6.92722">
        <ele>17</ele>
        <time>2016-03-28T12:22:30Z</time>
      </trkpt>
      <trkpt lat="43.59627" lon="6.92733">
        <ele>17</ele>
        <time>2016-03-28T12:22:34Z</time>
      </trkpt>
      <trkpt lat="43.59648" lon="6.92742">
        <ele>17</ele>
        <time>2016-03-28T12:22:38Z</time>
      </trkpt>
      <trkpt lat="43.5967" lon="6.9275">
        <ele>17</ele>
        <time>2016-03-28T12:22:42Z</time>
      </trkpt>
      <trkpt lat="43.59693" lon="6.92756">
        <ele>18</ele>
        <time>2016-03-28T12:22:46Z</time>
      </trkpt>
      <trkpt lat="43.59712" lon="6.92761">
        <ele>18</ele>
        <time>2016-03-28T12:22:50Z</time>
      </trkpt>
      <trkpt lat="43.59732" lon="6.92772">
        <ele>18</ele>
        <time>2016-03-28T12:22:54Z</time>
      </trkpt>
      <trkpt lat="43.59732" lon="6.92799">
        <ele>18</ele>
        <time>2016-03-28T12:22:58Z</time>
      </trkpt>
      <trkpt lat="43.59733" lon="6.92825">
        <ele>19</ele>
        <time>2016-03-28T12:23:02Z</time>
      </trkpt>
      <trkpt lat="43.59752" lon="6.92834">
        <ele>19</ele>
        <time>2016-03-28T12:23:07Z</time>
      </trkpt>
      <trkpt lat="43.59771" lon="6.92844">
        <ele>20</ele>
        <time>2016-03-28T12:23:11Z</time>
      </trkpt>
      <trkpt lat="43.59791" lon="6.92854">
        <ele>20</ele>
        <time>2016-03-28T12:23:15Z</time>
      </trkpt>
      <trkpt lat="43.59809" lon="6.92864">
        <ele>21</ele>
        <time>2016-03-28T12:23:19Z</time>
      </trkpt>
      <trkpt lat="43.59828" lon="6.92875">
        <ele>21</ele>
        <time>2016-03-28T12:23:23Z</time>
      </trkpt>
      <trkpt lat="43.59847" lon="6.92884">
        <ele>22</ele>
        <time>2016-03-28T12:23:27Z</time>
      </trkpt>
      <trkpt lat="43.59864" lon="6.92893">
        <ele>22</ele>
        <time>2016-03-28T12:23:31Z</time>
      </trkpt>
      <trkpt lat="43.59883" lon="6.92903">
        <ele>22</ele>
        <time>2016-03-28T12:23:36Z</time>
      </trkpt>
      <trkpt lat="43.59901" lon="6.92913">
        <ele>22</ele>
        <time>2016-03-28T12:23:41Z</time>
      </trkpt>
      <trkpt lat="43.59919" lon="6.92921">
        <ele>22</ele>
        <time>2016-03-28T12:23:47Z</time>
      </trkpt>
      <trkpt lat="43.59931" lon="6.92899">
        <ele>23</ele>
        <time>2016-03-28T12:23:59Z</time>
      </trkpt>
      <trkpt lat="43.59938" lon="6.92875">
        <ele>23</ele>
        <time>2016-03-28T12:24:04Z</time>
      </trkpt>
      <trkpt lat="43.59946" lon="6.92851">
        <ele>23</ele>
        <time>2016-03-28T12:24:10Z</time>
      </trkpt>
      <trkpt lat="43.59954" lon="6.92825">
        <ele>25</ele>
        <time>2016-03-28T12:24:15Z</time>
      </trkpt>
      <trkpt lat="43.59967" lon="6.92807">
        <ele>26</ele>
        <time>2016-03-28T12:24:21Z</time>
      </trkpt>
      <trkpt lat="43.59986" lon="6.92805">
        <ele>26</ele>
        <time>2016-03-28T12:24:26Z</time>
      </trkpt>
      <trkpt lat="43.60006" lon="6.92815">
        <ele>27</ele>
        <time>2016-03-28T12:24:32Z</time>
      </trkpt>
      <trkpt lat="43.60024" lon="6.92826">
        <ele>27</ele>
        <time>2016-03-28T12:24:37Z</time>
      </trkpt>
      <trkpt lat="43.60041" lon="6.9284">
        <ele>25</ele>
        <time>2016-03-28T12:24:42Z</time>
      </trkpt>
      <trkpt lat="43.6006" lon="6.92857">
        <ele>25</ele>
        <time>2016-03-28T12:24:47Z</time>
      </trkpt>
      <trkpt lat="43.60078" lon="6.92874">
        <ele>25</ele>
        <time>2016-03-28T12:24:52Z</time>
      </trkpt>
      <trkpt lat="43.60096" lon="6.92889">
        <ele>26</ele>
        <time>2016-03-28T12:24:57Z</time>
      </trkpt>
      <trkpt lat="43.60114" lon="6.92905">
        <ele>26</ele>
        <time>2016-03-28T12:25:02Z</time>
      </trkpt>
      <trkpt lat="43.60131" lon="6.92894">
        <ele>27</ele>
        <time>2016-03-28T12:25:09Z</time>
      </trkpt>
      <trkpt lat="43.60136" lon="6.92866">
        <ele>27</ele>
        <time>2016-03-28T12:25:14Z</time>
      </trkpt>
      <trkpt lat="43.60137" lon="6.92842">
        <ele>28</ele>
        <time>2016-03-28T12:25:19Z</time>
      </trkpt>
      <trkpt lat="43.60156" lon="6.92833">
        <ele>30</ele>
        <time>2016-03-28T12:25:27Z</time>
      </trkpt>
      <trkpt lat="43.60175" lon="6.92833">
        <ele>34</ele>
        <time>2016-03-28T12:25:33Z</time>
      </trkpt>
      <trkpt lat="43.60196" lon="6.9283">
        <ele>37</ele>
        <time>2016-03-28T12:25:40Z</time>
      </trkpt>
      <trkpt lat="43.60214" lon="6.92828">
        <ele>38</ele>
        <time>2016-03-28T12:25:45Z</time>
      </trkpt>
      <trkpt lat="43.60234" lon="6.92831">
        <ele>38</ele>
        <time>2016-03-28T12:25:51Z</time>
      </trkpt>
      <trkpt lat="43.60253" lon="6.92835">
        <ele>35</ele>
        <time>2016-03-28T12:25:57Z</time>
      </trkpt>
      <trkpt lat="43.60272" lon="6.92838">
        <ele>33</ele>
        <time>2016-03-28T12:26:02Z</time>
      </trkpt>
      <trkpt lat="43.6029" lon="6.9284">
        <ele>33</ele>
        <time>2016-03-28T12:26:07Z</time>
      </trkpt>
      <trkpt lat="43.60311" lon="6.92843">
        <ele>34</ele>
        <time>2016-03-28T12:26:13Z</time>
      </trkpt>
      <trkpt lat="43.6033" lon="6.92844">
        <ele>34</ele>
        <time>2016-03-28T12:26:18Z</time>
      </trkpt>
      <trkpt lat="43.6035" lon="6.92849">
        <ele>36</ele>
        <time>2016-03-28T12:26:22Z</time>
      </trkpt>
      <trkpt lat="43.6037" lon="6.92862">
        <ele>37</ele>
        <time>2016-03-28T12:26:26Z</time>
      </trkpt>
      <trkpt lat="43.60389" lon="6.92872">
        <ele>37</ele>
        <time>2016-03-28T12:26:30Z</time>
      </trkpt>
      <trkpt lat="43.60402" lon="6.92893">
        <ele>37</ele>
        <time>2016-03-28T12:26:37Z</time>
      </trkpt>
      <trkpt lat="43.60404" lon="6.92919">
        <ele>36</ele>
        <time>2016-03-28T12:26:42Z</time>
      </trkpt>
      <trkpt lat="43.60405" lon="6.92948">
        <ele>35</ele>
        <time>2016-03-28T12:26:47Z</time>
      </trkpt>
      <trkpt lat="43.60411" lon="6.92978">
        <ele>35</ele>
        <time>2016-03-28T12:26:51Z</time>
      </trkpt>
      <trkpt lat="43.60431" lon="6.9299">
        <ele>37</ele>
        <time>2016-03-28T12:26:56Z</time>
      </trkpt>
      <trkpt lat="43.60451" lon="6.93">
        <ele>37</ele>
        <time>2016-03-28T12:27:00Z</time>
      </trkpt>
      <trkpt lat="43.60472" lon="6.93005">
        <ele>38</ele>
        <time>2016-03-28T12:27:05Z</time>
      </trkpt>
      <trkpt lat="43.60492" lon="6.93009">
        <ele>36</ele>
        <time>2016-03-28T12:27:09Z</time>
      </trkpt>
      <trkpt lat="43.60511" lon="6.93011">
        <ele>35</ele>
        <time>2016-03-28T12:27:13Z</time>
      </trkpt>
      <trkpt lat="43.6053" lon="6.93012">
        <ele>35</ele>
        <time>2016-03-28T12:27:17Z</time>
      </trkpt>
      <trkpt lat="43.60548" lon="6.93019">
        <ele>35</ele>
        <time>2016-03-28T12:27:21Z</time>
      </trkpt>
      <trkpt lat="43.60569" lon="6.93024">
        <ele>35</ele>
        <time>2016-03-28T12:27:26Z</time>
      </trkpt>
      <trkpt lat="43.60587" lon="6.93024">
        <ele>36</ele>
        <time>2016-03-28T12:27:31Z</time>
      </trkpt>
      <trkpt lat="43.60608" lon="6.93017">
        <ele>36</ele>
        <time>2016-03-28T12:27:36Z</time>
      </trkpt>
      <trkpt lat="43.60627" lon="6.93017">
        <ele>37</ele>
        <time>2016-03-28T12:27:40Z</time>
      </trkpt>
      <trkpt lat="43.60645" lon="6.93019">
        <ele>38</ele>
        <time>2016-03-28T12:27:44Z</time>
      </trkpt>
      <trkpt lat="43.60664" lon="6.9303">
        <ele>38</ele>
        <time>2016-03-28T12:27:49Z</time>
      </trkpt>
      <trkpt lat="43.60677" lon="6.93047">
        <ele>41</ele>
        <time>2016-03-28T12:27:53Z</time>
      </trkpt>
      <trkpt lat="43.60691" lon="6.93063">
        <ele>41</ele>
        <time>2016-03-28T12:27:58Z</time>
      </trkpt>
      <trkpt lat="43.60704" lon="6.93084">
        <ele>43</ele>
        <time>2016-03-28T12:28:03Z</time>
      </trkpt>
      <trkpt lat="43.6072" lon="6.93071">
        <ele>41</ele>
        <time>2016-03-28T12:28:08Z</time>
      </trkpt>
      <trkpt lat="43.60736" lon="6.93058">
        <ele>42</ele>
        <time>2016-03-28T12:28:13Z</time>
      </trkpt>
      <trkpt lat="43.60756" lon="6.93062">
        <ele>44</ele>
        <time>2016-03-28T12:28:18Z</time>
      </trkpt>
      <trkpt lat="43.60775" lon="6.93076">
        <ele>45</ele>
        <time>2016-03-28T12:28:23Z</time>
      </trkpt>
      <trkpt lat="43.60786" lon="6.93095">
        <ele>46</ele>
        <time>2016-03-28T12:28:28Z</time>
      </trkpt>
      <trkpt lat="43.60797" lon="6.93117">
        <ele>48</ele>
        <time>2016-03-28T12:28:33Z</time>
      </trkpt>
      <trkpt lat="43.60812" lon="6.93134">
        <ele>49</ele>
        <time>2016-03-28T12:28:39Z</time>
      </trkpt>
      <trkpt lat="43.60832" lon="6.93134">
        <ele>49</ele>
        <time>2016-03-28T12:28:44Z</time>
      </trkpt>
      <trkpt lat="43.60848" lon="6.93147">
        <ele>57</ele>
        <time>2016-03-28T12:28:50Z</time>
      </trkpt>
      <trkpt lat="43.60856" lon="6.93173">
        <ele>60</ele>
        <time>2016-03-28T12:28:57Z</time>
      </trkpt>
      <trkpt lat="43.60865" lon="6.93198">
        <ele>62</ele>
        <time>2016-03-28T12:29:04Z</time>
      </trkpt>
      <trkpt lat="43.60877" lon="6.93219">
        <ele>63</ele>
        <time>2016-03-28T12:29:09Z</time>
      </trkpt>
      <trkpt lat="43.60893" lon="6.93234">
        <ele>63</ele>
        <time>2016-03-28T12:29:20Z</time>
      </trkpt>
      <trkpt lat="43.60911" lon="6.93244">
        <ele>63</ele>
        <time>2016-03-28T12:29:31Z</time>
      </trkpt>
      <trkpt lat="43.60928" lon="6.93255">
        <ele>66</ele>
        <time>2016-03-28T12:29:40Z</time>
      </trkpt>
      <trkpt lat="43.60945" lon="6.93269">
        <ele>69</ele>
        <time>2016-03-28T12:29:49Z</time>
      </trkpt>
      <trkpt lat="43.60961" lon="6.93286">
        <ele>71</ele>
        <time>2016-03-28T12:29:58Z</time>
      </trkpt>
      <trkpt lat="43.60976" lon="6.93302">
        <ele>72</ele>
        <time>2016-03-28T12:30:08Z</time>
      </trkpt>
      <trkpt lat="43.6099" lon="6.93318">
        <ele>73</ele>
        <time>2016-03-28T12:30:19Z</time>
      </trkpt>
      <trkpt lat="43.61" lon="6.93341">
        <ele>78</ele>
        <time>2016-03-28T12:30:31Z</time>
      </trkpt>
      <trkpt lat="43.61004" lon="6.93367">
        <ele>83</ele>
        <time>2016-03-28T12:30:48Z</time>
      </trkpt>
      <trkpt lat="43.61015" lon="6.93387">
        <ele>85</ele>
        <time>2016-03-28T12:31:06Z</time>
      </trkpt>
      <trkpt lat="43.61028" lon="6.93405">
        <ele>86</ele>
        <time>2016-03-28T12:31:17Z</time>
      </trkpt>
      <trkpt lat="43.61038" lon="6.93426">
        <ele>93</ele>
        <time>2016-03-28T12:31:32Z</time>
      </trkpt>
      <trkpt lat="43.61048" lon="6.93447">
        <ele>94</ele>
        <time>2016-03-28T12:31:46Z</time>
      </trkpt>
      <trkpt lat="43.61059" lon="6.93468">
        <ele>95</ele>
        <time>2016-03-28T12:31:59Z</time>
      </trkpt>
      <trkpt lat="43.61072" lon="6.93488">
        <ele>97</ele>
        <time>2016-03-28T12:32:14Z</time>
      </trkpt>
      <trkpt lat="43.61089" lon="6.93499">
        <ele>96</ele>
        <time>2016-03-28T12:32:26Z</time>
      </trkpt>
      <trkpt lat="43.61104" lon="6.93516">
        <ele>102</ele>
        <time>2016-03-28T12:32:39Z</time>
      </trkpt>
      <trkpt lat="43.61117" lon="6.93533">
        <ele>103</ele>
        <time>2016-03-28T12:32:53Z</time>
      </trkpt>
      <trkpt lat="43.61132" lon="6.93547">
        <ele>104</ele>
        <time>2016-03-28T12:33:06Z</time>
      </trkpt>
      <trkpt lat="43.6115" lon="6.93559">
        <ele>106</ele>
        <time>2016-03-28T12:33:17Z</time>
      </trkpt>
      <trkpt lat="43.61166" lon="6.93568">
        <ele>107</ele>
        <time>2016-03-28T12:33:29Z</time>
      </trkpt>
      <trkpt lat="43.61183" lon="6.93576">
        <ele>107</ele>
        <time>2016-03-28T12:33:39Z</time>
      </trkpt>
      <trkpt lat="43.61199" lon="6.93591">
        <ele>111</ele>
        <time>2016-03-28T12:33:50Z</time>
      </trkpt>
      <trkpt lat="43.61206" lon="6.93614">
        <ele>111</ele>
        <time>2016-03-28T12:34:06Z</time>
      </trkpt>
      <trkpt lat="43.61215" lon="6.93635">
        <ele>111</ele>
        <time>2016-03-28T12:37:10Z</time>
      </trkpt>
      <trkpt lat="43.61234" lon="6.93634">
        <ele>111</ele>
        <time>2016-03-28T12:37:18Z</time>
      </trkpt>
      <trkpt lat="43.61255" lon="6.93635">
        <ele>112</ele>
        <time>2016-03-28T12:37:26Z</time>
      </trkpt>
      <trkpt lat="43.61273" lon="6.93635">
        <ele>112</ele>
        <time>2016-03-28T12:37:31Z</time>
      </trkpt>
      <trkpt lat="43.61291" lon="6.93621">
        <ele>113</ele>
        <time>2016-03-28T12:37:42Z</time>
      </trkpt>
      <trkpt lat="43.61309" lon="6.93626">
        <ele>113</ele>
        <time>2016-03-28T12:37:51Z</time>
      </trkpt>
      <trkpt lat="43.61321" lon="6.93651">
        <ele>112</ele>
        <time>2016-03-28T12:37:56Z</time>
      </trkpt>
      <trkpt lat="43.61339" lon="6.93679">
        <ele>108</ele>
        <time>2016-03-28T12:37:59Z</time>
      </trkpt>
      <trkpt lat="43.61353" lon="6.93699">
        <ele>106</ele>
        <time>2016-03-28T12:38:01Z</time>
      </trkpt>
      <trkpt lat="43.61367" lon="6.93716">
        <ele>104</ele>
        <time>2016-03-28T12:38:03Z</time>
      </trkpt>
      <trkpt lat="43.61388" lon="6.93732">
        <ele>104</ele>
        <time>2016-03-28T12:38:06Z</time>
      </trkpt>
      <trkpt lat="43.61405" lon="6.93754">
        <ele>98</ele>
        <time>2016-03-28T12:38:10Z</time>
      </trkpt>
      <trkpt lat="43.61426" lon="6.93758">
        <ele>99</ele>
        <time>2016-03-28T12:38:30Z</time>
      </trkpt>
      <trkpt lat="43.61427" lon="6.93784">
        <ele>96</ele>
        <time>2016-03-28T12:38:43Z</time>
      </trkpt>
      <trkpt lat="43.61428" lon="6.93811">
        <ele>93</ele>
        <time>2016-03-28T12:38:54Z</time>
      </trkpt>
      <trkpt lat="43.61445" lon="6.93822">
        <ele>94</ele>
        <time>2016-03-28T12:38:59Z</time>
      </trkpt>
      <trkpt lat="43.61457" lon="6.93844">
        <ele>91</ele>
        <time>2016-03-28T12:39:04Z</time>
      </trkpt>
      <trkpt lat="43.61474" lon="6.93852">
        <ele>92</ele>
        <time>2016-03-28T12:39:10Z</time>
      </trkpt>
      <trkpt lat="43.61494" lon="6.93851">
        <ele>93</ele>
        <time>2016-03-28T12:39:18Z</time>
      </trkpt>
      <trkpt lat="43.61513" lon="6.93858">
        <ele>96</ele>
        <time>2016-03-28T12:39:25Z</time>
      </trkpt>
      <trkpt lat="43.61528" lon="6.93874">
        <ele>97</ele>
        <time>2016-03-28T12:39:33Z</time>
      </trkpt>
      <trkpt lat="43.6154" lon="6.93892">
        <ele>97</ele>
        <time>2016-03-28T12:39:40Z</time>
      </trkpt>
      <trkpt lat="43.61555" lon="6.93908">
        <ele>97</ele>
        <time>2016-03-28T12:39:45Z</time>
      </trkpt>
      <trkpt lat="43.61573" lon="6.93922">
        <ele>96</ele>
        <time>2016-03-28T12:39:50Z</time>
      </trkpt>
      <trkpt lat="43.6159" lon="6.93941">
        <ele>98</ele>
        <time>2016-03-28T12:39:54Z</time>
      </trkpt>
      <trkpt lat="43.61603" lon="6.93964">
        <ele>98</ele>
        <time>2016-03-28T12:39:59Z</time>
      </trkpt>
      <trkpt lat="43.61622" lon="6.93973">
        <ele>99</ele>
        <time>2016-03-28T12:40:06Z</time>
      </trkpt>
      <trkpt lat="43.61637" lon="6.93993">
        <ele>99</ele>
        <time>2016-03-28T12:40:16Z</time>
      </trkpt>
      <trkpt lat="43.61639" lon="6.94019">
        <ele>104</ele>
        <time>2016-03-28T12:40:27Z</time>
      </trkpt>
      <trkpt lat="43.61647" lon="6.94042">
        <ele>106</ele>
        <time>2016-03-28T12:40:37Z</time>
      </trkpt>
      <trkpt lat="43.61634" lon="6.94062">
        <ele>107</ele>
        <time>2016-03-28T12:40:46Z</time>
      </trkpt>
      <trkpt lat="43.61617" lon="6.94073">
        <ele>106</ele>
        <time>2016-03-28T12:40:53Z</time>
      </trkpt>
      <trkpt lat="43.61601" lon="6.94087">
        <ele>110</ele>
        <time>2016-03-28T12:40:59Z</time>
      </trkpt>
      <trkpt lat="43.61588" lon="6.94104">
        <ele>111</ele>
        <time>2016-03-28T12:41:06Z</time>
      </trkpt>
      <trkpt lat="43.61573" lon="6.94118">
        <ele>106</ele>
        <time>2016-03-28T12:42:19Z</time>
      </trkpt>
      <trkpt lat="43.61558" lon="6.94137">
        <ele>105</ele>
        <time>2016-03-28T12:42:31Z</time>
      </trkpt>
      <trkpt lat="43.61564" lon="6.94165">
        <ele>106</ele>
        <time>2016-03-28T12:42:35Z</time>
      </trkpt>
      <trkpt lat="43.61574" lon="6.94196">
        <ele>99</ele>
        <time>2016-03-28T12:42:39Z</time>
      </trkpt>
      <trkpt lat="43.61583" lon="6.94226">
        <ele>96</ele>
        <time>2016-03-28T12:42:42Z</time>
      </trkpt>
      <trkpt lat="43.61598" lon="6.9425">
        <ele>104</ele>
        <time>2016-03-28T12:42:45Z</time>
      </trkpt>
      <trkpt lat="43.61616" lon="6.94277">
        <ele>99</ele>
        <time>2016-03-28T12:42:48Z</time>
      </trkpt>
      <trkpt lat="43.6163" lon="6.94301">
        <ele>99</ele>
        <time>2016-03-28T12:42:50Z</time>
      </trkpt>
      <trkpt lat="43.61642" lon="6.94327">
        <ele>99</ele>
        <time>2016-03-28T12:42:52Z</time>
      </trkpt>
      <trkpt lat="43.61652" lon="6.94353">
        <ele>91</ele>
        <time>2016-03-28T12:42:54Z</time>
      </trkpt>
      <trkpt lat="43.6166" lon="6.94381">
        <ele>87</ele>
        <time>2016-03-28T12:42:56Z</time>
      </trkpt>
      <trkpt lat="43.61666" lon="6.94409">
        <ele>88</ele>
        <time>2016-03-28T12:42:58Z</time>
      </trkpt>
      <trkpt lat="43.61671" lon="6.94441">
        <ele>96</ele>
        <time>2016-03-28T12:43:00Z</time>
      </trkpt>
      <trkpt lat="43.61674" lon="6.94468">
        <ele>96</ele>
        <time>2016-03-28T12:43:02Z</time>
      </trkpt>
      <trkpt lat="43.61672" lon="6.94496">
        <ele>88</ele>
        <time>2016-03-28T12:43:05Z</time>
      </trkpt>
      <trkpt lat="43.6167" lon="6.94523">
        <ele>89</ele>
        <time>2016-03-28T12:43:11Z</time>
      </trkpt>
      <trkpt lat="43.61655" lon="6.94545">
        <ele>77</ele>
        <time>2016-03-28T12:43:16Z</time>
      </trkpt>
      <trkpt lat="43.61637" lon="6.94548">
        <ele>77</ele>
        <time>2016-03-28T12:43:19Z</time>
      </trkpt>
      <trkpt lat="43.61619" lon="6.94553">
        <ele>76</ele>
        <time>2016-03-28T12:43:22Z</time>
      </trkpt>
      <trkpt lat="43.61605" lon="6.94572">
        <ele>76</ele>
        <time>2016-03-28T12:43:29Z</time>
      </trkpt>
      <trkpt lat="43.61607" lon="6.94599">
        <ele>77</ele>
        <time>2016-03-28T12:43:34Z</time>
      </trkpt>
      <trkpt lat="43.6161" lon="6.94625">
        <ele>78</ele>
        <time>2016-03-28T12:43:39Z</time>
      </trkpt>
      <trkpt lat="43.61607" lon="6.94653">
        <ele>78</ele>
        <time>2016-03-28T12:43:47Z</time>
      </trkpt>
      <trkpt lat="43.61603" lon="6.94677">
        <ele>80</ele>
        <time>2016-03-28T12:43:53Z</time>
      </trkpt>
      <trkpt lat="43.616" lon="6.94704">
        <ele>81</ele>
        <time>2016-03-28T12:43:59Z</time>
      </trkpt>
      <trkpt lat="43.616" lon="6.9473">
        <ele>82</ele>
        <time>2016-03-28T12:44:08Z</time>
      </trkpt>
      <trkpt lat="43.61606" lon="6.94759">
        <ele>85</ele>
        <time>2016-03-28T12:44:15Z</time>
      </trkpt>
      <trkpt lat="43.61616" lon="6.94782">
        <ele>85</ele>
        <time>2016-03-28T12:44:25Z</time>
      </trkpt>
      <trkpt lat="43.61625" lon="6.94807">
        <ele>85</ele>
        <time>2016-03-28T12:44:36Z</time>
      </trkpt>
      <trkpt lat="43.6164" lon="6.94824">
        <ele>83</ele>
        <time>2016-03-28T12:44:51Z</time>
      </trkpt>
      <trkpt lat="43.61653" lon="6.94846">
        <ele>84</ele>
        <time>2016-03-28T12:45:03Z</time>
      </trkpt>
      <trkpt lat="43.6167" lon="6.94865">
        <ele>82</ele>
        <time>2016-03-28T12:45:43Z</time>
      </trkpt>
      <trkpt lat="43.61677" lon="6.9489">
        <ele>82</ele>
        <time>2016-03-28T12:46:10Z</time>
      </trkpt>
      <trkpt lat="43.61685" lon="6.94927">
        <ele>82</ele>
        <time>2016-03-28T12:46:55Z</time>
      </trkpt>
      <trkpt lat="43.61691" lon="6.94956">
        <ele>83</ele>
        <time>2016-03-28T12:47:23Z</time>
      </trkpt>
      <trkpt lat="43.61691" lon="6.94982">
        <ele>84</ele>
        <time>2016-03-28T12:47:30Z</time>
      </trkpt>
      <trkpt lat="43.61693" lon="6.95007">
        <ele>84</ele>
        <time>2016-03-28T12:47:37Z</time>
      </trkpt>
      <trkpt lat="43.61691" lon="6.95037">
        <ele>83</ele>
        <time>2016-03-28T12:47:44Z</time>
      </trkpt>
      <trkpt lat="43.61701" lon="6.95064">
        <ele>83</ele>
        <time>2016-03-28T12:48:01Z</time>
      </trkpt>
      <trkpt lat="43.61701" lon="6.95091">
        <ele>84</ele>
        <time>2016-03-28T12:48:11Z</time>
      </trkpt>
      <trkpt lat="43.61712" lon="6.95113">
        <ele>84</ele>
        <time>2016-03-28T12:48:27Z</time>
      </trkpt>
      <trkpt lat="43.61729" lon="6.95123">
        <ele>84</ele>
        <time>2016-03-28T12:48:42Z</time>
      </trkpt>
      <trkpt lat="43.61746" lon="6.951">
        <ele>82</ele>
        <time>2016-03-28T12:48:59Z</time>
      </trkpt>
      <trkpt lat="43.61762" lon="6.95081">
        <ele>83</ele>
        <time>2016-03-28T12:49:01Z</time>
      </trkpt>
      <trkpt lat="43.61785" lon="6.95067">
        <ele>87</ele>
        <time>2016-03-28T12:49:03Z</time>
      </trkpt>
      <trkpt lat="43.61804" lon="6.95055">
        <ele>88</ele>
        <time>2016-03-28T12:49:06Z</time>
      </trkpt>
      <trkpt lat="43.61821" lon="6.95037">
        <ele>88</ele>
        <time>2016-03-28T12:49:10Z</time>
      </trkpt>
      <trkpt lat="43.61838" lon="6.95026">
        <ele>97</ele>
        <time>2016-03-28T12:49:14Z</time>
      </trkpt>
      <trkpt lat="43.6185" lon="6.95006">
        <ele>95</ele>
        <time>2016-03-28T12:49:18Z</time>
      </trkpt>
      <trkpt lat="43.6186" lon="6.94984">
        <ele>92</ele>
        <time>2016-03-28T12:49:22Z</time>
      </trkpt>
      <trkpt lat="43.61865" lon="6.94957">
        <ele>93</ele>
        <time>2016-03-28T12:49:27Z</time>
      </trkpt>
      <trkpt lat="43.61865" lon="6.9493">
        <ele>91</ele>
        <time>2016-03-28T12:49:31Z</time>
      </trkpt>
      <trkpt lat="43.61865" lon="6.94901">
        <ele>88</ele>
        <time>2016-03-28T12:49:37Z</time>
      </trkpt>
      <trkpt lat="43.61866" lon="6.94876">
        <ele>89</ele>
        <time>2016-03-28T12:49:43Z</time>
      </trkpt>
      <trkpt lat="43.61871" lon="6.94849">
        <ele>89</ele>
        <time>2016-03-28T12:49:49Z</time>
      </trkpt>
      <trkpt lat="43.61886" lon="6.94833">
        <ele>89</ele>
        <time>2016-03-28T12:49:56Z</time>
      </trkpt>
      <trkpt lat="43.61906" lon="6.94825">
        <ele>89</ele>
        <time>2016-03-28T12:50:03Z</time>
      </trkpt>
      <trkpt lat="43.61924" lon="6.9482">
        <ele>92</ele>
        <time>2016-03-28T12:50:09Z</time>
      </trkpt>
      <trkpt lat="43.61942" lon="6.94827">
        <ele>94</ele>
        <time>2016-03-28T12:50:15Z</time>
      </trkpt>
      <trkpt lat="43.61954" lon="6.94847">
        <ele>97</ele>
        <time>2016-03-28T12:50:21Z</time>
      </trkpt>
      <trkpt lat="43.61966" lon="6.9487">
        <ele>98</ele>
        <time>2016-03-28T12:50:27Z</time>
      </trkpt>
      <trkpt lat="43.61976" lon="6.94893">
        <ele>99</ele>
        <time>2016-03-28T12:50:33Z</time>
      </trkpt>
      <trkpt lat="43.61988" lon="6.94917">
        <ele>101</ele>
        <time>2016-03-28T12:50:40Z</time>
      </trkpt>
      <trkpt lat="43.61997" lon="6.94942">
        <ele>102</ele>
        <time>2016-03-28T12:50:46Z</time>
      </trkpt>
      <trkpt lat="43.62001" lon="6.94967">
        <ele>108</ele>
        <time>2016-03-28T12:50:52Z</time>
      </trkpt>
      <trkpt lat="43.62004" lon="6.94992">
        <ele>106</ele>
        <time>2016-03-28T12:50:58Z</time>
      </trkpt>
      <trkpt lat="43.62011" lon="6.9502">
        <ele>107</ele>
        <time>2016-03-28T12:51:03Z</time>
      </trkpt>
      <trkpt lat="43.62019" lon="6.95045">
        <ele>108</ele>
        <time>2016-03-28T12:51:08Z</time>
      </trkpt>
      <trkpt lat="43.62029" lon="6.95067">
        <ele>108</ele>
        <time>2016-03-28T12:51:14Z</time>
      </trkpt>
      <trkpt lat="43.62033" lon="6.95094">
        <ele>106</ele>
        <time>2016-03-28T12:51:23Z</time>
      </trkpt>
      <trkpt lat="43.62031" lon="6.95124">
        <ele>106</ele>
        <time>2016-03-28T12:51:28Z</time>
      </trkpt>
      <trkpt lat="43.62031" lon="6.95152">
        <ele>106</ele>
        <time>2016-03-28T12:51:33Z</time>
      </trkpt>
      <trkpt lat="43.62031" lon="6.95178">
        <ele>105</ele>
        <time>2016-03-28T12:51:37Z</time>
      </trkpt>
      <trkpt lat="43.62032" lon="6.95206">
        <ele>105</ele>
        <time>2016-03-28T12:51:42Z</time>
      </trkpt>
      <trkpt lat="43.62039" lon="6.95234">
        <ele>105</ele>
        <time>2016-03-28T12:51:47Z</time>
      </trkpt>
      <trkpt lat="43.6205" lon="6.95256">
        <ele>104</ele>
        <time>2016-03-28T12:51:51Z</time>
      </trkpt>
      <trkpt lat="43.62065" lon="6.95278">
        <ele>104</ele>
        <time>2016-03-28T12:51:55Z</time>
      </trkpt>
      <trkpt lat="43.62084" lon="6.95293">
        <ele>103</ele>
        <time>2016-03-28T12:52:00Z</time>
      </trkpt>
      <trkpt lat="43.621" lon="6.95305">
        <ele>103</ele>
        <time>2016-03-28T12:52:05Z</time>
      </trkpt>
      <trkpt lat="43.62117" lon="6.95315">
        <ele>103</ele>
        <time>2016-03-28T12:52:11Z</time>
      </trkpt>
      <trkpt lat="43.62133" lon="6.95327">
        <ele>103</ele>
        <time>2016-03-28T12:52:17Z</time>
      </trkpt>
      <trkpt lat="43.6215" lon="6.95341">
        <ele>103</ele>
        <time>2016-03-28T12:52:24Z</time>
      </trkpt>
      <trkpt lat="43.62165" lon="6.95357">
        <ele>103</ele>
        <time>2016-03-28T12:52:29Z</time>
      </trkpt>
      <trkpt lat="43.6218" lon="6.9538">
        <ele>104</ele>
        <time>2016-03-28T12:52:34Z</time>
      </trkpt>
      <trkpt lat="43.62195" lon="6.95403">
        <ele>104</ele>
        <time>2016-03-28T12:52:38Z</time>
      </trkpt>
      <trkpt lat="43.6221" lon="6.95425">
        <ele>105</ele>
        <time>2016-03-28T12:52:42Z</time>
      </trkpt>
      <trkpt lat="43.62222" lon="6.95447">
        <ele>106</ele>
        <time>2016-03-28T12:52:46Z</time>
      </trkpt>
      <trkpt lat="43.62238" lon="6.95468">
        <ele>106</ele>
        <time>2016-03-28T12:52:51Z</time>
      </trkpt>
      <trkpt lat="43.62252" lon="6.9549">
        <ele>106</ele>
        <time>2016-03-28T12:52:56Z</time>
      </trkpt>
      <trkpt lat="43.62266" lon="6.95509">
        <ele>107</ele>
        <time>2016-03-28T12:53:02Z</time>
      </trkpt>
      <trkpt lat="43.62274" lon="6.95535">
        <ele>108</ele>
        <time>2016-03-28T12:53:08Z</time>
      </trkpt>
      <trkpt lat="43.62294" lon="6.95539">
        <ele>108</ele>
        <time>2016-03-28T12:53:40Z</time>
      </trkpt>
      <trkpt lat="43.62314" lon="6.95529">
        <ele>108</ele>
        <time>2016-03-28T12:53:45Z</time>
      </trkpt>
      <trkpt lat="43.62322" lon="6.95504">
        <ele>108</ele>
        <time>2016-03-28T12:53:51Z</time>
      </trkpt>
      <trkpt lat="43.62317" lon="6.95479">
        <ele>108</ele>
        <time>2016-03-28T12:53:56Z</time>
      </trkpt>
      <trkpt lat="43.62319" lon="6.95454">
        <ele>108</ele>
        <time>2016-03-28T12:54:02Z</time>
      </trkpt>
      <trkpt lat="43.62325" lon="6.95428">
        <ele>109</ele>
        <time>2016-03-28T12:54:09Z</time>
      </trkpt>
      <trkpt lat="43.6233" lon="6.95403">
        <ele>110</ele>
        <time>2016-03-28T12:54:13Z</time>
      </trkpt>
      <trkpt lat="43.62335" lon="6.95377">
        <ele>114</ele>
        <time>2016-03-28T12:54:17Z</time>
      </trkpt>
      <trkpt lat="43.62341" lon="6.95351">
        <ele>114</ele>
        <time>2016-03-28T12:54:22Z</time>
      </trkpt>
      <trkpt lat="43.62345" lon="6.95323">
        <ele>115</ele>
        <time>2016-03-28T12:54:28Z</time>
      </trkpt>
      <trkpt lat="43.62365" lon="6.95314">
        <ele>116</ele>
        <time>2016-03-28T12:54:41Z</time>
      </trkpt>
      <trkpt lat="43.62385" lon="6.95319">
        <ele>117</ele>
        <time>2016-03-28T12:54:47Z</time>
      </trkpt>
      <trkpt lat="43.62403" lon="6.95322">
        <ele>117</ele>
        <time>2016-03-28T12:54:58Z</time>
      </trkpt>
      <trkpt lat="43.62421" lon="6.95326">
        <ele>118</ele>
        <time>2016-03-28T12:55:05Z</time>
      </trkpt>
      <trkpt lat="43.62441" lon="6.95323">
        <ele>118</ele>
        <time>2016-03-28T12:55:18Z</time>
      </trkpt>
      <trkpt lat="43.62462" lon="6.95322">
        <ele>117</ele>
        <time>2016-03-28T12:55:26Z</time>
      </trkpt>
      <trkpt lat="43.62481" lon="6.95322">
        <ele>117</ele>
        <time>2016-03-28T12:55:32Z</time>
      </trkpt>
      <trkpt lat="43.62501" lon="6.95319">
        <ele>117</ele>
        <time>2016-03-28T12:55:40Z</time>
      </trkpt>
      <trkpt lat="43.6252" lon="6.95319">
        <ele>117</ele>
        <time>2016-03-28T12:55:47Z</time>
      </trkpt>
      <trkpt lat="43.6254" lon="6.95323">
        <ele>117</ele>
        <time>2016-03-28T12:55:53Z</time>
      </trkpt>
      <trkpt lat="43.62561" lon="6.95328">
        <ele>116</ele>
        <time>2016-03-28T12:55:58Z</time>
      </trkpt>
      <trkpt lat="43.62581" lon="6.95332">
        <ele>115</ele>
        <time>2016-03-28T12:56:03Z</time>
      </trkpt>
      <trkpt lat="43.62601" lon="6.95339">
        <ele>113</ele>
        <time>2016-03-28T12:56:08Z</time>
      </trkpt>
      <trkpt lat="43.62619" lon="6.95349">
        <ele>111</ele>
        <time>2016-03-28T12:56:14Z</time>
      </trkpt>
      <trkpt lat="43.62636" lon="6.95361">
        <ele>111</ele>
        <time>2016-03-28T12:56:19Z</time>
      </trkpt>
      <trkpt lat="43.62649" lon="6.95382">
        <ele>110</ele>
        <time>2016-03-28T12:56:23Z</time>
      </trkpt>
      <trkpt lat="43.62661" lon="6.95408">
        <ele>110</ele>
        <time>2016-03-28T12:56:27Z</time>
      </trkpt>
      <trkpt lat="43.62673" lon="6.95433">
        <ele>107</ele>
        <time>2016-03-28T12:56:31Z</time>
      </trkpt>
      <trkpt lat="43.62682" lon="6.95455">
        <ele>105</ele>
        <time>2016-03-28T12:56:35Z</time>
      </trkpt>
      <trkpt lat="43.62688" lon="6.95483">
        <ele>104</ele>
        <time>2016-03-28T12:56:39Z</time>
      </trkpt>
      <trkpt lat="43.6269" lon="6.95508">
        <ele>103</ele>
        <time>2016-03-28T12:56:42Z</time>
      </trkpt>
      <trkpt lat="43.62693" lon="6.95534">
        <ele>103</ele>
        <time>2016-03-28T12:56:47Z</time>
      </trkpt>
      <trkpt lat="43.62695" lon="6.95563">
        <ele>103</ele>
        <time>2016-03-28T12:56:52Z</time>
      </trkpt>
      <trkpt lat="43.62698" lon="6.95588">
        <ele>105</ele>
        <time>2016-03-28T12:56:56Z</time>
      </trkpt>
      <trkpt lat="43.627" lon="6.95617">
        <ele>105</ele>
        <time>2016-03-28T12:57:01Z</time>
      </trkpt>
      <trkpt lat="43.62703" lon="6.95644">
        <ele>106</ele>
        <time>2016-03-28T12:57:06Z</time>
      </trkpt>
      <trkpt lat="43.62725" lon="6.95655">
        <ele>106</ele>
        <time>2016-03-28T12:57:11Z</time>
      </trkpt>
      <trkpt lat="43.62745" lon="6.95651">
        <ele>106</ele>
        <time>2016-03-28T12:57:14Z</time>
      </trkpt>
      <trkpt lat="43.62767" lon="6.95653">
        <ele>106</ele>
        <time>2016-03-28T12:57:18Z</time>
      </trkpt>
      <trkpt lat="43.62786" lon="6.95632">
        <ele>105</ele>
        <time>2016-03-28T12:57:22Z</time>
      </trkpt>
      <trkpt lat="43.62795" lon="6.95603">
        <ele>105</ele>
        <time>2016-03-28T12:57:25Z</time>
      </trkpt>
      <trkpt lat="43.62807" lon="6.95579">
        <ele>104</ele>
        <time>2016-03-28T12:57:28Z</time>
      </trkpt>
      <trkpt lat="43.62826" lon="6.95566">
        <ele>104</ele>
        <time>2016-03-28T12:57:31Z</time>
      </trkpt>
      <trkpt lat="43.62844" lon="6.95563">
        <ele>106</ele>
        <time>2016-03-28T12:57:34Z</time>
      </trkpt>
      <trkpt lat="43.62864" lon="6.9556">
        <ele>106</ele>
        <time>2016-03-28T12:57:37Z</time>
      </trkpt>
      <trkpt lat="43.62884" lon="6.95556">
        <ele>107</ele>
        <time>2016-03-28T12:57:40Z</time>
      </trkpt>
      <trkpt lat="43.62905" lon="6.95549">
        <ele>107</ele>
        <time>2016-03-28T12:57:44Z</time>
      </trkpt>
      <trkpt lat="43.62915" lon="6.95527">
        <ele>107</ele>
        <time>2016-03-28T12:57:49Z</time>
      </trkpt>
      <trkpt lat="43.62915" lon="6.95501">
        <ele>108</ele>
        <time>2016-03-28T12:57:53Z</time>
      </trkpt>
      <trkpt lat="43.62929" lon="6.95478">
        <ele>110</ele>
        <time>2016-03-28T12:57:59Z</time>
      </trkpt>
      <trkpt lat="43.62933" lon="6.95448">
        <ele>110</ele>
        <time>2016-03-28T12:58:04Z</time>
      </trkpt>
      <trkpt lat="43.62931" lon="6.95414">
        <ele>109</ele>
        <time>2016-03-28T12:58:11Z</time>
      </trkpt>
      <trkpt lat="43.62928" lon="6.9539">
        <ele>111</ele>
        <time>2016-03-28T12:58:15Z</time>
      </trkpt>
      <trkpt lat="43.62925" lon="6.9536">
        <ele>112</ele>
        <time>2016-03-28T12:58:21Z</time>
      </trkpt>
      <trkpt lat="43.62922" lon="6.95331">
        <ele>112</ele>
        <time>2016-03-28T12:58:26Z</time>
      </trkpt>
      <trkpt lat="43.62921" lon="6.95302">
        <ele>113</ele>
        <time>2016-03-28T12:58:30Z</time>
      </trkpt>
      <trkpt lat="43.62923" lon="6.95275">
        <ele>112</ele>
        <time>2016-03-28T12:58:35Z</time>
      </trkpt>
      <trkpt lat="43.6294" lon="6.95257">
        <ele>113</ele>
        <time>2016-03-28T12:58:40Z</time>
      </trkpt>
      <trkpt lat="43.62959" lon="6.95256">
        <ele>113</ele>
        <time>2016-03-28T12:58:44Z</time>
      </trkpt>
      <trkpt lat="43.62979" lon="6.95247">
        <ele>113</ele>
        <time>2016-03-28T12:58:49Z</time>
      </trkpt>
      <trkpt lat="43.62998" lon="6.95232">
        <ele>113</ele>
        <time>2016-03-28T12:58:54Z</time>
      </trkpt>
      <trkpt lat="43.63018" lon="6.95232">
        <ele>115</ele>
        <time>2016-03-28T12:58:59Z</time>
      </trkpt>
      <trkpt lat="43.63035" lon="6.95217">
        <ele>115</ele>
        <time>2016-03-28T12:59:05Z</time>
      </trkpt>
      <trkpt lat="43.63055" lon="6.95204">
        <ele>116</ele>
        <time>2016-03-28T12:59:10Z</time>
      </trkpt>
      <trkpt lat="43.63074" lon="6.95197">
        <ele>116</ele>
        <time>2016-03-28T12:59:14Z</time>
      </trkpt>
      <trkpt lat="43.63092" lon="6.9519">
        <ele>117</ele>
        <time>2016-03-28T12:59:18Z</time>
      </trkpt>
      <trkpt lat="43.6311" lon="6.9518">
        <ele>117</ele>
        <time>2016-03-28T12:59:23Z</time>
      </trkpt>
      <trkpt lat="43.63124" lon="6.95155">
        <ele>116</ele>
        <time>2016-03-28T12:59:27Z</time>
      </trkpt>
      <trkpt lat="43.63128" lon="6.9513">
        <ele>116</ele>
        <time>2016-03-28T12:59:31Z</time>
      </trkpt>
      <trkpt lat="43.63141" lon="6.95113">
        <ele>116</ele>
        <time>2016-03-28T12:59:37Z</time>
      </trkpt>
      <trkpt lat="43.63161" lon="6.95124">
        <ele>116</ele>
        <time>2016-03-28T12:59:43Z</time>
      </trkpt>
      <trkpt lat="43.63167" lon="6.95149">
        <ele>117</ele>
        <time>2016-03-28T12:59:50Z</time>
      </trkpt>
      <trkpt lat="43.63153" lon="6.95167">
        <ele>118</ele>
        <time>2016-03-28T12:59:55Z</time>
      </trkpt>
      <trkpt lat="43.63152" lon="6.95197">
        <ele>118</ele>
        <time>2016-03-28T13:00:00Z</time>
      </trkpt>
      <trkpt lat="43.6315" lon="6.95226">
        <ele>117</ele>
        <time>2016-03-28T13:00:05Z</time>
      </trkpt>
      <trkpt lat="43.63153" lon="6.95255">
        <ele>117</ele>
        <time>2016-03-28T13:00:10Z</time>
      </trkpt>
      <trkpt lat="43.63158" lon="6.95283">
        <ele>117</ele>
        <time>2016-03-28T13:00:14Z</time>
      </trkpt>
      <trkpt lat="43.6316" lon="6.95309">
        <ele>117</ele>
        <time>2016-03-28T13:00:18Z</time>
      </trkpt>
      <trkpt lat="43.6317" lon="6.9533">
        <ele>117</ele>
        <time>2016-03-28T13:00:24Z</time>
      </trkpt>
      <trkpt lat="43.63187" lon="6.9534">
        <ele>116</ele>
        <time>2016-03-28T13:00:31Z</time>
      </trkpt>
      <trkpt lat="43.63205" lon="6.95331">
        <ele>117</ele>
        <time>2016-03-28T13:09:18Z</time>
      </trkpt>
      <trkpt lat="43.63225" lon="6.95326">
        <ele>117</ele>
        <time>2016-03-28T13:09:26Z</time>
      </trkpt>
      <trkpt lat="43.63243" lon="6.95321">
        <ele>116</ele>
        <time>2016-03-28T13:09:34Z</time>
      </trkpt>
      <trkpt lat="43.63263" lon="6.95324">
        <ele>116</ele>
        <time>2016-03-28T13:09:42Z</time>
      </trkpt>
      <trkpt lat="43.63272" lon="6.95302">
        <ele>116</ele>
        <time>2016-03-28T13:09:57Z</time>
      </trkpt>
      <trkpt lat="43.63267" lon="6.95275">
        <ele>116</ele>
        <time>2016-03-28T13:10:04Z</time>
      </trkpt>
      <trkpt lat="43.6326" lon="6.95249">
        <ele>116</ele>
        <time>2016-03-28T13:10:11Z</time>
      </trkpt>
      <trkpt lat="43.63265" lon="6.95224">
        <ele>115</ele>
        <time>2016-03-28T13:10:25Z</time>
      </trkpt>
      <trkpt lat="43.63274" lon="6.95247">
        <ele>115</ele>
        <time>2016-03-28T13:23:57Z</time>
      </trkpt>
      <trkpt lat="43.63282" lon="6.9527">
        <ele>116</ele>
        <time>2016-03-28T13:24:16Z</time>
      </trkpt>
      <trkpt lat="43.63276" lon="6.95294">
        <ele>116</ele>
        <time>2016-03-28T13:24:42Z</time>
      </trkpt>
      <trkpt lat="43.63277" lon="6.95319">
        <ele>116</ele>
        <time>2016-03-28T13:25:01Z</time>
      </trkpt>
      <trkpt lat="43.6326" lon="6.95327">
        <ele>116</ele>
        <time>2016-03-28T13:25:32Z</time>
      </trkpt>
      <trkpt lat="43.6324" lon="6.95327">
        <ele>116</ele>
        <time>2016-03-28T13:25:45Z</time>
      </trkpt>
      <trkpt lat="43.63221" lon="6.95327">
        <ele>117</ele>
        <time>2016-03-28T13:25:53Z</time>
      </trkpt>
      <trkpt lat="43.63204" lon="6.95333">
        <ele>117</ele>
        <time>2016-03-28T13:26:29Z</time>
      </trkpt>
      <trkpt lat="43.63208" lon="6.95357">
        <ele>116</ele>
        <time>2016-03-28T13:27:03Z</time>
      </trkpt>
    </trkseg>
  </trk>
</gpx>